[[{"header":{"parameterUnit":"m.s-1","parameterCategory":1,"la1":31.0,"la2":29.5877,"lo1":-88.7671,"lo2":-86.6584,"dy":0.0162,"dx":0.0185,"nx":115,"ny":88,"refTime":"2023-11-02T00:00:00:Z","depth":0,"parameterNumber":2,"parameterNumberName":"U-component_of_WINDS"},"data":[0.0,0.0,0.0,0.0,0.0,0.0,0.0,0.0,0.0,0.0,0.0,0.0,0.0,0.0,0.0,0.0,0.0,0.0,0.0,0.0,0.0,0.0,0.0,0.0,0.0,0.0,0.0,0.0,0.0,0.0,0.0,0.0,0.0,0.0,0.0,0.0,0.0,0.0,0.0,0.0,0.0,0.0,0.0,0.0,0.0,0.0,0.0,0.0,0.0,0.0,0.0,0.0,0.0,0.0,0.0,0.0,0.0,0.0,0.0,0.0,0.0,0.0,0.0,0.0,0.0,0.0,0.0,0.0,0.0,0.0,0.0,0.0,0.0,0.0,0.0,0.0,0.0,0.0,0.0,0.0,0.0,0.0,0.0,0.0,0.0,0.0,0.0,0.0,0.0,0.0,0.0,0.0,0.0,0.0,0.0,0.0,0.0,0.0,0.0,0.0,0.0,0.0,0.0,0.0,0.0,0.0,0.0,0.0,0.0,0.0,0.0,0.0,0.0,0.0,0.0,0.0,0.0,0.0,0.0,0.0,0.0,0.0,0.0,0.0,0.0,0.0,0.0,0.0,0.0,0.0,0.0,0.0,0.0,0.0,0.0,0.0,0.0,0.0,0.0,0.0,0.0,0.0,0.0,0.0,0.0,0.0,0.0,0.0,0.0,0.0,0.0,0.0,0.0,0.0,0.0,0.0,0.0,0.0,0.0,0.0,0.0,0.0,0.0,0.0,0.0,0.0,0.0,0.0,0.0,0.0,0.0,0.0,0.0,0.0,0.0,0.0,0.0,0.0,0.0,0.0,0.0,0.0,0.0,0.0,0.0,0.0,0.0,0.0,0.0,0.0,0.0,0.0,0.0,0.0,0.0,0.0,0.0,0.0,0.0,0.0,0.0,0.0,0.0,0.0,0.0,0.0,0.0,0.0,0.0,0.0,0.0,0.0,0.0,0.0,0.0,0.0,0.0,0.0,0.0,0.0,0.0,0.0,0.0,0.0,0.0,0.0,0.0,0.0,0.0,0.0,0.0,0.0,0.0,0.0,0.0,0.0,0.0,0.0,0.0,0.0,0.0,0.0,0.0,0.0,0.0,0.0,0.0,0.0,0.0,0.0,0.0,0.0,0.0,0.0,0.0,0.0,0.0,0.0,0.0,0.0,0.0,0.0,0.0,0.0,0.0,0.0,0.0,0.0,0.0,0.0,0.0,0.0,0.0,0.0,0.0,0.0,0.0,0.0,0.0,0.0,0.0,0.0,0.0,0.0,0.0,0.0,0.0,0.0,0.0,0.0,0.0,0.0,0.0,0.0,0.0,0.0,0.0,0.0,0.0,0.0,0.0,0.0,0.0,0.0,0.0,0.0,0.0,0.0,0.0,0.0,0.0,0.0,0.0,0.0,0.0,0.0,0.0,0.0,0.0,0.0,0.0,0.0,0.0,0.0,0.0,0.0,0.0,0.0,0.0,0.0,0.0,0.0,0.0,0.0,0.0,0.0,0.0,0.0,0.0,0.0,0.0,0.0,0.0,0.0,0.0,0.0,0.0,0.0,0.0,0.0,0.0,0.0,0.0,0.0,0.0,0.0,0.0,0.0,0.0,0.0,0.0,0.0,0.0,0.0,0.0,0.0,0.0,0.0,0.0,0.0,0.0,0.0,0.0,0.0,0.0,0.0,0.0,0.0,0.0,0.0,0.0,0.0,0.0,0.0,0.0,0.0,0.0,0.0,0.0,0.0,0.0,0.0,0.0,0.0,0.0,0.0,0.0,0.0,0.0,0.0,0.0,0.0,0.0,0.0,0.0,0.0,0.0,0.0,0.0,0.0,0.0,0.0,0.0,0.0,0.0,0.0,0.0,0.0,0.0,0.0,0.0,0.0,0.0,0.0,0.0,0.0,0.0,0.0,0.0,0.0,0.0,0.0,0.0,0.0,0.0,0.0,0.0,0.0,0.0,0.0,0.0,0.0,0.0,0.0,0.0,0.0,0.0,0.0,0.0,0.0,0.0,0.0,0.0,0.0,0.0,0.0,0.0,0.0,0.0,0.0,0.0,0.0,0.0,0.0,0.0,0.0,0.0,0.0,0.0,0.0,0.0,0.0,0.0,0.0,0.0,0.0,0.0,0.0,0.0,0.0,0.0,0.0,0.0,0.0,0.0,0.0,0.0,0.0,0.0,0.0,0.0,0.0,0.0,0.0,0.0,0.0,0.0,0.0,0.0,0.0,0.0,0.0,0.0,0.0,0.0,0.0,0.0,0.0,0.0,0.0,0.0,0.0,0.0,0.0,0.0,0.0,0.0,0.0,0.0,0.0,0.0,0.0,0.0,0.0,0.0,0.0,0.0,0.0,0.0,0.0,0.0,0.0,0.0,0.0,0.0,0.0,0.0,0.0,0.0,0.0,0.0,0.0,0.0,0.0,0.0,0.0,0.0,0.0,0.0,0.0,0.0,0.0,0.0,0.0,0.0,0.0,0.0,0.0,0.0,0.0,0.0,0.0,0.0,0.0,0.0,0.0,0.0,0.0,0.0,0.0,0.0,0.0,0.0,0.0,0.0,0.0,0.0,0.0,0.0,0.0,0.0,0.0,0.0,0.0,0.0,0.0,0.0,0.0,0.0,0.0,0.0,0.0,0.0,0.0,0.0,0.0,0.0,0.0,0.0,0.0,0.0,0.0,0.0,0.0,0.0,0.0,0.0,0.0,0.0,0.0,0.0,0.0,0.0,0.0,0.0,0.0,0.0,0.0,0.0,0.0,0.0,0.0,0.0,0.0,0.0,0.0,0.0,0.0,0.0,0.0,0.0,0.0,0.0,0.0,0.0,0.0,0.0,0.0,0.0,0.0,0.0,0.0,0.0,0.0,0.0,0.0,0.0,0.0,0.0,0.0,0.0,0.0,0.0,0.0,0.0,0.0,0.0,0.0,0.0,0.0,0.0,0.0,0.0,0.0,0.0,0.0,0.0,0.0,0.0,0.0,0.0,0.0,0.0,0.0,0.0,0.0,0.0,0.0,0.0,0.0,0.0,0.0,0.0,0.0,0.0,0.0,0.0,0.0,0.0,0.0,0.0,0.0,0.0,0.0,0.0,0.0,0.0,0.0,0.0,0.0,0.0,0.0,0.0,0.0,0.0,0.0,0.0,0.0,0.0,0.0,0.0,0.0,0.0,0.0,0.0,0.0,0.0,0.0,0.0,0.0,0.0,0.0,0.0,0.0,0.0,0.0,0.0,0.0,0.0,0.0,0.0,0.0,0.0,0.0,0.0,0.0,0.0,0.0,0.0,0.0,0.0,0.0,0.0,0.0,0.0,0.0,0.0,0.0,0.0,0.0,0.0,0.0,0.0,0.0,0.0,0.0,0.0,0.0,0.0,0.0,0.0,0.0,0.0,0.0,0.0,0.0,0.0,0.0,0.0,0.0,0.0,0.0,0.0,0.0,0.0,0.0,0.0,0.0,0.0,0.0,0.0,0.0,0.0,0.0,0.0,0.0,0.0,0.0,0.0,0.0,0.0,0.0,0.0,0.0,0.0,0.0,0.0,0.0,0.0,0.0,0.0,0.0,0.0,0.0,0.0,0.0,0.0,0.0,0.0,0.0,0.0,0.0,0.0,0.0,0.0,0.0,0.0,0.0,0.0,0.0,0.0,0.0,0.0,0.0,0.0,0.0,0.0,0.0,0.0,0.0,0.0,0.0,0.0,0.0,0.0,0.0,0.0,0.0,0.0,0.0,0.0,0.0,0.0,0.0,0.0,0.0,0.0,0.0,0.0,0.0,0.0,0.0,0.0,0.0,0.0,0.0,0.0,0.0,0.0,0.0,0.0,0.0,0.0,0.0,0.0,0.0,0.0,0.0,0.0,0.0,0.0,0.0,0.0,0.0,0.0,0.0,0.0,0.0,0.0,0.0,0.0,0.0,0.0,0.0,0.0,0.0,0.0,0.0,0.0,0.0,0.0,0.0,0.0,0.0,0.0,0.0,0.0,0.0,0.0,0.0,0.0,0.0,0.0,0.0,0.0,0.0,0.0,0.0,0.0,0.0,0.0,0.0,0.0,0.0,0.0,0.0,0.0,0.0,0.0,0.0,0.0,0.0,0.0,0.0,0.0,0.0,0.0,0.0,0.0,0.0,0.0,0.0,0.0,0.0,0.0,0.0,0.0,0.0,0.0,0.0,0.0,0.0,0.0,0.0,0.0,0.0,0.0,0.0,0.0,0.0,0.0,0.0,0.0,0.0,0.0,0.0,0.0,0.0,0.0,0.0,0.0,0.0,0.0,0.0,0.0,0.0,2.8078,0.0,0.0,0.0,0.0,0.0,0.0,0.0,0.0,0.0,0.0,0.0,0.0,0.0,0.0,0.0,0.0,0.0,0.0,0.0,0.0,0.0,0.0,0.0,0.0,0.0,0.0,0.0,0.0,0.0,0.0,0.0,0.0,0.0,0.0,0.0,0.0,0.0,0.0,0.0,0.0,0.0,0.0,0.0,0.0,0.0,0.0,0.0,0.0,0.0,0.0,0.0,0.0,0.0,0.0,0.0,0.0,0.0,0.0,0.0,0.0,0.0,0.0,0.0,0.0,0.0,0.0,0.0,0.0,0.0,0.0,0.0,0.0,0.0,0.0,0.0,0.0,0.0,0.0,0.0,0.0,0.0,0.0,0.0,0.0,0.0,0.0,0.0,0.0,0.0,0.0,0.0,0.0,0.0,0.0,0.0,0.0,0.0,0.0,0.0,0.0,0.0,0.0,0.0,0.0,0.0,0.0,0.0,0.0,0.0,0.0,2.9812,2.93,2.8443,2.7765,2.7411,0.0,0.0,0.0,0.0,0.0,0.0,0.0,0.0,0.0,0.0,0.0,0.0,0.0,0.0,0.0,0.0,0.0,0.0,0.0,0.0,0.0,0.0,0.0,0.0,0.0,0.0,0.0,0.0,0.0,0.0,0.0,0.0,0.0,0.0,0.0,0.0,0.0,0.0,0.0,0.0,0.0,0.0,0.0,0.0,0.0,0.0,0.0,0.0,0.0,0.0,0.0,0.0,0.0,0.0,0.0,0.0,0.0,0.0,0.0,0.0,0.0,0.0,0.0,0.0,0.0,0.0,0.0,0.0,0.0,0.0,0.0,0.0,0.0,0.0,0.0,0.0,0.0,0.0,0.0,0.0,0.0,0.0,0.0,0.0,0.0,0.0,0.0,0.0,0.0,0.0,0.0,0.0,0.0,0.0,0.0,0.0,0.0,0.0,0.0,0.0,0.0,0.0,0.0,0.0,0.0,0.0,0.0,0.0,0.0,0.0,0.0,0.0,2.9923,2.9419,2.8935,0.0,0.0,0.0,0.0,0.0,0.0,0.0,0.0,0.0,0.0,0.0,0.0,0.0,0.0,0.0,0.0,0.0,0.0,0.0,0.0,0.0,0.0,0.0,0.0,0.0,0.0,0.0,0.0,0.0,0.0,0.0,0.0,0.0,0.0,0.0,0.0,0.0,0.0,0.0,0.0,0.0,0.0,0.0,0.0,0.0,0.0,0.0,0.0,0.0,0.0,0.0,0.0,0.0,0.0,0.0,0.0,0.0,0.0,0.0,0.0,0.0,0.0,0.0,0.0,0.0,0.0,0.0,0.0,0.0,0.0,0.0,0.0,0.0,0.0,0.0,0.0,0.0,0.0,0.0,0.0,0.0,0.0,0.0,0.0,0.0,0.0,0.0,0.0,0.0,0.0,0.0,0.0,0.0,0.0,0.0,0.0,0.0,0.0,0.0,0.0,0.0,0.0,0.0,0.0,0.0,0.0,0.0,0.0,0.0,0.0,3.0731,3.364,3.4449,0.0,3.5026,0.0,0.0,0.0,0.0,0.0,0.0,0.0,0.0,0.0,0.0,0.0,0.0,0.0,0.0,0.0,0.0,0.0,0.0,0.0,0.0,0.0,0.0,0.0,0.0,0.0,0.0,0.0,0.0,0.0,0.0,0.0,0.0,0.0,0.0,0.0,0.0,0.0,0.0,0.0,0.0,0.0,0.0,0.0,0.0,0.0,0.0,0.0,0.0,0.0,0.0,0.0,0.0,0.0,0.0,0.0,0.0,0.0,0.0,0.0,0.0,0.0,0.0,0.0,0.0,0.0,0.0,0.0,0.0,0.0,0.0,0.0,0.0,0.0,0.0,0.0,0.0,0.0,0.0,0.0,0.0,0.0,0.0,0.0,0.0,0.0,0.0,0.0,0.0,0.0,0.0,0.0,0.0,0.0,0.0,0.0,0.0,0.0,0.0,0.0,0.0,0.0,0.0,0.0,0.0,0.0,0.0,0.0,0.0,0.0,0.0,3.3668,3.5009,3.4429,3.4402,0.0,0.0,0.0,0.0,0.0,0.0,0.0,0.0,0.0,0.0,0.0,0.0,0.0,0.0,0.0,0.0,0.0,0.0,0.0,0.0,0.0,0.0,0.0,0.0,0.0,0.0,0.0,0.0,0.0,0.0,0.0,0.0,0.0,0.0,0.0,0.0,0.0,0.0,0.0,0.0,0.0,0.0,0.0,0.0,0.0,0.0,0.0,0.0,0.0,0.0,0.0,0.0,0.0,0.0,0.0,0.0,0.0,0.0,0.0,0.0,0.0,0.0,0.0,0.0,0.0,0.0,0.0,0.0,0.0,0.0,0.0,0.0,0.0,0.0,0.0,0.0,0.0,0.0,0.0,0.0,0.0,0.0,0.0,0.0,0.0,0.0,0.0,0.0,0.0,0.0,0.0,0.0,0.0,0.0,0.0,0.0,0.0,0.0,0.0,0.0,0.0,0.0,0.0,0.0,0.0,0.0,0.0,0.0,0.0,0.0,3.4164,3.603,3.6868,3.5582,3.4609,3.4166,0.0,0.0,0.0,0.0,0.0,0.0,0.0,0.0,0.0,0.0,0.0,0.0,0.0,0.0,0.0,0.0,0.0,0.0,0.0,0.0,0.0,0.0,0.0,0.0,0.0,0.0,0.0,0.0,0.0,0.0,0.0,0.0,0.0,0.0,0.0,0.0,0.0,0.0,0.0,0.0,0.0,0.0,0.0,0.0,0.0,0.0,0.0,0.0,0.0,0.0,0.0,0.0,0.0,0.0,0.0,0.0,0.0,0.0,0.0,0.0,0.0,0.0,0.0,0.0,0.0,0.0,0.0,0.0,0.0,0.0,0.0,0.0,0.0,0.0,0.0,0.0,0.0,0.0,0.0,0.0,0.0,0.0,0.0,0.0,0.0,0.0,0.0,0.0,0.0,0.0,0.0,0.0,0.0,0.0,0.0,0.0,0.0,0.0,0.0,0.0,0.0,0.0,0.0,0.0,0.0,0.0,0.0,0.0,3.9256,3.6949,3.71,4.0366,3.9515,3.7219,0.0,0.0,0.0,0.0,0.0,0.0,0.0,0.0,0.0,0.0,0.0,0.0,0.0,0.0,0.0,0.0,0.0,0.0,0.0,0.0,0.0,0.0,0.0,0.0,0.0,0.0,0.0,0.0,0.0,0.0,0.0,0.0,0.0,0.0,0.0,0.0,0.0,0.0,0.0,0.0,0.0,0.0,0.0,0.0,0.0,0.0,0.0,0.0,0.0,0.0,0.0,0.0,0.0,0.0,0.0,0.0,0.0,0.0,0.0,0.0,0.0,0.0,0.0,0.0,0.0,0.0,0.0,0.0,0.0,0.0,0.0,0.0,0.0,0.0,0.0,0.0,0.0,0.0,0.0,0.0,0.0,0.0,0.0,0.0,0.0,0.0,0.0,0.0,0.0,0.0,0.0,0.0,0.0,0.0,0.0,0.0,0.0,0.0,0.0,0.0,0.0,0.0,0.0,0.0,0.0,0.0,0.0,0.0,0.0,3.1364,3.3457,3.7807,4.4124,3.8547,3.5585,0.0,0.0,0.0,0.0,0.0,0.0,0.0,0.0,0.0,0.0,0.0,0.0,0.0,0.0,0.0,0.0,0.0,0.0,0.0,0.0,0.0,0.0,0.0,0.0,0.0,0.0,0.0,0.0,0.0,0.0,0.0,0.0,0.0,0.0,0.0,0.0,0.0,0.0,0.0,0.0,0.0,0.0,0.0,0.0,0.0,0.0,0.0,0.0,0.0,0.0,0.0,0.0,0.0,0.0,0.0,0.0,0.0,0.0,0.0,0.0,0.0,0.0,0.0,0.0,0.0,0.0,0.0,0.0,0.0,0.0,0.0,0.0,0.0,0.0,0.0,0.0,0.0,0.0,0.0,0.0,0.0,0.0,0.0,0.0,0.0,0.0,0.0,0.0,0.0,0.0,0.0,0.0,0.0,0.0,0.0,0.0,0.0,0.0,0.0,0.0,0.0,0.0,0.0,0.0,0.0,0.0,0.0,0.0,0.0,3.0545,0.0,3.9838,4.3565,3.7921,3.4336,0.0,0.0,0.0,0.0,0.0,0.0,0.0,0.0,0.0,0.0,0.0,0.0,0.0,0.0,0.0,0.0,0.0,0.0,0.0,0.0,0.0,0.0,0.0,0.0,0.0,0.0,0.0,0.0,0.0,0.0,0.0,0.0,0.0,0.0,0.0,0.0,0.0,0.0,0.0,0.0,0.0,0.0,0.0,0.0,0.0,0.0,0.0,0.0,0.0,0.0,0.0,0.0,0.0,0.0,0.0,0.0,0.0,0.0,0.0,0.0,0.0,0.0,0.0,0.0,0.0,0.0,0.0,0.0,0.0,0.0,0.0,0.0,0.0,0.0,0.0,0.0,0.0,0.0,0.0,0.0,0.0,0.0,0.0,0.0,0.0,0.0,0.0,0.0,0.0,0.0,0.0,0.0,0.0,0.0,0.0,0.0,0.0,0.0,0.0,0.0,0.0,0.0,0.0,0.0,0.0,0.0,0.0,0.0,2.9807,3.8706,4.3039,4.2967,3.851,3.8017,3.3711,0.0,0.0,0.0,0.0,0.0,0.0,0.0,0.0,0.0,0.0,0.0,0.0,0.0,0.0,0.0,0.0,0.0,0.0,0.0,0.0,0.0,0.0,0.0,0.0,0.0,0.0,0.0,0.0,0.0,0.0,0.0,0.0,0.0,0.0,0.0,0.0,0.0,0.0,0.0,0.0,0.0,0.0,0.0,0.0,0.0,0.0,0.0,0.0,0.0,0.0,0.0,0.0,0.0,0.0,0.0,0.0,0.0,0.0,0.0,0.0,0.0,0.0,0.0,0.0,0.0,0.0,0.0,0.0,0.0,0.0,0.0,0.0,0.0,0.0,0.0,0.0,0.0,0.0,0.0,0.0,0.0,0.0,0.0,0.0,0.0,0.0,0.0,0.0,0.0,0.0,0.0,0.0,0.0,0.0,0.0,0.0,0.0,0.0,0.0,0.0,0.0,0.0,0.0,0.0,0.0,0.0,0.0,0.0,0.0,3.4945,3.8837,4.2097,4.411,3.6884,3.3516,0.0,0.0,0.0,0.0,0.0,0.0,0.0,0.0,0.0,0.0,0.0,0.0,0.0,0.0,0.0,0.0,0.0,0.0,0.0,0.0,0.0,0.0,0.0,0.0,0.0,0.0,0.0,0.0,0.0,0.0,0.0,0.0,0.0,0.0,0.0,0.0,0.0,0.0,0.0,0.0,0.0,0.0,0.0,0.0,0.0,0.0,0.0,0.0,0.0,0.0,0.0,0.0,0.0,0.0,0.0,0.0,0.0,0.0,0.0,0.0,0.0,0.0,0.0,0.0,0.0,0.0,0.0,0.0,0.0,0.0,0.0,0.0,0.0,0.0,0.0,0.0,0.0,0.0,0.0,0.0,0.0,0.0,0.0,0.0,0.0,0.0,0.0,0.0,0.0,0.0,0.0,0.0,0.0,0.0,0.0,0.0,0.0,0.0,0.0,0.0,0.0,0.0,0.0,0.0,0.0,0.0,0.0,0.0,0.0,3.9908,4.3341,4.5819,4.6964,3.9392,3.5763,3.6609,0.0,0.0,0.0,0.0,0.0,0.0,0.0,0.0,0.0,0.0,0.0,0.0,0.0,0.0,0.0,0.0,0.0,0.0,0.0,0.0,0.0,0.0,0.0,0.0,0.0,0.0,0.0,0.0,0.0,0.0,0.0,0.0,0.0,0.0,0.0,0.0,0.0,0.0,0.0,0.0,0.0,0.0,0.0,0.0,0.0,0.0,0.0,0.0,0.0,0.0,0.0,0.0,0.0,0.0,0.0,0.0,0.0,0.0,0.0,0.0,0.0,0.0,0.0,0.0,0.0,0.0,0.0,0.0,0.0,0.0,0.0,0.0,0.0,0.0,0.0,0.0,0.0,0.0,0.0,0.0,0.0,0.0,0.0,0.0,0.0,0.0,0.0,0.0,0.0,0.0,0.0,0.0,0.0,0.0,0.0,0.0,0.0,0.0,0.0,0.0,0.0,0.0,0.0,0.0,0.0,0.0,0.0,0.0,5.1491,5.4998,5.3731,4.7489,4.4844,4.0046,0.0,0.0,0.0,0.0,0.0,0.0,0.0,0.0,0.0,0.0,0.0,0.0,0.0,0.0,0.0,0.0,0.0,0.0,0.0,0.0,0.0,0.0,0.0,0.0,0.0,0.0,0.0,0.0,0.0,0.0,0.0,0.0,0.0,0.0,0.0,0.0,0.0,0.0,0.0,0.0,0.0,0.0,0.0,0.0,0.0,0.0,0.0,0.0,0.0,0.0,0.0,0.0,0.0,0.0,0.0,0.0,0.0,0.0,0.0,0.0,0.0,0.0,0.0,0.0,0.0,0.0,0.0,0.0,0.0,0.0,0.0,0.0,0.0,0.0,0.0,0.0,0.0,0.0,0.0,0.0,0.0,0.0,0.0,0.0,0.0,0.0,0.0,0.0,0.0,0.0,0.0,0.0,0.0,0.0,0.0,0.0,0.0,0.0,0.0,0.0,0.0,0.0,0.0,0.0,0.0,0.0,0.0,0.0,0.0,5.7192,6.2004,6.2153,5.7228,4.872,4.3123,0.0,0.0,0.0,0.0,0.0,0.0,0.0,0.0,0.0,0.0,0.0,0.0,0.0,0.0,0.0,0.0,0.0,0.0,0.0,0.0,0.0,0.0,0.0,0.0,0.0,0.0,0.0,0.0,0.0,0.0,0.0,0.0,0.0,0.0,0.0,0.0,0.0,0.0,0.0,0.0,0.0,0.0,0.0,0.0,0.0,0.0,0.0,0.0,0.0,0.0,0.0,0.0,0.0,0.0,0.0,0.0,0.0,0.0,0.0,0.0,0.0,0.0,0.0,0.0,0.0,0.0,0.0,0.0,0.0,0.0,0.0,0.0,0.0,0.0,0.0,0.0,0.0,0.0,0.0,0.0,0.0,0.0,0.0,0.0,0.0,0.0,0.0,0.0,0.0,0.0,0.0,0.0,0.0,0.0,0.0,0.0,0.0,0.0,0.0,0.0,0.0,0.0,0.0,0.0,0.0,0.0,0.0,0.0,5.5688,6.263,6.7195,6.7794,6.4383,5.5254,4.8029,0.0,0.0,0.0,0.0,0.0,0.0,0.0,0.0,0.0,0.0,0.0,0.0,0.0,0.0,0.0,0.0,0.0,0.0,0.0,0.0,0.0,0.0,0.0,0.0,0.0,0.0,0.0,0.0,0.0,0.0,0.0,0.0,0.0,0.0,0.0,0.0,0.0,0.0,0.0,0.0,0.0,0.0,0.0,0.0,0.0,0.0,0.0,0.0,0.0,0.0,0.0,0.0,0.0,0.0,0.0,0.0,0.0,0.0,0.0,0.0,0.0,0.0,0.0,0.0,0.0,0.0,0.0,0.0,0.0,0.0,0.0,0.0,0.0,0.0,0.0,0.0,0.0,0.0,0.0,0.0,0.0,0.0,0.0,0.0,0.0,0.0,0.0,0.0,0.0,0.0,0.0,0.0,0.0,0.0,0.0,0.0,0.0,0.0,0.0,0.0,0.0,0.0,0.0,0.0,0.0,0.0,0.0,0.0,6.0321,6.7522,7.0862,7.1339,6.8794,6.224,5.3493,0.0,0.0,0.0,0.0,0.0,0.0,0.0,0.0,0.0,0.0,0.0,0.0,0.0,0.0,0.0,0.0,0.0,0.0,0.0,0.0,0.0,0.0,0.0,0.0,0.0,0.0,0.0,0.0,0.0,0.0,0.0,0.0,0.0,0.0,0.0,0.0,0.0,0.0,0.0,0.0,0.0,0.0,0.0,0.0,0.0,0.0,0.0,0.0,0.0,0.0,0.0,0.0,0.0,0.0,0.0,0.0,0.0,0.0,0.0,0.0,0.0,0.0,0.0,0.0,0.0,0.0,0.0,0.0,0.0,0.0,0.0,0.0,0.0,0.0,0.0,0.0,0.0,0.0,0.0,0.0,0.0,0.0,0.0,0.0,0.0,0.0,0.0,0.0,0.0,0.0,0.0,0.0,0.0,0.0,0.0,0.0,0.0,0.0,0.0,0.0,0.0,0.0,0.0,0.0,0.0,0.0,0.0,0.0,6.3839,7.005,7.2727,7.272,7.0093,6.2892,5.5172,0.0,0.0,0.0,0.0,0.0,0.0,0.0,0.0,0.0,0.0,0.0,0.0,0.0,0.0,0.0,0.0,0.0,0.0,0.0,0.0,0.0,0.0,0.0,0.0,0.0,0.0,0.0,0.0,0.0,0.0,0.0,0.0,0.0,0.0,0.0,0.0,0.0,0.0,0.0,0.0,0.0,0.0,0.0,0.0,0.0,0.0,0.0,0.0,2.8607,0.0,0.0,0.0,0.0,0.0,0.0,0.0,0.0,0.0,0.0,0.0,0.0,0.0,0.0,0.0,0.0,0.0,0.0,0.0,0.0,0.0,0.0,0.0,0.0,0.0,0.0,0.0,0.0,0.0,0.0,0.0,0.0,0.0,0.0,0.0,0.0,0.0,0.0,0.0,0.0,0.0,0.0,0.0,0.0,0.0,0.0,0.0,0.0,0.0,0.0,0.0,0.0,0.0,0.0,0.0,0.0,0.0,0.0,0.0,6.7669,7.263,7.4466,7.4157,7.1665,6.5997,5.8478,0.0,0.0,0.0,0.0,0.0,0.0,0.0,0.0,0.0,0.0,0.0,0.0,0.0,0.0,0.0,0.0,0.0,0.0,0.0,0.0,0.0,0.0,0.0,0.0,0.0,0.0,0.0,0.0,0.0,0.0,0.0,0.0,0.0,0.0,0.0,0.0,0.0,0.0,0.0,0.0,0.0,0.0,0.0,0.0,0.0,0.0,0.0,0.0,0.0,0.0,0.0,0.0,0.0,0.0,0.0,0.0,0.0,0.0,0.0,0.0,0.0,0.0,0.0,0.0,0.0,0.0,0.0,0.0,0.0,0.0,0.0,0.0,0.0,0.0,0.0,0.0,0.0,0.0,0.0,0.0,0.0,0.0,0.0,0.0,0.0,0.0,0.0,0.0,0.0,0.0,0.0,0.0,0.0,0.0,0.0,0.0,0.0,0.0,0.0,0.0,0.0,0.0,0.0,0.0,0.0,0.0,0.0,6.3329,7.0451,7.4869,7.5897,7.5345,7.3226,6.9398,6.1927,5.076,0.0,0.0,0.0,0.0,0.0,0.0,0.0,0.0,0.0,0.0,0.0,0.0,0.0,0.0,0.0,0.0,0.0,0.0,0.0,0.0,0.0,0.0,0.0,0.0,0.0,0.0,0.0,0.0,0.0,0.0,0.0,0.0,0.0,0.0,0.0,0.0,0.0,0.0,3.1493,3.6253,0.0,0.0,0.0,0.0,0.0,0.0,0.0,0.0,3.3211,0.0,0.0,0.0,0.0,0.0,0.0,0.0,0.0,0.0,0.0,0.0,0.0,0.0,0.0,0.0,0.0,0.0,0.0,0.0,0.0,0.0,0.0,0.0,0.0,0.0,0.0,0.0,0.0,0.0,0.0,0.0,0.0,0.0,0.0,0.0,0.0,0.0,0.0,0.0,0.0,0.0,0.0,0.0,0.0,0.0,0.0,0.0,0.0,0.0,0.0,0.0,0.0,0.0,0.0,0.0,0.0,6.3668,6.4847,6.8833,7.5935,7.6302,7.5378,7.3344,6.9628,6.2954,5.3371,0.0,0.0,0.0,0.0,0.0,0.0,0.0,0.0,0.0,0.0,0.0,0.0,0.0,0.0,0.0,0.0,0.0,0.0,0.0,0.0,0.0,0.0,0.0,0.0,0.0,0.0,0.0,0.0,0.0,0.0,0.0,0.0,0.0,0.0,0.0,0.0,0.0,0.0,0.0,4.2466,4.4393,0.0,0.0,0.0,0.0,0.0,0.0,0.0,0.0,3.0756,0.0,0.0,0.0,0.0,0.0,0.0,0.0,0.0,0.0,0.0,0.0,0.0,0.0,0.0,0.0,0.0,0.0,0.0,0.0,0.0,0.0,0.0,0.0,0.0,0.0,0.0,0.0,0.0,0.0,0.0,0.0,0.0,0.0,0.0,0.0,0.0,0.0,0.0,0.0,0.0,0.0,0.0,0.0,0.0,0.0,0.0,0.0,0.0,0.0,0.0,0.0,0.0,0.0,0.0,0.0,6.1965,6.792,7.2689,7.6462,7.6476,7.5518,7.3659,6.7869,6.1006,0.0,0.0,0.0,0.0,0.0,0.0,0.0,0.0,0.0,0.0,0.0,0.0,0.0,0.0,0.0,0.0,0.0,0.0,0.0,0.0,0.0,0.0,0.0,0.0,0.0,0.0,0.0,0.0,0.0,0.0,0.0,0.0,0.0,0.0,0.0,0.0,0.0,0.0,0.0,0.0,4.407,4.6015,4.6794,0.0,0.0,0.0,0.0,0.0,0.0,3.663,3.3549,0.0,0.0,0.0,0.0,0.0,0.0,0.0,0.0,0.0,0.0,0.0,0.0,0.0,0.0,0.0,0.0,0.0,0.0,0.0,0.0,0.0,0.0,0.0,0.0,0.0,0.0,0.0,0.0,0.0,0.0,0.0,0.0,0.0,0.0,0.0,0.0,0.0,0.0,0.0,0.0,0.0,0.0,0.0,0.0,0.0,0.0,0.0,0.0,0.0,0.0,0.0,0.0,0.0,0.0,0.0,5.9338,6.9716,7.5603,7.6635,7.6573,7.5624,7.3661,6.6755,5.9661,0.0,0.0,0.0,0.0,0.0,0.0,0.0,0.0,0.0,0.0,0.0,0.0,0.0,0.0,0.0,0.0,0.0,0.0,0.0,0.0,0.0,0.0,0.0,0.0,0.0,0.0,0.0,0.0,0.0,0.0,0.0,0.0,0.0,0.0,0.0,0.0,0.0,0.0,0.0,0.0,0.0,4.7745,4.8479,4.5127,0.0,0.0,0.0,0.0,4.1051,4.1862,0.0,0.0,0.0,0.0,0.0,0.0,0.0,0.0,0.0,0.0,0.0,0.0,0.0,0.0,0.0,0.0,0.0,0.0,0.0,0.0,0.0,0.0,0.0,0.0,0.0,0.0,0.0,0.0,0.0,0.0,0.0,0.0,0.0,0.0,0.0,0.0,0.0,0.0,0.0,0.0,0.0,0.0,0.0,0.0,0.0,0.0,0.0,0.0,0.0,0.0,0.0,0.0,0.0,0.0,0.0,0.0,6.0461,6.6885,7.2042,7.6066,7.6604,7.5572,7.3265,6.9118,6.2079,0.0,0.0,0.0,0.0,0.0,0.0,0.0,0.0,0.0,0.0,0.0,0.0,0.0,0.0,0.0,0.0,0.0,0.0,0.0,0.0,0.0,0.0,0.0,0.0,0.0,0.0,0.0,0.0,0.0,0.0,0.0,0.0,0.0,0.0,0.0,0.0,0.0,0.0,0.0,0.0,0.0,5.2116,4.8015,4.614,4.504,0.0,0.0,4.5293,4.7131,4.9298,0.0,0.0,0.0,0.0,0.0,0.0,0.0,0.0,0.0,0.0,0.0,0.0,0.0,0.0,0.0,0.0,0.0,0.0,0.0,0.0,0.0,0.0,0.0,0.0,0.0,0.0,0.0,0.0,0.0,0.0,0.0,0.0,0.0,0.0,0.0,0.0,0.0,0.0,0.0,0.0,0.0,0.0,0.0,0.0,0.0,0.0,0.0,0.0,0.0,0.0,0.0,0.0,0.0,0.0,0.0,5.1886,6.1139,6.8996,7.4161,7.6159,7.6133,7.5139,7.3171,6.6616,5.9495,0.0,0.0,0.0,0.0,0.0,0.0,0.0,0.0,0.0,0.0,0.0,0.0,0.0,0.0,0.0,0.0,0.0,0.0,0.0,0.0,0.0,0.0,0.0,0.0,0.0,0.0,0.0,0.0,0.0,0.0,0.0,0.0,0.0,0.0,0.0,0.0,0.0,0.0,0.0,0.0,0.0,0.0,5.2287,5.0991,0.0,0.0,0.0,5.0948,5.317,0.0,0.0,0.0,0.0,0.0,0.0,0.0,0.0,0.0,0.0,0.0,0.0,0.0,0.0,0.0,0.0,0.0,0.0,0.0,0.0,0.0,0.0,0.0,0.0,0.0,0.0,0.0,0.0,0.0,0.0,0.0,0.0,0.0,0.0,0.0,0.0,0.0,0.0,0.0,0.0,0.0,0.0,0.0,0.0,0.0,0.0,0.0,0.0,0.0,0.0,0.0,0.0,0.0,0.0,0.0,0.0,0.0,6.135,7.0876,7.5768,7.5944,7.5463,7.4339,7.2579,6.5141,0.0,0.0,0.0,0.0,0.0,0.0,0.0,0.0,0.0,0.0,0.0,0.0,0.0,0.0,0.0,0.0,0.0,0.0,0.0,0.0,0.0,0.0,0.0,0.0,0.0,0.0,0.0,1.658,0.0,0.0,0.0,0.0,0.0,0.0,0.0,0.0,0.0,0.0,0.0,0.0,0.0,0.0,5.4201,5.5548,5.5446,5.547,0.0,0.0,5.6532,5.8752,5.9467,5.6737,0.0,0.0,0.0,0.0,0.0,0.0,0.0,0.0,0.0,0.0,0.0,0.0,0.0,0.0,0.0,0.0,0.0,0.0,0.0,0.0,0.0,0.0,0.0,0.0,0.0,0.0,0.0,0.0,0.0,0.0,0.0,0.0,0.0,0.0,0.0,0.0,0.0,0.0,0.0,0.0,0.0,0.0,0.0,0.0,0.0,0.0,0.0,0.0,0.0,0.0,0.0,0.0,0.0,0.0,0.0,6.1441,7.0328,7.4971,7.5125,7.4379,7.311,7.1309,6.6931,5.9764,0.0,0.0,0.0,0.0,0.0,0.0,0.0,0.0,0.0,0.0,0.0,0.0,0.0,0.0,0.0,0.0,0.0,0.0,0.0,0.0,0.0,0.0,0.0,0.0,0.0,0.0,0.0,0.0,0.0,0.0,0.0,0.0,0.0,0.0,0.0,0.0,0.0,0.0,0.0,0.0,0.0,5.5635,5.5151,5.7836,6.0254,0.0,0.0,6.1293,6.3657,6.6816,6.2566,4.383,0.0,0.0,0.0,0.0,0.0,0.0,0.0,0.0,0.0,0.0,0.0,0.0,0.0,0.0,0.0,0.0,0.0,0.0,0.0,0.0,0.0,0.0,0.0,0.0,0.0,0.0,0.0,0.0,0.0,0.0,0.0,0.0,0.0,0.0,0.0,0.0,0.0,0.0,0.0,0.0,0.0,0.0,0.0,0.0,0.0,0.0,0.0,0.0,0.0,0.0,0.0,0.0,0.0,5.3404,6.0937,6.9514,7.3966,7.4085,7.3416,7.2448,7.1275,6.7218,6.0522,0.0,0.0,0.0,0.0,0.0,0.0,0.0,0.0,0.0,0.0,0.0,0.0,0.0,0.0,0.0,0.0,0.0,0.0,0.0,0.0,0.0,0.0,0.0,0.0,0.0,0.0,0.0,0.0,2.9276,3.0546,2.9526,0.0,0.0,0.0,0.0,0.0,0.0,0.0,0.0,0.0,0.0,5.8979,6.1149,6.2853,0.0,0.0,6.429,6.4971,6.8292,6.8812,6.3814,4.8912,4.1169,0.0,0.0,0.0,0.0,0.0,0.0,0.0,0.0,0.0,0.0,0.0,0.0,0.0,0.0,0.0,0.0,0.0,0.0,0.0,0.0,0.0,0.0,0.0,0.0,0.0,0.0,0.0,0.0,0.0,0.0,0.0,0.0,0.0,0.0,0.0,0.0,0.0,0.0,0.0,0.0,0.0,0.0,0.0,0.0,0.0,0.0,0.0,0.0,0.0,0.0,0.0,0.0,5.2997,6.0384,6.8699,7.3013,7.3295,7.2483,7.1721,7.0951,6.7133,6.1105,0.0,0.0,0.0,0.0,0.0,0.0,0.0,0.0,0.0,0.0,0.0,0.0,0.0,0.0,0.0,0.0,0.0,0.0,0.0,0.0,0.0,0.0,0.0,0.0,0.0,0.0,0.0,0.0,3.32,3.3081,2.878,0.0,0.0,0.0,0.0,0.0,0.0,0.0,0.0,0.0,0.0,6.2354,6.5495,6.6727,6.7177,6.709,6.6151,6.6825,7.1053,7.0456,6.5193,5.2404,0.0,0.0,0.0,0.0,0.0,0.0,0.0,0.0,0.0,0.0,0.0,0.0,0.0,0.0,0.0,0.0,0.0,0.0,0.0,0.0,0.0,0.0,0.0,0.0,0.0,0.0,0.0,1.4112,0.0,0.0,1.4243,0.0,0.0,0.0,0.0,0.0,0.0,0.0,0.0,0.0,0.0,0.0,0.0,0.0,0.0,0.0,0.0,0.0,0.0,0.0,0.0,0.0,0.0,5.257,5.9784,6.7935,7.2292,7.2604,7.1155,7.0526,7.0662,6.6825,6.1571,5.5073,0.0,0.0,0.0,0.0,0.0,0.0,0.0,0.0,0.0,0.0,0.0,0.0,0.0,0.0,0.0,0.0,0.0,0.0,0.0,0.0,0.0,0.0,0.0,0.0,0.0,0.0,3.0396,3.2295,3.1204,0.0,0.0,0.0,0.0,0.0,0.0,0.0,0.0,0.0,0.0,5.9765,6.5481,6.7067,6.8617,6.9067,6.7671,6.6057,6.6542,7.1087,7.2008,6.729,0.0,0.0,0.0,0.0,0.0,0.0,0.0,0.0,0.0,0.0,0.0,0.0,0.0,0.0,0.0,0.0,0.0,0.0,0.0,0.0,0.0,0.0,0.0,0.0,0.0,0.0,0.0,2.3573,2.2211,0.0,0.0,0.0,0.0,0.0,0.0,0.0,0.0,0.0,0.0,0.0,4.3712,4.5806,0.0,0.0,0.0,0.0,0.0,0.0,0.0,0.0,0.0,0.0,0.0,0.0,5.3008,6.0258,6.7824,7.163,7.1378,7.1348,7.0754,6.9744,6.7913,6.2483,5.3052,0.0,0.0,0.0,0.0,0.0,0.0,0.0,0.0,0.0,0.0,0.0,0.0,0.0,0.0,0.0,0.0,0.0,0.0,0.0,0.0,0.0,0.0,0.0,0.0,0.0,2.8989,0.0,0.0,0.0,0.0,0.0,0.0,0.0,0.0,0.0,0.0,0.0,5.0399,5.7378,6.3411,6.7618,6.8964,6.9468,6.9369,0.0,0.0,0.0,0.0,0.0,0.0,0.0,0.0,0.0,0.0,0.0,0.0,0.0,0.0,4.9783,3.697,3.2715,3.1361,3.211,0.0,0.0,0.0,0.0,0.0,0.0,0.0,0.0,0.0,0.0,0.0,0.0,0.0,0.0,3.0945,2.9956,2.7795,0.0,0.0,0.0,0.0,0.0,0.0,0.0,0.0,4.5366,4.9588,5.2096,5.3831,5.3324,0.0,4.8273,4.3772,0.0,0.0,0.0,0.0,0.0,0.0,0.0,0.0,5.3666,6.0785,6.8068,7.1426,7.0613,7.1156,7.0908,6.9813,6.7954,6.2741,5.4136,4.8675,4.3421,0.0,0.0,0.0,0.0,0.0,0.0,0.0,0.0,0.0,0.0,0.0,0.0,0.0,0.0,0.0,0.0,0.0,0.0,0.0,0.0,0.0,0.0,0.0,3.1274,0.0,0.0,0.0,0.0,0.0,0.0,0.0,0.0,0.0,4.7402,5.1329,5.5495,6.2112,6.6474,6.9142,6.9547,0.0,0.0,0.0,0.0,0.0,0.0,0.0,6.0304,6.3657,6.5392,6.4126,5.7499,5.8839,6.0186,5.8185,0.0,0.0,4.4472,3.9979,3.8427,3.962,4.1955,4.3755,4.3559,4.4235,4.453,0.0,0.0,0.0,0.0,0.0,0.0,0.0,0.0,3.6994,3.7205,0.0,3.4189,0.0,0.0,0.0,0.0,2.9963,3.8568,0.0,0.0,5.5062,5.9185,5.9219,5.8952,5.8581,5.816,5.7813,5.5299,5.0409,3.93,0.0,0.0,0.0,0.0,0.0,0.0,5.4476,6.1498,6.8499,7.1534,7.0369,7.0567,7.0768,7.0959,6.6914,6.2717,5.8436,5.4553,4.9434,4.2894,3.7504,0.0,0.0,0.0,0.0,0.0,0.0,0.0,0.0,0.0,0.0,0.0,0.0,0.0,0.0,0.0,0.0,0.0,0.0,0.0,0.0,3.2841,0.0,0.0,0.0,0.0,0.0,0.0,0.0,0.0,0.0,0.0,5.5661,5.8059,6.0377,6.5995,0.0,0.0,0.0,0.0,6.8207,6.7024,6.5821,6.4618,6.3415,5.9809,5.9263,6.5193,0.0,0.0,6.2696,6.3879,6.4453,6.0861,6.1654,6.1834,5.9633,5.5331,5.2761,5.266,5.3943,5.4534,5.2173,5.2035,5.233,4.7936,0.0,0.0,0.0,0.0,4.3074,4.6599,5.218,5.045,4.8152,4.551,4.2821,0.0,0.0,0.0,0.0,0.0,0.0,4.8901,5.407,5.843,6.2021,6.4983,6.4791,6.4344,6.3574,6.1984,5.9915,5.7369,5.1663,4.3713,3.4038,0.0,0.0,0.0,0.0,5.7593,6.3545,6.8324,7.0608,6.9964,7.1059,7.1519,7.1383,6.7828,6.4847,6.2538,5.9253,5.4984,4.9524,4.3723,0.0,0.0,0.0,0.0,0.0,0.0,0.0,0.0,0.0,0.0,0.0,0.0,0.0,0.0,0.0,0.0,0.0,0.0,0.0,3.451,3.4351,3.2853,0.0,0.0,0.0,0.0,0.0,0.0,0.0,0.0,0.0,6.037,6.5057,6.693,0.0,0.0,7.0099,6.8256,6.882,6.9582,6.9549,6.8092,0.0,6.7103,6.3563,6.2908,6.873,7.0552,7.0582,6.8942,6.9566,6.9708,6.7704,6.7624,6.7319,6.5861,6.049,5.6932,5.808,5.9799,6.0111,5.783,5.7655,5.7867,5.9239,5.1602,4.8568,4.9076,5.19,5.2159,5.5206,5.9826,5.8386,5.6392,5.3904,5.114,4.6728,4.1274,4.0295,0.0,0.0,0.0,5.4711,6.0106,6.2256,6.5114,6.8254,6.8114,6.7904,6.7576,6.5221,6.3659,6.2705,5.9305,5.2831,4.3694,0.0,0.0,4.7457,5.3891,5.9884,6.5218,6.8878,7.0412,6.9839,7.0786,7.1238,7.1113,6.8538,6.6519,6.5283,6.2599,5.9207,5.5114,4.9613,4.3579,0.0,0.0,0.0,0.0,0.0,0.0,0.0,0.0,0.0,0.0,0.0,1.7405,0.0,0.0,0.0,0.0,2.3416,3.3158,3.9447,3.7948,0.0,0.0,0.0,0.0,0.0,0.0,0.0,4.8954,4.9281,5.2869,6.261,6.7842,7.0054,6.8261,6.9571,7.0045,6.8294,0.0,6.9683,7.0412,6.961,6.9018,6.9335,6.7589,6.7612,7.1851,7.2808,7.2944,7.2712,7.2901,7.2563,7.1575,7.1031,7.0482,6.9654,6.5561,6.2336,6.2784,6.3762,6.3826,6.1733,6.1401,6.1631,6.8516,6.6253,5.9779,5.785,5.9081,6.0504,6.1606,6.2414,6.239,6.2206,6.1741,5.8621,5.5912,5.3576,5.1669,0.0,5.4075,5.7424,6.1184,6.5197,6.6567,6.8234,6.9949,6.9678,6.9811,7.0371,6.7934,6.6778,6.6555,6.3419,5.9874,5.6097,5.1877,5.1396,5.4645,5.7771,6.1798,6.6681,6.9628,7.0757,6.9973,7.0204,7.0591,7.0861,6.9144,6.7774,6.6848,6.4665,6.2217,5.9567,5.4669,4.8693,4.1615,0.0,0.0,0.0,0.0,0.0,0.0,0.0,0.0,0.0,0.0,0.0,0.0,0.0,0.0,0.0,3.3184,0.0,4.3986,4.2694,0.0,0.0,0.0,4.0778,4.5737,4.9493,5.2484,5.4179,0.0,0.0,6.3219,6.7815,7.0712,7.0394,7.0182,6.9878,6.8956,6.892,6.9315,7.057,7.0672,7.0725,7.1048,7.1203,7.2045,7.4024,7.4995,7.4832,7.4399,7.4154,7.3701,7.3006,7.2447,7.1821,7.1061,7.0515,6.9795,6.6746,6.6575,6.634,6.4556,6.3998,6.3948,7.3354,7.262,7.0904,6.8678,6.6359,6.6605,6.7487,6.8645,6.7547,6.612,6.4271,6.1858,5.9438,5.7219,5.8542,5.9865,6.1296,6.3681,6.6408,6.9477,6.991,7.0704,7.1905,7.1307,7.1082,7.1121,7.0387,6.9642,6.8893,6.7255,6.5389,6.3432,6.1673,5.9389,5.6869,6.109,6.4777,6.7631,6.91,7.0318,7.1108,7.1177,7.1206,7.1293,6.987,6.8614,6.7523,6.5039,6.2758,6.0739,5.6384,5.2011,4.7713,3.833,0.0,0.0,0.0,0.0,0.0,0.0,0.0,0.0,0.0,2.6096,1.57,0.0,2.8815,0.0,3.2781,4.5788,4.5746,4.4129,0.0,0.0,4.7752,4.9468,5.6185,5.7463,5.8591,6.0635,6.2625,6.4737,6.6915,6.9397,7.0659,7.0079,7.0188,7.0007,6.9093,7.0434,7.1843,7.2394,7.2795,7.3015,7.3031,7.3296,7.3714,7.468,7.4397,7.4115,7.4516,7.4486,7.4407,7.4342,7.4137,7.3412,7.2241,7.2368,7.1716,6.9577,6.8434,6.7589,6.6807,6.5868,6.5255,7.6596,7.6296,7.575,7.437,7.2335,7.1551,7.1511,7.1868,7.0861,6.9281,6.7402,6.5671,6.3711,6.1846,6.4266,6.5597,6.6125,6.7717,6.9698,7.1862,7.1885,7.2381,7.3119,7.2809,7.2498,7.2116,7.1344,7.0496,6.9571,6.8605,6.737,6.6039,6.6004,6.4372,6.152,6.4214,6.6464,6.8071,6.917,7.0388,7.147,7.1261,7.095,7.047,6.8818,6.7188,6.5682,6.3024,6.0966,5.9387,5.6387,5.3067,4.9447,4.2388,3.6237,0.0,0.0,0.0,0.0,0.0,0.0,0.0,0.0,0.0,0.0,0.0,3.346,2.602,4.0377,5.0291,5.0793,5.0503,5.1589,5.4768,5.5135,5.7258,6.2565,6.2915,6.3589,6.563,6.7089,6.8043,6.8512,6.9446,7.0031,7.0265,7.043,7.0404,7.0109,7.1285,7.259,7.3053,7.3662,7.4217,7.4335,7.4867,7.4995,7.4304,7.4383,7.4619,7.4509,7.4397,7.4429,7.4457,7.425,7.3946,7.3141,7.2649,7.2143,7.1188,7.0044,6.8941,6.7741,6.6928,6.6406,7.8499,7.831,7.7355,7.6938,7.6851,7.5358,7.4167,7.3229,7.2674,7.1657,7.0202,6.9297,6.7939,6.653,6.8873,6.9807,6.9531,7.0617,7.1796,7.313,7.3199,7.3426,7.386,7.3891,7.3598,7.2899,7.1646,7.055,6.9688,6.8925,6.787,6.666,6.7428,6.743,6.6586,6.6995,6.7672,6.8474,6.9703,7.0726,7.1612,7.0979,7.0102,6.9121,6.6965,6.4771,6.2546,6.0179,5.8361,5.7189,5.5475,5.2994,4.952,4.5655,4.1049,0.0,3.2147,0.0,0.0,0.0,0.0,0.0,0.0,0.0,0.0,3.5539,3.8223,4.224,5.0884,5.6275,5.6588,5.7992,5.917,5.97,6.1525,6.3768,6.6316,6.6744,6.7488,6.9221,7.0257,7.0286,6.9075,6.8828,6.9389,7.0438,7.0796,7.0992,7.1123,7.1867,7.2551,7.2909,7.387,7.4702,7.4901,7.5994,7.6181,7.4439,7.471,7.5364,7.4617,7.4426,7.4172,7.3944,7.3848,7.3785,7.3689,7.2732,7.2126,7.1886,7.101,6.9809,6.8256,6.7668,6.7109,7.9063,7.9074,7.8475,7.822,7.8118,7.709,7.5529,7.3594,7.2996,7.1787,7.0213,7.0754,7.055,6.9917,7.1431,7.2296,7.2661,7.3125,7.3683,7.4169,7.4238,7.4171,7.3995,7.3972,7.3673,7.3141,7.2128,7.1458,7.1084,7.025,6.9685,6.9421,6.8837,6.8336,6.8058,0.0,0.0,0.0,6.9933,7.0757,7.158,7.0768,6.9704,6.8175,6.5509,0.0,6.0572,5.8621,5.7155,5.6178,5.4539,0.0,0.0,0.0,0.0,0.0,0.0,0.0,0.0,0.0,0.0,0.0,4.2119,4.0527,3.7169,3.935,4.3304,4.892,5.5778,5.9339,5.8127,5.9298,6.1165,6.3552,6.5005,6.6742,6.9002,6.8989,6.9047,6.9594,6.9641,6.9456,6.8956,6.9068,6.96,7.0302,7.08,7.1405,7.1865,7.2649,7.31,7.3295,7.457,7.5409,7.5054,7.6201,7.7073,7.6926,7.5558,7.4964,7.5074,7.4697,7.4294,7.4297,7.4273,7.3942,7.3202,7.3651,7.3475,7.1478,7.0201,6.9277,6.9194,6.8717,6.8039,7.9956,7.9644,7.9109,7.8541,0.0,7.7033,7.5506,7.3776,7.4116,7.3135,7.1342,7.2983,7.2827,7.1342,7.3387,7.4066,7.3774,7.4118,7.4444,7.4898,7.5056,7.4998,7.4668,7.4916,7.4416,7.3177,7.2645,7.2036,7.1391,7.0337,6.967,6.9391,6.8591,6.8097,6.775,6.805,6.8654,6.9588,6.9703,7.022,7.1036,6.9898,6.8366,6.6515,6.3629,0.0,0.0,0.0,0.0,0.0,0.0,0.0,0.0,4.8508,0.0,4.6056,4.4014,4.3355,4.451,4.4843,4.6458,4.9872,5.0659,4.8872,4.4185,4.6227,4.9437,5.3524,5.9264,6.2187,6.0953,6.2828,6.4939,6.6434,6.7945,6.9301,6.9944,6.9729,6.9556,6.969,6.9367,6.901,6.8759,6.8963,6.9389,7.0088,7.0642,7.1371,7.2216,7.3121,7.3813,7.4466,7.5113,7.5814,7.5955,7.6492,7.6962,7.6856,7.6239,7.5776,7.5681,7.5334,7.4926,7.4859,7.4397,7.3811,7.3562,7.3959,7.3829,7.207,7.0694,6.9777,6.9534,6.8945,6.8152,8.0817,8.0073,7.9365,7.8489,7.7548,7.6576,7.537,7.4094,7.499,0.0,0.0,7.4787,7.4469,7.2624,7.4817,7.5254,7.436,7.4684,7.4945,7.5333,7.5652,7.5618,7.5134,7.5825,7.5118,7.3249,7.2821,7.2227,7.1283,7.0095,6.9278,6.8825,6.8253,6.7668,6.7208,6.7697,6.8535,6.9672,6.9452,6.9809,7.0416,6.9053,6.7228,6.5092,6.2183,5.8991,5.5783,5.3913,5.2203,5.0867,5.076,5.068,5.0522,5.0932,5.1625,5.2533,5.2745,5.3576,5.5313,5.4653,5.4755,5.6112,5.6709,5.5615,5.2122,5.323,5.4994,5.7358,6.222,6.4839,6.4101,6.6588,6.8531,6.8632,7.0073,7.0707,7.0395,6.9871,6.9611,6.9793,6.937,6.8913,6.8847,6.8944,6.9234,6.996,7.057,7.1406,7.2595,7.3451,7.4258,7.5459,7.5624,7.5923,7.6589,7.6853,7.6608,7.6054,7.648,7.6615,7.6119,7.59,7.5647,7.518,7.4159,7.3509,7.3539,7.3661,7.329,7.2305,7.1383,7.0494,6.964,6.8715,6.7727,8.0741,8.0364,7.9313,7.8702,7.8325,7.7067,7.604,7.4993,7.4221,7.3844,7.3988,7.4581,7.4774,7.4876,7.5464,7.5633,7.5509,7.572,7.5662,7.5367,7.6017,7.5859,7.4939,7.5779,7.523,7.3288,7.2426,7.1824,7.1301,6.9993,6.9566,6.9877,6.8889,6.8188,6.7877,6.7909,6.8447,6.9503,6.9953,7.0203,7.0263,6.901,6.7342,6.4996,6.2543,5.9878,5.6972,5.6173,5.5488,5.4547,5.3813,5.35,5.3856,5.3618,5.3597,5.3871,5.4419,5.5593,5.7503,5.7835,5.8668,6.0257,6.0207,5.9422,5.8353,5.6981,5.7695,6.1217,6.4854,6.7128,6.7293,6.8405,6.9444,7.0215,7.0389,7.048,7.0454,6.9921,6.964,6.9772,6.9483,6.8998,6.8934,6.9263,6.9728,7.0192,7.0952,7.2128,7.3275,7.3761,7.4456,7.5519,7.5789,7.5819,7.6221,7.6355,7.6263,7.6202,7.6239,7.6289,7.6139,7.6181,7.5714,7.4501,7.3227,7.2513,7.2703,7.2952,7.2582,7.1502,7.0644,6.988,6.945,6.8271,6.7034,8.0967,8.0318,7.9513,7.8875,7.8197,7.666,7.5437,7.4671,7.4426,7.4364,7.4707,7.5412,7.5681,7.5514,7.6059,7.6222,7.6165,7.5952,7.5918,7.6017,7.6324,7.6045,7.5332,7.5919,7.5211,7.3476,7.3012,7.2545,7.189,7.0158,6.9343,6.9521,6.859,6.8209,6.797,6.8544,6.9022,6.9588,6.9214,6.9018,6.9332,6.8043,6.6524,6.4927,6.2775,6.0735,5.8701,5.7793,5.6856,5.5977,5.5608,5.5435,5.5676,5.5568,5.6062,5.7362,5.774,5.8839,6.096,6.1333,6.1795,6.2488,6.1933,6.1616,6.165,5.9566,5.9585,6.2891,6.6388,6.842,6.8262,6.9329,7.0228,7.0556,7.0435,7.028,7.0279,6.9489,6.889,6.898,6.8631,6.8528,6.8828,6.894,6.9724,7.0675,7.1797,7.2718,7.365,7.4085,7.4564,7.5474,7.5685,7.5819,7.6088,7.585,7.5819,7.6221,7.6507,7.6585,7.6814,7.6891,7.6333,7.4799,7.3181,7.2195,7.2261,7.2357,7.2048,7.1359,7.0102,6.9387,6.8971,6.7757,6.6491,8.1137,8.0043,7.9716,7.889,7.7717,7.6115,7.4963,7.4337,7.4638,7.4854,7.5247,7.6279,7.6325,7.5798,7.6394,7.6645,7.6402,7.5899,7.5994,7.6495,7.6324,7.5956,7.5616,7.5872,7.509,7.3677,7.346,7.2941,7.2088,7.0222,6.9001,6.85,6.8031,6.7964,6.8213,6.8758,6.9355,6.9859,6.8695,6.8169,6.8608,6.7451,6.6281,6.5167,6.3645,6.2228,6.0956,5.996,5.8961,5.7968,5.7986,5.7932,5.7827,5.806,5.8984,6.0732,6.1028,6.1829,6.3458,6.3668,6.361,6.3438,6.2736,6.2704,6.3036,6.1797,6.1817,6.438,6.7677,6.9575,6.9189,6.998,7.0716,7.0518,7.0438,7.0179,6.9878,6.8925,6.8336,6.8194,6.7939,6.7816,6.8371,6.8642,6.9507,7.1223,7.2459,7.3298,7.3715,7.4321,7.5001,7.5215,7.558,7.5685,7.585,7.5444,7.5414,7.6221,7.6589,7.6884,7.7208,7.7569,7.7166,7.5372,7.3229,7.2153,7.2031,7.1813,7.1466,7.0929,6.9647,6.8427,6.7947,6.7157,6.605,8.08,7.9852,7.9418,7.8409,7.6951,7.5989,7.5378,7.4933,7.4238,7.4556,7.5601,7.6275,7.6268,7.5776,7.6245,7.6402,7.6122,7.5805,7.5994,7.6392,7.5743,7.5441,7.5512,7.5347,7.4554,7.3522,7.3221,7.2527,7.1253,6.9612,6.8343,6.7366,6.7379,6.8111,6.882,6.8485,6.8934,7.0255,6.9329,6.8782,6.8735,6.845,6.7514,6.5892,6.5911,6.5212,6.3804,6.3967,6.3385,6.2312,6.2093,6.2005,6.1664,6.2066,6.2531,6.2791,6.3165,6.3633,6.3826,6.3514,6.3251,6.3219,6.2608,6.2364,6.2939,6.3932,6.5156,6.6662,6.8957,7.0408,7.0416,7.0836,7.0774,7.0262,7.0131,6.9946,6.914,6.8625,6.8223,6.8161,6.7512,6.7264,6.7683,6.8484,6.9736,7.1682,7.2633,7.3385,7.3774,7.4491,7.492,7.4941,7.5006,7.5142,7.5278,7.5142,7.5278,7.5954,7.6355,7.662,7.6915,7.7016,7.6739,7.5487,7.3525,7.2129,7.2008,7.1658,7.0426,7.0031,6.8794,6.7342,6.6347,6.6037,6.5901,8.1196,8.0721,7.9724,7.7925,7.607,7.5931,7.5351,7.4298,7.4472,7.4724,7.5134,7.5918,7.6232,7.6143,7.6266,7.6216,7.6122,7.5805,7.5994,7.6427,7.5891,7.5583,7.5512,7.5242,7.4422,7.3158,7.2977,7.2123,7.06,6.8893,6.8142,6.8388,6.8435,6.893,6.9763,6.9519,6.9819,7.0583,6.9681,6.9026,6.8657,6.8445,6.7811,6.6986,6.6472,6.6007,6.5331,6.5215,6.4996,6.4481,6.4017,6.3577,6.3392,6.2969,6.2967,6.3351,6.4266,6.4918,6.5363,6.4474,6.403,6.4353,6.3319,6.3072,6.4214,6.4349,6.5177,6.7463,6.9604,7.0743,7.0711,7.0553,7.0262,6.9743,6.9153,6.8685,6.822,6.7699,6.74,6.7317,6.7157,6.6819,6.6847,6.8337,7.0063,7.141,7.2425,7.3009,7.3527,7.4273,7.4409,7.4357,7.4318,7.4594,7.5006,7.5006,7.5142,7.555,7.5685,7.5954,7.6396,7.6853,7.6669,7.5368,7.4172,7.286,7.2098,7.1642,7.0711,6.9728,6.8188,6.6706,6.5447,6.5586,6.5614,8.0958,8.0536,7.9121,7.7376,7.5667,7.5543,7.4893,7.38,7.4038,7.4157,7.4506,7.5093,7.5654,7.6088,7.6122,7.6122,7.6122,7.5899,7.6088,7.6485,7.6072,7.5759,7.5596,7.5078,7.4298,7.3288,7.2956,7.2011,7.0332,6.852,6.8178,6.9171,6.892,6.9265,7.0282,7.0282,7.0398,7.07,6.993,6.9319,6.9083,6.8654,6.8021,6.7313,6.6751,6.6345,6.6107,6.5969,6.5888,6.5863,6.5351,6.502,6.4887,6.4093,6.3767,6.4105,6.4988,6.5609,6.6064,6.4927,6.4434,6.4811,6.3846,6.3786,6.4785,6.4336,6.5094,6.7807,6.9329,7.0078,7.0501,6.991,6.9401,6.9022,6.8238,6.7737,6.7451,6.7142,6.6927,6.6651,6.6696,6.6712,6.6567,6.8336,7.0324,7.1184,7.1942,7.2797,7.353,7.3966,7.4223,7.4003,7.4048,7.4179,7.4594,7.4456,7.4731,7.5006,7.5142,7.5384,7.5698,7.6324,7.662,7.5529,7.5382,7.4616,7.2775,7.185,7.0467,6.8907,6.752,6.6429,6.5554,6.5444,6.5307,7.96,7.8874,7.7055,7.6583,7.6688,7.4785,7.383,7.3701,7.2474,7.2625,7.3889,7.3797,7.4296,7.5354,7.5805,7.6122,7.6122,7.6028,7.6309,7.6702,7.6341,7.5933,7.5512,7.4796,7.4128,7.355,7.3137,7.2031,7.0336,6.8755,6.8256,6.907,6.862,6.9027,7.0221,6.9915,6.9936,7.0669,7.0161,6.9839,7.0055,6.9458,6.8422,6.689,6.6617,6.6554,6.6523,6.6491,6.6488,6.63,6.6609,6.6712,6.645,6.6222,6.5804,6.5545,6.5544,6.5443,6.5172,6.4704,6.4429,6.4214,6.3947,6.4087,6.4869,6.4473,6.5268,6.772,6.8199,6.8772,6.9441,6.9116,6.8719,6.8393,6.7961,6.7451,6.6757,6.6986,6.7041,6.6519,6.6524,6.6899,6.7325,6.8639,6.9988,7.1025,7.201,7.2951,7.3637,7.4108,7.4257,7.405,7.398,7.393,7.404,7.404,7.3901,7.4179,7.4594,7.5006,7.5278,7.5519,7.5654,7.5368,7.4194,7.3456,7.2915,7.1597,6.9678,6.8104,6.6789,6.5789,6.5694,6.5423,6.5325,7.9721,7.8758,7.7637,7.6616,7.5923,7.5227,7.4771,7.4406,7.3562,7.371,7.4242,7.404,7.4303,7.4843,7.5411,7.5884,7.629,7.6171,7.6548,7.7159,7.6458,7.6088,7.6036,7.5102,7.4322,7.384,7.3011,7.206,7.0985,6.9635,6.9782,7.085,7.03,7.0492,7.1077,7.0557,7.0336,7.07,7.0161,6.9714,6.9741,6.9427,6.8704,6.7465,6.6932,6.6601,6.6617,6.6586,6.6669,6.7036,6.6924,6.6969,6.6874,6.6323,6.5996,6.5984,6.5746,6.5733,6.6012,6.4863,6.4488,6.5266,6.4408,6.4493,6.5535,6.5541,6.5875,6.7329,6.7877,6.8059,6.7608,6.7607,6.7668,6.7559,6.6764,6.6185,6.6202,6.6279,6.6194,6.5842,6.602,6.6631,6.7762,6.887,6.9879,7.038,7.1614,7.2406,7.3065,7.3484,7.3695,7.3641,7.3528,7.3386,7.3057,7.348,7.3761,7.3761,7.3901,7.4209,7.4486,7.4683,7.4821,7.4594,7.3428,7.2555,7.2158,7.045,6.8602,6.7639,6.6433,6.586,6.5672,6.5775,6.5518,7.9236,7.8421,7.7356,7.6506,7.5773,7.5101,7.4739,7.4466,7.3816,7.3838,7.4208,7.3979,7.4208,7.4748,7.5359,7.5931,7.6466,7.6272,7.6675,7.7388,7.6789,7.6468,7.6157,7.52,7.449,7.3838,7.2948,7.2086,7.1505,7.0486,7.0884,7.2361,7.153,7.1474,7.1752,7.1261,7.0921,7.0956,7.0575,7.0046,6.9714,6.962,6.9151,6.8084,6.7523,6.7183,6.7067,6.7143,6.7356,6.7819,6.7555,6.7475,6.7512,6.7024,6.6625,6.6497,6.628,6.6185,6.6381,6.5173,6.4727,6.577,6.5201,6.5106,6.6222,6.6221,6.6702,6.7336,6.7457,6.7151,6.6589,6.6221,6.6197,6.6491,6.5488,6.5,6.5522,6.5601,6.5802,6.6083,6.6075,6.6756,6.7684,6.8814,6.9534,6.9989,7.1283,7.2134,7.2664,7.2829,7.2906,7.2914,7.2979,7.3055,7.2921,7.3125,7.3787,7.3787,7.3721,7.3774,7.3886,7.4056,7.3967,7.3569,7.3028,7.2171,7.0962,6.9244,6.8161,6.7368,6.6645,6.6015,6.6083,6.6093,6.6018,7.8046,7.7499,7.6135,7.6004,7.6166,7.4606,7.3803,7.3826,7.2774,7.301,7.3788,7.3447,7.3821,7.4963,7.5766,7.6402,7.653,7.6564,7.685,7.7409,7.7505,7.7144,7.6434,7.5126,7.4232,7.3727,7.2832,7.2306,7.1952,7.1435,7.1591,7.2238,7.1996,7.1783,7.1967,7.1875,7.1689,7.1433,7.1335,7.1055,7.0472,7.0435,6.9759,6.8643,6.8458,6.8457,6.8296,6.8171,6.8373,6.8882,6.8691,6.8508,6.8412,6.8284,6.8033,6.73,6.7148,6.6698,6.5934,6.5473,6.5025,6.5494,6.5652,6.5802,6.6101,6.655,6.6971,6.7275,6.6876,6.6339,6.6236,6.526,6.4728,6.5383,6.4497,6.4021,6.469,6.5248,6.5931,6.6591,6.6472,6.6684,6.7673,6.8543,6.9187,7.0063,7.1107,7.2,7.2461,7.2606,7.2371,7.2287,7.2592,7.2868,7.2922,7.2907,7.3436,7.3906,7.3878,7.3875,7.3816,7.393,7.3466,7.3178,7.2547,7.1709,6.9867,6.8353,6.7648,6.6912,6.6548,6.6366,6.6591,6.6604,6.672,7.7363,7.7148,7.6177,7.5818,7.5871,7.5102,7.4623,7.4343,7.377,7.3508,7.3352,7.3361,7.3763,7.4459,7.5164,7.5998,7.6729,7.6911,7.7426,7.8108,7.795,7.7571,7.6778,7.5531,7.4275,7.3384,7.3378,7.3043,7.2452,7.2113,7.2299,7.2642,7.2643,7.2398,7.2243,7.2303,7.2114,7.1764,7.179,7.1516,7.1092,7.1092,7.0725,7.0266,7.059,7.0598,6.9995,6.9067,6.8703,6.9136,6.9095,6.9106,6.8829,6.8203,6.7926,6.77,6.6402,6.5849,6.6024,6.5152,6.4811,6.5203,6.5407,6.5611,6.5996,6.6357,6.6723,6.6969,6.6103,6.5251,6.4525,6.3923,6.4071,6.5081,6.3939,6.3407,6.4157,6.4433,6.482,6.566,6.5766,6.6424,6.7665,6.8427,6.8779,6.9607,7.074,7.1666,7.2064,7.234,7.2553,7.2461,7.2774,7.2805,7.2845,7.2924,7.334,7.3685,7.3641,7.3705,7.3647,7.3676,7.3183,7.2547,7.1907,7.0825,6.9013,6.7919,6.733,6.689,6.6578,6.6708,6.6966,6.7195,6.7395,7.6668,7.6646,7.589,7.5558,7.5673,7.5335,7.4921,7.4472,7.4119,7.3658,7.3328,7.3305,7.3769,7.456,7.5231,7.6032,7.6927,7.7692,7.8298,7.8667,7.834,7.7809,7.7168,7.5746,7.4109,7.2938,7.3571,7.3504,7.2483,7.2608,7.2859,7.2983,7.2983,7.2922,7.2858,7.2827,7.2701,7.248,7.248,7.2204,7.1746,7.1684,7.1409,7.1072,7.1402,7.1541,7.1128,7.0482,7.0078,6.9854,6.9753,6.9594,6.9346,6.878,6.8359,6.7821,6.6807,6.6002,6.6038,6.5054,6.4723,6.5276,6.5235,6.5382,6.5794,6.5978,6.6257,6.6132,6.5319,6.4411,6.3497,6.3054,6.3306,6.4007,6.3064,6.2898,6.3619,6.3829,6.4142,6.4845,6.5238,6.6107,6.6847,6.8405,6.8652,6.935,7.046,7.1383,7.1755,7.2002,7.2085,7.2271,7.232,7.2387,7.2634,7.2945,7.3184,7.332,7.3328,7.3432,7.3379,7.3403,7.3141,7.1977,7.1184,6.9754,6.8045,6.7874,6.7309,6.7051,6.6924,6.7688,6.832,6.8449,6.8624,7.5894,7.5973,7.5201,7.53,7.5739,7.5203,7.4728,7.422,7.3736,7.3473,7.344,7.3575,7.4072,7.5002,7.5936,7.6702,7.7198,7.8511,7.9056,7.8957,7.8585,7.7949,7.7004,7.5732,7.4249,7.2953,7.3693,7.3565,7.2918,7.3045,7.2983,7.3107,7.2983,7.3107,7.3293,7.3478,7.354,7.3478,7.3478,7.3045,7.2275,7.2029,7.1783,7.1167,7.156,7.1738,7.1908,7.2064,7.199,7.1091,7.0505,7.0157,6.9841,6.9667,6.8889,6.8042,6.758,6.6731,6.6064,6.5217,6.4905,6.5241,6.5232,6.5475,6.5348,6.5504,6.5592,6.517,6.4727,6.4065,6.3167,6.2709,6.257,6.2455,6.2254,6.2404,6.3384,6.3804,6.409,6.442,6.4946,6.5449,6.5843,6.7825,6.9047,6.9448,7.0392,7.1227,7.1526,7.166,7.1496,7.1523,7.1953,7.2002,7.2072,7.2415,7.2812,7.293,7.2958,7.3198,7.31,7.3065,7.267,7.1378,7.038,6.876,6.7801,6.776,6.7635,6.7507,6.7985,6.8862,6.9232,6.9227,6.9119,7.5307,7.5135,7.5294,7.5339,7.527,7.5002,7.4402,7.3736,7.3608,7.3408,7.3343,7.4103,7.4605,7.5136,7.6441,7.7311,7.7844,7.8587,7.9027,7.9157,7.9069,7.774,7.6297,7.5387,7.4841,7.45,7.4809,7.4873,7.4346,7.3695,7.3448,7.3386,7.3169,7.3138,7.354,7.4005,7.4222,7.4253,7.4253,7.4066,7.3539,7.2952,7.2645,7.2491,7.2798,7.2672,7.2297,7.2158,7.2369,7.2566,7.1497,7.1005,7.0683,6.9444,6.8559,6.8397,6.6816,6.5802,6.5793,6.4868,6.4328,6.441,6.4711,6.4612,6.4483,6.474,6.49,6.4753,6.434,6.3632,6.3014,6.2795,6.2605,6.2313,6.214,6.24,6.3078,6.3361,6.3745,6.4816,6.5361,6.5522,6.6238,6.7562,6.9212,6.9344,6.9989,7.1012,7.1257,7.1474,7.1472,7.1526,7.1581,7.1472,7.1711,7.2057,7.2244,7.2561,7.2774,7.2945,7.2801,7.249,7.1826,7.0809,7.0027,6.8659,6.814,6.7853,6.7854,6.78,6.8653,6.964,6.9502,6.9313,6.9182,7.4658,7.4576,7.4867,7.4939,7.4771,7.4605,7.3974,7.3243,7.3368,7.3335,7.3307,7.4397,7.5101,7.5372,7.6743,7.7682,7.8085,7.8825,7.912,7.9049,7.85,7.739,7.6268,7.5867,7.5651,7.5461,7.5771,7.565,7.5091,7.4501,7.4221,7.419,7.3662,7.3664,7.4221,7.4501,7.4656,7.4563,7.4874,7.4935,7.4368,7.4061,7.3876,7.3753,7.3849,7.3448,7.3011,7.2849,7.277,7.2558,7.197,7.1549,7.1222,6.9865,6.8872,6.8725,6.6883,6.5818,6.5506,6.4755,6.4265,6.4196,6.444,6.4354,6.4095,6.4224,6.4222,6.3952,6.3566,6.3142,6.2884,6.2965,6.2993,6.2585,6.2613,6.2741,6.3076,6.3299,6.4054,6.492,6.5577,6.6021,6.6476,6.7721,6.8145,6.865,6.9745,7.0286,7.0852,7.1123,7.1474,7.1474,7.1474,7.1392,7.1499,7.1687,7.1847,7.2007,7.2216,7.259,7.2328,7.2008,7.118,7.0317,6.9628,6.8889,6.8439,6.8066,6.8198,6.8572,6.9455,6.9804,6.9776,6.9534,6.9374,7.4171,7.4307,7.4166,7.4206,7.4406,7.4105,7.3572,7.2871,7.3126,7.3094,7.3237,7.443,7.5267,7.5705,7.6977,7.785,7.8216,7.9053,7.9322,7.8808,7.7928,7.7105,7.7204,7.6776,7.6397,7.6115,7.6457,7.6208,7.59,7.5366,7.5304,7.5213,7.4528,7.45,7.5029,7.5246,7.4967,7.5091,7.5651,7.5616,7.5173,7.4892,7.4738,7.4645,7.4153,7.3787,7.3663,7.3627,7.3223,7.207,7.1946,7.1764,7.1375,7.0709,6.961,6.8451,6.7195,6.6147,6.5504,6.4752,6.4382,6.4324,6.431,6.4224,6.3965,6.392,6.3697,6.3152,6.2835,6.3054,6.3081,6.3461,6.3437,6.313,6.3282,6.3222,6.3294,6.3491,6.3958,6.5183,6.5369,6.6396,6.7323,6.772,6.7214,6.8786,6.9802,7.0662,7.0933,7.1068,7.1231,7.1312,7.1285,7.1285,7.1447,7.1608,7.1447,7.1447,7.1741,7.1947,7.1804,7.1474,7.076,7.0043,6.9616,6.8919,6.8143,6.8113,6.8566,6.8778,6.9422,6.9688,7.0011,6.9745,6.9638,7.4065,7.41,7.4138,7.4105,7.4105,7.3698,7.322,7.2914,7.294,7.3116,7.3422,7.4455,7.5161,7.5805,7.714,7.784,7.8103,7.8809,7.9117,7.8936,7.8136,7.7997,7.7842,7.7274,7.6988,7.724,7.7276,7.7183,7.6838,7.6244,7.5775,7.5901,7.5588,7.5401,7.5808,7.6182,7.643,7.6208,7.6333,7.6139,7.579,7.5323,7.5076,7.4953,7.4368,7.3817,7.3262,7.3231,7.3077,7.2737,7.2396,7.2086,7.1567,7.0098,6.8997,6.8106,6.6819,6.5651,6.5076,6.4554,6.4095,6.4095,6.3863,6.3545,6.3601,6.3763,6.3516,6.317,6.3386,6.3558,6.3808,6.3785,6.37,6.3648,6.3539,6.3319,6.3355,6.3397,6.3839,6.476,6.5479,6.614,6.7599,6.8572,6.8599,6.9107,6.9804,7.0987,7.1068,7.0853,7.0988,7.0934,7.0906,7.0743,7.0906,7.1176,7.1175,7.1338,7.1447,7.1447,7.1474,7.1284,7.061,7.0148,6.9709,6.9116,6.8497,6.8741,6.9439,6.9327,6.9267,6.9783,7.0107,6.9836,6.9783,7.434,7.4138,7.4037,7.3833,7.3595,7.3214,7.2794,7.2721,7.2827,7.3338,7.4149,7.512,7.5823,7.6565,7.7732,7.8431,7.8527,7.8906,7.9224,7.9016,7.8624,7.8345,7.828,7.787,7.787,7.8247,7.8124,7.803,7.7779,7.7433,7.7056,7.7183,7.6524,7.6463,7.6588,7.6963,7.6804,7.6546,7.6825,7.6851,7.6629,7.6154,7.5476,7.5107,7.4615,7.4156,7.3355,7.3107,7.3107,7.3015,7.2737,7.2398,7.1996,7.0482,6.9243,6.8474,6.7471,6.6096,6.546,6.4871,6.454,6.3965,6.3834,6.3545,6.3423,6.3448,6.3357,6.3004,6.3297,6.3758,6.4319,6.4735,6.4613,6.4114,6.3977,6.3812,6.3534,6.3311,6.3589,6.4551,6.5375,6.6555,6.7651,6.8698,6.8728,6.8622,6.9159,7.0314,7.0126,6.9963,7.0394,7.0555,7.0304,7.0411,7.0358,7.0736,7.097,7.119,7.1547,7.1462,7.127,7.097,7.0724,7.0338,6.9899,6.9889,6.9538,6.9784,7.0004,7.0152,7.0231,7.0162,7.0083,7.0268,6.9942,7.4563,7.4067,7.383,7.3454,7.311,7.2688,7.2508,7.2615,7.2827,7.3711,7.4818,7.5823,7.639,7.749,7.8325,7.8866,7.9182,7.9147,7.9316,7.9221,7.8942,7.8628,7.8564,7.8533,7.8628,7.8691,7.8817,7.8848,7.8721,7.8466,7.8341,7.8437,7.7746,7.7559,7.7811,7.7716,7.762,7.7361,7.7703,7.7667,7.7605,7.7253,7.6536,7.5702,7.5297,7.4745,7.3943,7.3478,7.3262,7.3386,7.2859,7.2483,7.2073,7.1126,7.004,6.9257,6.8151,6.6898,6.5737,6.5304,6.4986,6.4193,6.4034,6.3875,6.3593,6.3594,6.3334,6.3279,6.3367,6.4277,6.509,6.5421,6.5162,6.4657,6.4601,6.4544,6.3899,6.3463,6.4158,6.4868,6.5606,6.6434,6.7689,6.882,6.8451,6.8214,6.8941,6.9452,6.9316,6.9206,6.9851,7.0038,6.9756,6.967,6.9809,7.0273,7.0558,7.0699,7.1141,7.091,7.0756,7.0638,7.0481,7.0414,7.0219,7.018,7.0206,7.0219,7.0455,7.086,7.0938,7.0822,7.0743,7.0598,7.0285,7.422,7.4275,7.316,7.2721,7.2582,7.2294,7.2294,7.2615,7.3037,7.3952,7.5161,7.5463,7.6565,7.7628,7.7998,7.8691,7.9244,7.946,7.9303,7.9382,7.9227,7.9069,7.9321,7.9258,7.9195,7.9509,7.9795,7.9762,7.9509,7.9412,7.9443,7.9286,7.8784,7.8817,7.9321,7.9606,7.9257,7.8842,7.903,7.8807,7.8366,7.8019,7.7455,7.6584,7.6205,7.5523,7.4469,7.4003,7.3568,7.3076,7.2734,7.2357,7.2013,7.0855,6.9913,6.9216,6.8341,6.7232,6.6157,6.5665,6.5218,6.48,6.4553,6.4283,6.4243,6.4187,6.3778,6.3788,6.4462,6.5458,6.5735,6.6073,6.5634,6.5157,6.5123,6.5246,6.4811,6.493,6.5262,6.6037,6.6243,6.6475,6.7811,6.8612,6.8429,6.8411,6.8872,6.9413,6.9545,6.9492,6.9518,6.9459,6.918,6.904,6.904,6.9723,7.0233,7.0102,7.0166,6.9876,6.9963,7.0004,7.0004,6.9971,7.0187,7.0412,7.0557,7.0505,7.086,7.1278,7.1435,7.1565,7.1304,7.1043,7.0807,7.4473,7.4049,7.3013,7.2369,7.2262,7.2154,7.2262,7.2827,7.3678,7.479,7.5967,7.6671,7.7603,7.8664,7.8908,7.9299,7.9731,8.0085,8.0105,8.0143,7.9953,8.0143,8.0364,8.0048,8.0174,8.0523,8.1094,8.084,7.9983,8.0266,8.0392,8.0361,8.0046,8.0237,8.0585,8.0617,8.0521,8.0232,8.0071,7.9946,7.928,7.903,7.831,7.7274,7.6804,7.6024,7.5029,7.447,7.3911,7.3386,7.2734,7.2483,7.1982,7.1322,7.041,6.9702,6.9044,6.7903,6.6752,6.636,6.6012,6.4842,6.4724,6.4586,6.4604,6.452,6.4355,6.4409,6.522,6.6433,6.6864,6.6623,6.6002,6.5501,6.56,6.5699,6.553,6.5806,6.6521,6.697,6.6563,6.6899,6.8175,6.8628,6.8487,6.8654,6.8821,6.9119,6.9443,6.9416,6.9119,6.9433,6.9344,6.9265,6.9176,6.9384,6.9657,6.9549,6.9496,6.9199,6.9254,6.951,6.9536,6.9663,6.994,7.0513,7.1018,7.1244,7.147,7.1644,7.1801,7.1879,7.1696,7.1461,7.1252,7.4648,7.3955,7.2994,7.2391,7.2014,7.2122,7.2647,7.3404,7.4521,7.5798,7.7242,7.808,7.905,7.9902,8.0157,8.0346,8.0771,8.1202,8.1313,8.1157,8.0871,8.0966,8.1316,8.0999,8.0871,8.1348,8.2143,8.1983,8.0996,8.1154,8.1344,8.1312,8.1312,8.1312,8.1473,8.1473,8.1344,8.1183,8.1054,8.0991,8.055,7.9951,7.9037,7.7748,7.7433,7.6933,7.5839,7.5123,7.4563,7.3788,7.3106,7.2578,7.2452,7.1819,7.1277,7.0629,7.0265,6.906,6.7962,6.732,6.6883,6.5592,6.5388,6.5354,6.5277,6.525,6.5264,6.5336,6.6548,6.7489,6.7675,6.7276,6.6498,6.5976,6.6027,6.6338,6.625,6.6503,6.7316,6.7229,6.6718,6.7323,6.8628,6.868,6.8513,6.8345,6.8513,6.8397,6.8747,6.8591,6.8669,6.9305,6.9631,6.9697,6.9461,6.9283,6.9213,6.8773,6.9029,6.908,6.913,6.9049,6.915,6.9355,7.0095,7.0729,7.134,7.1946,7.1913,7.2036,7.2219,7.2193,7.1984,7.1931,7.1827,7.4471,7.4121,7.3379,7.2594,7.2154,7.255,7.3436,7.462,7.53,7.6641,7.8387,7.9023,7.9723,8.0501,8.1308,8.1532,8.1755,8.2064,8.2296,8.2205,8.1598,8.1723,8.2325,8.1435,8.1694,8.2206,8.2876,8.2716,8.214,8.2396,8.233,8.2137,8.1789,8.1599,8.2428,8.2459,8.2684,8.278,8.2556,8.1888,8.0872,8.0423,7.9885,7.9318,7.8911,7.825,7.7088,7.6307,7.534,7.447,7.3757,7.3138,7.2608,7.2104,7.1722,7.1307,7.0699,6.9808,6.8736,6.84,6.7845,6.6941,6.6793,6.6557,6.6389,6.6594,6.6918,6.7501,6.8915,6.9065,6.8351,6.7919,6.7121,6.6738,6.6662,6.6869,6.6913,6.7462,6.8089,6.7967,6.7556,6.8034,6.8941,6.8784,6.8513,6.8371,6.8229,6.7995,6.8227,6.8562,6.8802,6.9489,6.9945,7.0041,6.9687,6.9501,6.8699,6.8221,6.8369,6.8669,6.8335,6.8254,6.8602,6.9014,6.9941,7.0656,7.1037,7.1391,7.2122,7.2297,7.2297,7.2297,7.2271,7.2271,7.2245,7.4637,7.4107,7.2761,7.2228,7.2401,7.2867,7.3815,7.5128,7.6138,7.7547,7.8956,7.9794,8.0615,8.1525,8.2425,8.2854,8.289,8.3153,8.3414,8.3258,8.2935,8.2903,8.3352,8.2967,8.2967,8.3322,8.3738,8.3963,8.3546,8.3417,8.3417,8.3094,8.2742,8.2872,8.3353,8.3546,8.3675,8.3675,8.3611,8.3036,8.2365,8.179,8.1403,8.0452,8.0264,7.9411,7.8276,7.7085,7.6055,7.512,7.4096,7.3386,7.3107,7.2578,7.2073,7.1564,7.1435,7.059,6.9376,6.9057,6.8442,6.7757,6.7522,6.7458,6.7212,6.766,6.881,7.0549,7.095,7.0433,6.9109,6.8525,6.8017,6.7608,6.7349,6.764,6.7898,6.8556,6.8891,6.8716,6.8539,6.8747,6.9033,6.9293,6.9267,6.8954,6.8835,6.8768,6.9051,6.9636,6.9901,7.0014,7.0219,7.027,6.9863,6.946,6.8524,6.7918,6.7503,6.7726,6.7472,6.7464,6.7809,6.8247,6.8794,6.9586,7.0375,7.1214,7.177,7.1946,7.2122,7.2096,7.2096,7.2271,7.2245,7.4012,7.3627,7.2728,7.2509,7.2721,7.3482,7.4526,7.5801,7.7278,7.8484,7.948,8.0401,8.1525,8.2544,8.3248,8.3739,8.3793,8.4019,8.428,8.4408,8.4374,8.4245,8.4435,8.4305,8.4241,8.4667,8.4887,8.4825,8.4603,8.4475,8.4315,8.3895,8.3736,8.3929,8.4122,8.4219,8.4315,8.4315,8.4219,8.3737,8.3127,8.2806,8.2036,8.1271,8.0854,8.0224,7.8867,7.786,7.6951,7.5923,7.4654,7.388,7.354,7.2828,7.2326,7.1977,7.188,7.1315,7.041,6.9814,6.9257,6.8517,6.7957,6.8125,6.84,6.8624,6.9418,7.1654,7.2481,7.1614,7.0297,6.945,6.877,6.8341,6.8167,6.836,6.8675,6.8989,6.9083,6.8769,6.8617,6.8422,6.8784,6.9746,6.9928,6.973,6.9437,6.929,6.9444,6.9824,6.968,6.9409,6.9612,6.9613,6.9816,6.9155,6.8246,6.7466,6.7076,6.6709,6.6431,6.6626,6.7151,6.7645,6.7986,6.8698,6.9613,7.0603,7.1594,7.177,7.1744,7.1894,7.2044,7.207,7.2271,7.1887,7.2429,7.3753,7.375,7.3037,7.4764,7.5903,7.6804,7.8654,7.9589,8.0053,8.111,8.2181,8.3028,8.3723,8.4167,8.4264,8.4911,8.517,8.529,8.5057,8.5089,8.5343,8.5368,8.5172,8.5577,8.5675,8.5425,8.53,8.5174,8.4795,8.4411,8.4283,8.4411,8.454,8.4667,8.4795,8.4825,8.4628,8.4015,8.3213,8.2723,8.1948,8.106,8.0585,8.0181,7.9471,7.8645,7.7824,7.673,7.5365,7.4435,7.3908,7.3107,7.2578,7.2357,7.2165,7.1819,7.1255,7.0779,7.0509,7.0002,6.9399,6.9043,6.9648,6.8909,6.9732,7.165,7.2783,7.2889,7.1757,7.0866,6.9851,6.9206,6.9119,6.9077,6.9133,6.8994,6.9063,6.8883,6.8669,6.8565,6.8665,6.9403,6.9636,6.9411,6.9231,6.8912,6.8366,6.8544,6.8321,6.8197,6.8448,6.8801,6.938,6.8594,6.7642,6.6639,6.6182,6.5714,6.5475,6.5947,6.6529,6.7101,6.7463,6.8246,6.8852,6.9612,7.0247,7.1086,7.1568,7.1542,7.1666,7.1842,7.207,7.2267,7.2588,7.332,7.3383,7.3037,7.4695,7.61,7.7262,7.8503,7.9471,8.0358,8.1845,8.278,8.3277,8.4381,8.4879,8.4879,8.5106,8.5393,8.529,8.5089,8.5213,8.5556,8.5645,8.5449,8.6005,8.6046,8.5923,8.5675,8.5675,8.555,8.5174,8.4795,8.4667,8.4795,8.5048,8.53,8.5485,8.5166,8.4685,8.4706,8.3901,8.3188,8.2296,8.1802,8.1206,8.0207,7.9028,7.8091,7.7157,7.5788,7.4859,7.4272,7.3478,7.2952,7.2828,7.267,7.2418,7.2007,7.1594,7.1009,7.077,7.025,7.0303,7.0675,7.0335,7.0757,7.2091,7.3235,7.3423,7.2231,7.1644,7.1252,7.0539,7.0099,6.9981,6.9856,6.9749,6.9528,6.9433,6.9119,6.8799,6.898,6.918,6.9136,6.9213,6.886,6.8534,6.8014,6.7542,6.7718,6.7719,6.7995,6.8346,6.8924,6.8018,6.6916,6.6116,6.5366,6.5257,6.4966,6.5315,6.582,6.6434,6.7242,6.7818,6.8245,6.8348,6.9106,7.0449,7.106,7.1011,7.1137,7.1413,7.1666,7.204,7.2158,7.2568,7.3059,7.3502,7.4818,7.6181,7.7429,7.8452,7.9425,8.0613,8.2135,8.2885,8.3428,8.4463,8.5235,8.5203,8.5268,8.5393,8.5355,8.5408,8.5498,8.5842,8.6052,8.6228,8.6469,8.6413,8.6291,8.6169,8.6046,8.5923,8.5799,8.555,8.53,8.53,8.555,8.5799,8.5923,8.589,8.5284,8.527,8.4561,8.3593,8.2604,8.2075,8.1511,8.0505,7.9515,7.8656,7.7572,7.6363,7.5245,7.4545,7.4089,7.3447,7.3231,7.3045,7.2982,7.2697,7.2122,7.1588,7.1242,7.1196,7.1188,7.128,7.1424,7.165,7.2368,7.3426,7.3747,7.2567,7.2399,7.212,7.1351,7.1006,7.1022,7.0819,7.0664,7.0394,7.0171,6.9617,6.903,6.9007,6.9016,6.9213,6.9091,6.8616,6.8264,6.779,6.7492,6.7592,6.7593,6.7794,6.8221,6.8572,6.7392,6.6367,6.5918,6.5246,6.5144,6.4988,6.5135,6.5538,6.6142,6.6938,6.7527,6.8074,6.8483,6.925,7.0244,7.0526,7.063,7.0577,7.0677,7.1262,7.0595,7.0838,7.1753,7.2897,7.4293,7.5437,7.6556,7.7708,7.9004,7.9885,8.0569,8.1715,8.2514,8.296,8.4338,8.5013,8.5425,8.5393,8.5518,8.5734,8.5874,8.6282,8.6557,8.6732,8.6687,8.7071,8.7017,8.6777,8.6656,8.6535,8.6413,8.6291,8.6291,8.6136,8.6291,8.6291,8.6169,8.5923,8.6169,8.5449,8.4664,8.4184,8.328,8.2346,8.1739,8.136,8.095,7.9785,7.8957,7.8292,7.6783,7.576,7.5229,7.4419,7.3936,7.3601,7.354,7.3445,7.3369,7.2789,7.2397,7.1863,7.175,7.1818,7.1735,7.1683,7.1912,7.2574,7.3776,7.4049,7.3613,7.2991,7.2677,7.2497,7.2312,7.2009,7.1783,7.1336,7.1042,7.0635,6.9651,6.8899,6.8967,6.902,6.9429,6.9168,6.8369,6.7967,6.749,6.7389,6.7389,6.7464,6.7441,6.7392,6.7467,6.6789,6.604,6.5446,6.5149,6.5123,6.5123,6.5021,6.5521,6.6115,6.7,6.7758,6.8216,6.8553,6.9308,7.0017,7.0197,7.0197,7.0095,6.9942,7.0652,7.0501,7.1282,7.1612,7.2972,7.4766,7.5382,7.6453,7.7853,7.9022,7.9854,8.0277,8.1115,8.2128,8.3079,8.416,8.5063,8.5792,8.5923,8.6046,8.6103,8.602,8.6327,8.6666,8.6839,8.6858,8.7157,8.7289,8.717,8.681,8.6843,8.6777,8.6777,8.7149,8.7017,8.6656,8.6535,8.6413,8.6656,8.6436,8.5921,8.5122,8.4564,8.3605,8.2472,8.193,8.1617,8.1519,8.0139,7.9309,7.8888,7.7382,7.6231,7.5794,7.4992,7.4571,7.4241,7.4001,7.3599,7.3791,7.3658,7.352,7.2886,7.2467,7.2424,7.2227,7.2314,7.2518,7.2807,7.3413,7.3666,7.3735,7.3842,7.3795,7.3886,7.3648,7.3125,7.2794,7.214,7.1635,7.1312,7.0662,7.0134,7.0066,6.9213,6.9253,6.8948,6.8253,6.7705,6.7399,6.7152,6.7101,6.7101,6.7005,6.6686,6.6388,6.6212,6.5965,6.5619,6.5323,6.5397,6.5198,6.5298,6.5867,6.6631,6.7409,6.8177,6.8475,6.8669,6.8994,6.9435,6.9739,6.9637,6.9384,6.941,6.9738,7.1073,7.1996,7.2215,7.3327,7.5017,7.5158,7.6164,7.8042,7.9259,7.9846,8.0251,8.095,8.1833,8.2904,8.3886,8.4618,8.5538,8.5832,8.5898,8.5898,8.6163,8.6447,8.6633,8.674,8.7109,8.7308,8.7493,8.7375,8.717,8.764,8.7819,8.8018,8.8077,8.7958,8.762,8.7249,8.6984,8.7157,8.672,8.6073,8.5432,8.4654,8.3695,8.2888,8.2345,8.1967,8.1639,8.0754,7.9592,7.9119,7.8305,7.7068,7.6624,7.5964,7.5546,7.5037,7.4654,7.4122,7.4058,7.4764,7.445,7.3694,7.3345,7.3323,7.318,7.2778,7.3096,7.3299,7.3241,7.3848,7.4414,7.4579,7.483,7.4772,7.4646,7.4127,7.3689,7.2885,7.2596,7.2089,7.1528,7.1255,7.0618,6.9715,6.8993,6.8488,6.8098,6.7748,6.7451,6.7307,6.7137,6.7137,6.7163,6.6923,6.6606,6.6187,6.5965,6.5619,6.5644,6.5867,6.604,6.6334,6.6752,6.7145,6.7748,6.8255,6.8462,6.869,6.8871,6.8979,6.9155,6.913,6.8801,6.8928,6.9207,7.2221,7.281,7.3392,7.4247,7.5082,7.5266,7.6491,7.8453,7.954,8.0059,8.0277,8.1253,8.1941,8.2377,8.3203,8.3955,8.4609,8.5134,8.5363,8.5746,8.6349,8.6645,8.6897,8.7104,8.7275,8.746,8.7611,8.7644,8.7795,8.8295,8.8961,8.9227,8.9115,8.8797,8.8413,8.7995,8.7728,8.7445,8.6862,8.6147,8.5533,8.4358,8.3581,8.2791,8.2346,8.2313,8.2017,8.1263,8.0967,8.0525,7.9642,7.9036,7.828,7.7275,7.6578,7.6009,7.5589,7.505,7.4546,7.5308,7.525,7.4698,7.4651,7.4574,7.4227,7.3501,7.3647,7.4023,7.4401,7.4837,7.524,7.5467,7.5571,7.5563,7.5316,7.4857,7.4268,7.3829,7.3359,7.2885,7.1957,7.1312,7.0358,6.9538,6.8873,6.8716,6.8409,6.8074,6.7828,6.7646,6.7477,6.7477,6.7477,6.7307,6.6967,6.6797,6.6455,6.6283,6.6455,6.6676,6.6992,6.7188,6.7697,6.8061,6.8203,6.8449,6.8553,6.8706,6.8616,6.86,6.8624,6.8473,6.8272,6.8751,6.9131,7.2778,7.3392,7.4496,7.5578,7.6646,7.7982,7.8713,7.8869,7.9419,8.003,8.0786,8.1339,8.2085,8.3048,8.3395,8.3991,8.4786,8.5498,8.5828,8.6158,8.6641,8.7005,8.7137,8.7256,8.7375,8.7493,8.7728,8.7846,8.8012,8.8697,8.8848,8.8647,8.9499,8.9264,8.8895,8.8525,8.8194,8.7878,8.7228,8.6411,8.5678,8.4603,8.3759,8.3148,8.2656,8.2656,8.2572,8.1835,8.1425,8.1081,8.0035,7.9249,7.8739,7.8002,7.7284,7.6518,7.6276,7.6108,7.5387,7.5775,7.5896,7.5584,7.5507,7.5188,7.4664,7.4343,7.4198,7.475,7.5449,7.5827,7.5798,7.5853,7.6051,7.6075,7.5924,7.544,7.501,7.4606,7.4141,7.3359,7.2596,7.1608,7.0635,6.9485,6.9128,6.8865,6.876,6.8507,6.8419,6.8241,6.8151,6.7983,6.7983,6.7983,6.7815,6.7502,6.7307,6.7137,6.7307,6.7528,6.7995,6.8307,6.8539,6.8873,6.8926,6.8899,6.8706,6.8732,6.8795,6.8296,6.8045,6.797,6.7869,6.8423,6.8423,7.4167,7.467,7.5784,7.6835,7.794,7.9429,7.9681,7.9268,8.0061,8.0743,8.0958,8.1486,8.2312,8.3103,8.3202,8.3663,8.4518,8.515,8.5516,8.5715,8.6713,8.7012,8.7212,8.7478,8.7695,8.7846,8.7962,8.8078,8.8246,8.8864,8.9331,8.9499,8.9865,8.9461,8.9158,8.8855,8.8767,8.827,8.7606,8.6888,8.6106,8.519,8.4456,8.391,8.3308,8.322,8.3254,8.2373,8.2326,8.2048,8.0984,8.0605,8.0029,7.8955,7.7575,7.6835,7.6682,7.6449,7.5968,7.629,7.6395,7.6319,7.6359,7.6035,7.5682,7.5388,7.5359,7.5563,7.6296,7.6736,7.6444,7.615,7.6442,7.6733,7.6375,7.5988,7.5592,7.5345,7.476,7.4013,7.3044,7.2249,7.1123,6.998,6.932,6.9518,6.9603,6.963,6.9518,6.9406,6.9128,6.8821,6.8821,6.8821,6.8487,6.8319,6.8151,6.7957,6.8125,6.8397,6.8915,6.9056,6.9233,6.9451,6.9557,6.9469,6.9149,6.9145,6.8999,6.8473,6.7718,6.7592,6.7592,6.7945,6.7744,7.5982,7.6278,7.7206,7.8165,7.9074,7.9841,7.9712,7.9474,8.095,8.1558,8.123,8.1787,8.2576,8.3162,8.3162,8.3387,8.4122,8.4768,8.5169,8.498,8.6273,8.6942,8.7309,8.7726,8.7844,8.8209,8.8391,8.8391,8.8855,8.9327,8.9966,9.0605,9.0298,8.9905,8.934,8.8959,8.8689,8.8442,8.7879,8.7183,8.6959,8.6041,8.4879,8.4712,8.4133,8.3698,8.3754,8.3877,8.4098,8.3299,8.284,8.2673,8.1458,7.9974,7.8486,7.7713,7.7527,7.7104,7.6896,7.7092,7.6963,7.6881,7.6975,7.6797,7.6561,7.6205,7.5998,7.6172,7.6879,7.7203,7.6999,7.6885,7.6973,7.7203,7.7078,7.6811,7.6573,7.6032,7.5221,7.4451,7.3829,7.2885,7.2249,7.1258,7.0447,7.0338,7.0418,7.0582,7.0664,7.0501,7.0118,6.9816,6.9651,6.9651,6.932,6.8988,6.8961,6.8795,6.8795,6.9154,6.9644,6.9783,6.9704,6.9855,7.0057,6.9593,6.9394,6.9341,6.8925,6.817,6.774,6.7566,6.7541,6.7616,6.7517,7.7066,7.7206,7.8645,7.9531,7.9971,8.0472,8.002,7.9122,8.0901,8.168,8.1745,8.2677,8.3332,8.3443,8.3487,8.3598,8.3942,8.4488,8.4812,8.5158,8.5996,8.6667,8.7103,8.7438,8.7807,8.8176,8.8425,8.8721,8.915,8.9703,8.9872,8.9669,8.9816,8.9905,8.9331,8.8767,8.8497,8.8531,8.8216,8.779,8.7475,8.6297,8.5144,8.501,8.4497,8.4052,8.4109,8.4255,8.4344,8.4039,8.3944,8.34,8.24,8.0955,8.02,7.9542,7.8878,7.8257,7.7929,7.7836,7.7644,7.7347,7.724,7.721,7.7031,7.6733,7.67,7.6932,7.7316,7.7432,7.7612,7.7649,7.7621,7.7762,7.7963,7.7636,7.7281,7.6479,7.5736,7.5067,7.4451,7.3829,7.3201,7.2616,7.1788,7.1496,7.1687,7.1687,7.1656,7.1601,7.1392,7.0961,7.0635,7.0308,7.0144,6.9816,6.9624,6.9677,6.9704,7.0033,7.0362,7.0198,7.0086,7.033,7.0298,6.9917,6.936,6.902,6.8549,6.799,6.7633,6.733,6.6928,6.6928,6.7164,7.7794,7.8407,7.9566,8.0209,8.0344,8.0782,8.0371,7.9685,8.1442,8.2174,8.1985,8.2528,8.3138,8.3649,8.3582,8.3826,8.3993,8.4472,8.4715,8.5018,8.5514,8.6365,8.687,8.7262,8.8048,8.8485,8.9104,8.9534,8.9647,9.0222,9.0425,8.9861,9.0132,8.9963,8.9252,8.8777,8.8429,8.8531,8.8395,8.8284,8.8104,8.7126,8.6282,8.5903,8.5532,8.5018,8.4933,8.5002,8.5031,8.4457,8.39,8.343,8.2633,8.1816,8.1249,8.0776,8.0075,7.9382,7.8986,7.8551,7.8235,7.7848,7.7591,7.777,7.7475,7.718,7.7031,7.7443,7.8352,7.8737,7.8547,7.8401,7.8528,7.8582,7.8336,7.7914,7.7239,7.6537,7.6126,7.5981,7.5221,7.4324,7.3985,7.4141,7.3348,7.2561,7.2727,7.2727,7.2664,7.2711,7.243,7.2089,7.1635,7.1474,7.1285,7.0798,7.0472,7.0526,7.0388,7.0716,7.0852,7.0662,7.0495,7.0488,7.0389,6.9937,6.9521,6.9078,6.8497,6.7999,6.7513,6.7111,6.6685,6.6391,6.6527,7.8341,7.9598,8.0276,8.051,8.0377,8.0851,8.0544,8.0099,8.1997,8.2743,8.2225,8.1884,8.255,8.3322,8.3396,8.3773,8.415,8.4527,8.4601,8.477,8.5243,8.6121,8.6865,8.755,8.8149,8.8824,8.9432,8.9884,9.0087,9.056,9.0708,9.0629,9.0425,9.0075,8.9499,8.916,8.8845,8.8666,8.8632,8.8767,8.8632,8.8361,8.7617,8.7177,8.6696,8.6071,8.585,8.5738,8.5748,8.5266,8.4151,8.3926,8.3245,8.2742,8.2141,8.1666,8.0919,8.0182,7.965,7.9359,7.8798,7.8495,7.8325,7.8093,7.7946,7.7799,7.7652,7.8036,7.907,7.9447,7.9225,7.8998,7.9006,7.9255,7.889,7.8378,7.7558,7.6711,7.6573,7.655,7.5707,7.4788,7.4971,7.5278,7.4817,7.4041,7.3729,7.3701,7.3673,7.3645,7.3387,7.2996,7.2519,7.2332,7.2117,7.1635,7.0988,7.0988,7.1015,7.115,7.1204,7.085,7.0704,7.0726,7.0546,6.9875,6.9585,6.9052,6.8634,6.7726,6.7336,6.6835,6.6275,6.5826,6.5958,7.9095,8.0675,8.061,8.0675,8.0743,8.058,8.0444,8.0679,8.0987,8.1766,8.254,8.2343,8.2921,8.4359,8.3723,8.3824,8.4325,8.4533,8.4606,8.4742,8.4911,8.5972,8.6921,8.7626,8.8023,8.8767,8.9444,8.9681,9.0391,9.0527,9.0539,9.0775,9.0741,9.0188,8.944,8.9101,8.8651,8.8574,8.8463,8.8463,8.8361,8.8158,8.8023,8.727,8.6383,8.5768,8.5336,8.5378,8.5382,8.5401,8.5352,8.505,8.4398,8.3639,8.294,8.2457,8.1659,8.0904,8.0356,8.0113,7.9647,7.9028,7.8943,7.8708,7.8563,7.8417,7.8417,7.8387,7.9041,7.9542,7.9349,7.8988,7.8891,7.9685,7.9869,7.9218,7.8299,7.7478,7.6956,7.6695,7.6312,7.5945,7.6118,7.6241,7.5908,7.5296,7.4987,7.4987,7.4819,7.4606,7.4422,7.3851,7.3432,7.2359,7.1796,7.1635,7.1312,7.1474,7.1582,7.1745,7.1582,7.1225,7.099,7.1201,7.0447,6.9761,6.9485,6.874,6.7843,6.7067,6.6882,6.6368,6.5899,6.5537,6.5718]},{"header":{"parameterUnit":"m.s-1","parameterCategory":1,"la1":31.0,"la2":29.5877,"lo1":-88.7671,"lo2":-86.6584,"dy":0.0162,"dx":0.0185,"nx":115,"ny":88,"refTime":"2023-11-02T00:00:00:Z","depth":0,"parameterNumber":3,"parameterNumberName":"V-component_of_WINDS"},"data":[0.0,0.0,0.0,0.0,0.0,0.0,0.0,0.0,0.0,0.0,0.0,0.0,0.0,0.0,0.0,0.0,0.0,0.0,0.0,0.0,0.0,0.0,0.0,0.0,0.0,0.0,0.0,0.0,0.0,0.0,0.0,0.0,0.0,0.0,0.0,0.0,0.0,0.0,0.0,0.0,0.0,0.0,0.0,0.0,0.0,0.0,0.0,0.0,0.0,0.0,0.0,0.0,0.0,0.0,0.0,0.0,0.0,0.0,0.0,0.0,0.0,0.0,0.0,0.0,0.0,0.0,0.0,0.0,0.0,0.0,0.0,0.0,0.0,0.0,0.0,0.0,0.0,0.0,0.0,0.0,0.0,0.0,0.0,0.0,0.0,0.0,0.0,0.0,0.0,0.0,0.0,0.0,0.0,0.0,0.0,0.0,0.0,0.0,0.0,0.0,0.0,0.0,0.0,0.0,0.0,0.0,0.0,0.0,0.0,0.0,0.0,0.0,0.0,0.0,0.0,0.0,0.0,0.0,0.0,0.0,0.0,0.0,0.0,0.0,0.0,0.0,0.0,0.0,0.0,0.0,0.0,0.0,0.0,0.0,0.0,0.0,0.0,0.0,0.0,0.0,0.0,0.0,0.0,0.0,0.0,0.0,0.0,0.0,0.0,0.0,0.0,0.0,0.0,0.0,0.0,0.0,0.0,0.0,0.0,0.0,0.0,0.0,0.0,0.0,0.0,0.0,0.0,0.0,0.0,0.0,0.0,0.0,0.0,0.0,0.0,0.0,0.0,0.0,0.0,0.0,0.0,0.0,0.0,0.0,0.0,0.0,0.0,0.0,0.0,0.0,0.0,0.0,0.0,0.0,0.0,0.0,0.0,0.0,0.0,0.0,0.0,0.0,0.0,0.0,0.0,0.0,0.0,0.0,0.0,0.0,0.0,0.0,0.0,0.0,0.0,0.0,0.0,0.0,0.0,0.0,0.0,0.0,0.0,0.0,0.0,0.0,0.0,0.0,0.0,0.0,0.0,0.0,0.0,0.0,0.0,0.0,0.0,0.0,0.0,0.0,0.0,0.0,0.0,0.0,0.0,0.0,0.0,0.0,0.0,0.0,0.0,0.0,0.0,0.0,0.0,0.0,0.0,0.0,0.0,0.0,0.0,0.0,0.0,0.0,0.0,0.0,0.0,0.0,0.0,0.0,0.0,0.0,0.0,0.0,0.0,0.0,0.0,0.0,0.0,0.0,0.0,0.0,0.0,0.0,0.0,0.0,0.0,0.0,0.0,0.0,0.0,0.0,0.0,0.0,0.0,0.0,0.0,0.0,0.0,0.0,0.0,0.0,0.0,0.0,0.0,0.0,0.0,0.0,0.0,0.0,0.0,0.0,0.0,0.0,0.0,0.0,0.0,0.0,0.0,0.0,0.0,0.0,0.0,0.0,0.0,0.0,0.0,0.0,0.0,0.0,0.0,0.0,0.0,0.0,0.0,0.0,0.0,0.0,0.0,0.0,0.0,0.0,0.0,0.0,0.0,0.0,0.0,0.0,0.0,0.0,0.0,0.0,0.0,0.0,0.0,0.0,0.0,0.0,0.0,0.0,0.0,0.0,0.0,0.0,0.0,0.0,0.0,0.0,0.0,0.0,0.0,0.0,0.0,0.0,0.0,0.0,0.0,0.0,0.0,0.0,0.0,0.0,0.0,0.0,0.0,0.0,0.0,0.0,0.0,0.0,0.0,0.0,0.0,0.0,0.0,0.0,0.0,0.0,0.0,0.0,0.0,0.0,0.0,0.0,0.0,0.0,0.0,0.0,0.0,0.0,0.0,0.0,0.0,0.0,0.0,0.0,0.0,0.0,0.0,0.0,0.0,0.0,0.0,0.0,0.0,0.0,0.0,0.0,0.0,0.0,0.0,0.0,0.0,0.0,0.0,0.0,0.0,0.0,0.0,0.0,0.0,0.0,0.0,0.0,0.0,0.0,0.0,0.0,0.0,0.0,0.0,0.0,0.0,0.0,0.0,0.0,0.0,0.0,0.0,0.0,0.0,0.0,0.0,0.0,0.0,0.0,0.0,0.0,0.0,0.0,0.0,0.0,0.0,0.0,0.0,0.0,0.0,0.0,0.0,0.0,0.0,0.0,0.0,0.0,0.0,0.0,0.0,0.0,0.0,0.0,0.0,0.0,0.0,0.0,0.0,0.0,0.0,0.0,0.0,0.0,0.0,0.0,0.0,0.0,0.0,0.0,0.0,0.0,0.0,0.0,0.0,0.0,0.0,0.0,0.0,0.0,0.0,0.0,0.0,0.0,0.0,0.0,0.0,0.0,0.0,0.0,0.0,0.0,0.0,0.0,0.0,0.0,0.0,0.0,0.0,0.0,0.0,0.0,0.0,0.0,0.0,0.0,0.0,0.0,0.0,0.0,0.0,0.0,0.0,0.0,0.0,0.0,0.0,0.0,0.0,0.0,0.0,0.0,0.0,0.0,0.0,0.0,0.0,0.0,0.0,0.0,0.0,0.0,0.0,0.0,0.0,0.0,0.0,0.0,0.0,0.0,0.0,0.0,0.0,0.0,0.0,0.0,0.0,0.0,0.0,0.0,0.0,0.0,0.0,0.0,0.0,0.0,0.0,0.0,0.0,0.0,0.0,0.0,0.0,0.0,0.0,0.0,0.0,0.0,0.0,0.0,0.0,0.0,0.0,0.0,0.0,0.0,0.0,0.0,0.0,0.0,0.0,0.0,0.0,0.0,0.0,0.0,0.0,0.0,0.0,0.0,0.0,0.0,0.0,0.0,0.0,0.0,0.0,0.0,0.0,0.0,0.0,0.0,0.0,0.0,0.0,0.0,0.0,0.0,0.0,0.0,0.0,0.0,0.0,0.0,0.0,0.0,0.0,0.0,0.0,0.0,0.0,0.0,0.0,0.0,0.0,0.0,0.0,0.0,0.0,0.0,0.0,0.0,0.0,0.0,0.0,0.0,0.0,0.0,0.0,0.0,0.0,0.0,0.0,0.0,0.0,0.0,0.0,0.0,0.0,0.0,0.0,0.0,0.0,0.0,0.0,0.0,0.0,0.0,0.0,0.0,0.0,0.0,0.0,0.0,0.0,0.0,0.0,0.0,0.0,0.0,0.0,0.0,0.0,0.0,0.0,0.0,0.0,0.0,0.0,0.0,0.0,0.0,0.0,0.0,0.0,0.0,0.0,0.0,0.0,0.0,0.0,0.0,0.0,0.0,0.0,0.0,0.0,0.0,0.0,0.0,0.0,0.0,0.0,0.0,0.0,0.0,0.0,0.0,0.0,0.0,0.0,0.0,0.0,0.0,0.0,0.0,0.0,0.0,0.0,0.0,0.0,0.0,0.0,0.0,0.0,0.0,0.0,0.0,0.0,0.0,0.0,0.0,0.0,0.0,0.0,0.0,0.0,0.0,0.0,0.0,0.0,0.0,0.0,0.0,0.0,0.0,0.0,0.0,0.0,0.0,0.0,0.0,0.0,0.0,0.0,0.0,0.0,0.0,0.0,0.0,0.0,0.0,0.0,0.0,0.0,0.0,0.0,0.0,0.0,0.0,0.0,0.0,0.0,0.0,0.0,0.0,0.0,0.0,0.0,0.0,0.0,0.0,0.0,0.0,0.0,0.0,0.0,0.0,0.0,0.0,0.0,0.0,0.0,0.0,0.0,0.0,0.0,0.0,0.0,0.0,0.0,0.0,0.0,0.0,0.0,0.0,0.0,0.0,0.0,0.0,0.0,0.0,0.0,0.0,0.0,0.0,0.0,0.0,0.0,0.0,0.0,0.0,0.0,0.0,0.0,0.0,0.0,0.0,0.0,0.0,0.0,0.0,0.0,0.0,0.0,0.0,0.0,0.0,0.0,0.0,0.0,0.0,0.0,0.0,0.0,0.0,0.0,0.0,0.0,0.0,0.0,0.0,0.0,0.0,0.0,0.0,0.0,0.0,0.0,0.0,0.0,0.0,0.0,0.0,0.0,0.0,0.0,0.0,0.0,0.0,0.0,0.0,0.0,0.0,0.0,0.0,0.0,0.0,0.0,0.0,0.0,0.0,0.0,0.0,0.0,0.0,0.0,0.0,0.0,0.0,0.0,0.0,0.0,0.0,0.0,0.0,0.0,0.0,0.0,0.0,0.0,0.0,0.0,0.0,0.0,0.0,0.0,0.0,0.0,0.0,0.0,0.0,0.0,0.0,0.0,0.0,0.0,0.0,0.0,0.0,0.0,0.0,0.0,0.0,0.0,0.0,0.0,0.0,0.0,0.0,-0.3385,0.0,0.0,0.0,0.0,0.0,0.0,0.0,0.0,0.0,0.0,0.0,0.0,0.0,0.0,0.0,0.0,0.0,0.0,0.0,0.0,0.0,0.0,0.0,0.0,0.0,0.0,0.0,0.0,0.0,0.0,0.0,0.0,0.0,0.0,0.0,0.0,0.0,0.0,0.0,0.0,0.0,0.0,0.0,0.0,0.0,0.0,0.0,0.0,0.0,0.0,0.0,0.0,0.0,0.0,0.0,0.0,0.0,0.0,0.0,0.0,0.0,0.0,0.0,0.0,0.0,0.0,0.0,0.0,0.0,0.0,0.0,0.0,0.0,0.0,0.0,0.0,0.0,0.0,0.0,0.0,0.0,0.0,0.0,0.0,0.0,0.0,0.0,0.0,0.0,0.0,0.0,0.0,0.0,0.0,0.0,0.0,0.0,0.0,0.0,0.0,0.0,0.0,0.0,0.0,0.0,0.0,0.0,0.0,0.0,0.0,-0.3991,-0.3988,-0.4187,-0.3964,-0.3366,0.0,0.0,0.0,0.0,0.0,0.0,0.0,0.0,0.0,0.0,0.0,0.0,0.0,0.0,0.0,0.0,0.0,0.0,0.0,0.0,0.0,0.0,0.0,0.0,0.0,0.0,0.0,0.0,0.0,0.0,0.0,0.0,0.0,0.0,0.0,0.0,0.0,0.0,0.0,0.0,0.0,0.0,0.0,0.0,0.0,0.0,0.0,0.0,0.0,0.0,0.0,0.0,0.0,0.0,0.0,0.0,0.0,0.0,0.0,0.0,0.0,0.0,0.0,0.0,0.0,0.0,0.0,0.0,0.0,0.0,0.0,0.0,0.0,0.0,0.0,0.0,0.0,0.0,0.0,0.0,0.0,0.0,0.0,0.0,0.0,0.0,0.0,0.0,0.0,0.0,0.0,0.0,0.0,0.0,0.0,0.0,0.0,0.0,0.0,0.0,0.0,0.0,0.0,0.0,0.0,0.0,0.0,0.0,0.0,0.0,0.0,0.0,-0.374,-0.3677,-0.3105,0.0,0.0,0.0,0.0,0.0,0.0,0.0,0.0,0.0,0.0,0.0,0.0,0.0,0.0,0.0,0.0,0.0,0.0,0.0,0.0,0.0,0.0,0.0,0.0,0.0,0.0,0.0,0.0,0.0,0.0,0.0,0.0,0.0,0.0,0.0,0.0,0.0,0.0,0.0,0.0,0.0,0.0,0.0,0.0,0.0,0.0,0.0,0.0,0.0,0.0,0.0,0.0,0.0,0.0,0.0,0.0,0.0,0.0,0.0,0.0,0.0,0.0,0.0,0.0,0.0,0.0,0.0,0.0,0.0,0.0,0.0,0.0,0.0,0.0,0.0,0.0,0.0,0.0,0.0,0.0,0.0,0.0,0.0,0.0,0.0,0.0,0.0,0.0,0.0,0.0,0.0,0.0,0.0,0.0,0.0,0.0,0.0,0.0,0.0,0.0,0.0,0.0,0.0,0.0,0.0,0.0,0.0,0.0,0.0,0.0,-0.3569,-0.1469,-0.173,0.0,-0.2526,0.0,0.0,0.0,0.0,0.0,0.0,0.0,0.0,0.0,0.0,0.0,0.0,0.0,0.0,0.0,0.0,0.0,0.0,0.0,0.0,0.0,0.0,0.0,0.0,0.0,0.0,0.0,0.0,0.0,0.0,0.0,0.0,0.0,0.0,0.0,0.0,0.0,0.0,0.0,0.0,0.0,0.0,0.0,0.0,0.0,0.0,0.0,0.0,0.0,0.0,0.0,0.0,0.0,0.0,0.0,0.0,0.0,0.0,0.0,0.0,0.0,0.0,0.0,0.0,0.0,0.0,0.0,0.0,0.0,0.0,0.0,0.0,0.0,0.0,0.0,0.0,0.0,0.0,0.0,0.0,0.0,0.0,0.0,0.0,0.0,0.0,0.0,0.0,0.0,0.0,0.0,0.0,0.0,0.0,0.0,0.0,0.0,0.0,0.0,0.0,0.0,0.0,0.0,0.0,0.0,0.0,0.0,0.0,0.0,0.0,-0.2354,-0.1452,-0.1278,-0.0901,0.0,0.0,0.0,0.0,0.0,0.0,0.0,0.0,0.0,0.0,0.0,0.0,0.0,0.0,0.0,0.0,0.0,0.0,0.0,0.0,0.0,0.0,0.0,0.0,0.0,0.0,0.0,0.0,0.0,0.0,0.0,0.0,0.0,0.0,0.0,0.0,0.0,0.0,0.0,0.0,0.0,0.0,0.0,0.0,0.0,0.0,0.0,0.0,0.0,0.0,0.0,0.0,0.0,0.0,0.0,0.0,0.0,0.0,0.0,0.0,0.0,0.0,0.0,0.0,0.0,0.0,0.0,0.0,0.0,0.0,0.0,0.0,0.0,0.0,0.0,0.0,0.0,0.0,0.0,0.0,0.0,0.0,0.0,0.0,0.0,0.0,0.0,0.0,0.0,0.0,0.0,0.0,0.0,0.0,0.0,0.0,0.0,0.0,0.0,0.0,0.0,0.0,0.0,0.0,0.0,0.0,0.0,0.0,0.0,0.0,-0.194,-0.1337,-0.0724,-0.0543,0.0,0.0969,0.0,0.0,0.0,0.0,0.0,0.0,0.0,0.0,0.0,0.0,0.0,0.0,0.0,0.0,0.0,0.0,0.0,0.0,0.0,0.0,0.0,0.0,0.0,0.0,0.0,0.0,0.0,0.0,0.0,0.0,0.0,0.0,0.0,0.0,0.0,0.0,0.0,0.0,0.0,0.0,0.0,0.0,0.0,0.0,0.0,0.0,0.0,0.0,0.0,0.0,0.0,0.0,0.0,0.0,0.0,0.0,0.0,0.0,0.0,0.0,0.0,0.0,0.0,0.0,0.0,0.0,0.0,0.0,0.0,0.0,0.0,0.0,0.0,0.0,0.0,0.0,0.0,0.0,0.0,0.0,0.0,0.0,0.0,0.0,0.0,0.0,0.0,0.0,0.0,0.0,0.0,0.0,0.0,0.0,0.0,0.0,0.0,0.0,0.0,0.0,0.0,0.0,0.0,0.0,0.0,0.0,0.0,0.0,0.18,-0.0564,-0.081,0.141,0.1121,0.0731,0.0,0.0,0.0,0.0,0.0,0.0,0.0,0.0,0.0,0.0,0.0,0.0,0.0,0.0,0.0,0.0,0.0,0.0,0.0,0.0,0.0,0.0,0.0,0.0,0.0,0.0,0.0,0.0,0.0,0.0,0.0,0.0,0.0,0.0,0.0,0.0,0.0,0.0,0.0,0.0,0.0,0.0,0.0,0.0,0.0,0.0,0.0,0.0,0.0,0.0,0.0,0.0,0.0,0.0,0.0,0.0,0.0,0.0,0.0,0.0,0.0,0.0,0.0,0.0,0.0,0.0,0.0,0.0,0.0,0.0,0.0,0.0,0.0,0.0,0.0,0.0,0.0,0.0,0.0,0.0,0.0,0.0,0.0,0.0,0.0,0.0,0.0,0.0,0.0,0.0,0.0,0.0,0.0,0.0,0.0,0.0,0.0,0.0,0.0,0.0,0.0,0.0,0.0,0.0,0.0,0.0,0.0,0.0,0.0,-0.2744,-0.256,-0.066,0.2892,0.0757,0.0233,0.0,0.0,0.0,0.0,0.0,0.0,0.0,0.0,0.0,0.0,0.0,0.0,0.0,0.0,0.0,0.0,0.0,0.0,0.0,0.0,0.0,0.0,0.0,0.0,0.0,0.0,0.0,0.0,0.0,0.0,0.0,0.0,0.0,0.0,0.0,0.0,0.0,0.0,0.0,0.0,0.0,0.0,0.0,0.0,0.0,0.0,0.0,0.0,0.0,0.0,0.0,0.0,0.0,0.0,0.0,0.0,0.0,0.0,0.0,0.0,0.0,0.0,0.0,0.0,0.0,0.0,0.0,0.0,0.0,0.0,0.0,0.0,0.0,0.0,0.0,0.0,0.0,0.0,0.0,0.0,0.0,0.0,0.0,0.0,0.0,0.0,0.0,0.0,0.0,0.0,0.0,0.0,0.0,0.0,0.0,0.0,0.0,0.0,0.0,0.0,0.0,0.0,0.0,0.0,0.0,0.0,0.0,0.0,0.0,-0.348,0.0,0.0695,0.3046,0.0827,-0.0,0.0,0.0,0.0,0.0,0.0,0.0,0.0,0.0,0.0,0.0,0.0,0.0,0.0,0.0,0.0,0.0,0.0,0.0,0.0,0.0,0.0,0.0,0.0,0.0,0.0,0.0,0.0,0.0,0.0,0.0,0.0,0.0,0.0,0.0,0.0,0.0,0.0,0.0,0.0,0.0,0.0,0.0,0.0,0.0,0.0,0.0,0.0,0.0,0.0,0.0,0.0,0.0,0.0,0.0,0.0,0.0,0.0,0.0,0.0,0.0,0.0,0.0,0.0,0.0,0.0,0.0,0.0,0.0,0.0,0.0,0.0,0.0,0.0,0.0,0.0,0.0,0.0,0.0,0.0,0.0,0.0,0.0,0.0,0.0,0.0,0.0,0.0,0.0,0.0,0.0,0.0,0.0,0.0,0.0,0.0,0.0,0.0,0.0,0.0,0.0,0.0,0.0,0.0,0.0,0.0,0.0,0.0,0.0,-0.3396,0.0591,0.2727,0.3193,0.185,0.1494,0.0,0.0,0.0,0.0,0.0,0.0,0.0,0.0,0.0,0.0,0.0,0.0,0.0,0.0,0.0,0.0,0.0,0.0,0.0,0.0,0.0,0.0,0.0,0.0,0.0,0.0,0.0,0.0,0.0,0.0,0.0,0.0,0.0,0.0,0.0,0.0,0.0,0.0,0.0,0.0,0.0,0.0,0.0,0.0,0.0,0.0,0.0,0.0,0.0,0.0,0.0,0.0,0.0,0.0,0.0,0.0,0.0,0.0,0.0,0.0,0.0,0.0,0.0,0.0,0.0,0.0,0.0,0.0,0.0,0.0,0.0,0.0,0.0,0.0,0.0,0.0,0.0,0.0,0.0,0.0,0.0,0.0,0.0,0.0,0.0,0.0,0.0,0.0,0.0,0.0,0.0,0.0,0.0,0.0,0.0,0.0,0.0,0.0,0.0,0.0,0.0,0.0,0.0,0.0,0.0,0.0,0.0,0.0,0.0,0.0,-0.1068,0.1526,0.3776,0.5514,0.2256,0.161,0.0,0.0,0.0,0.0,0.0,0.0,0.0,0.0,0.0,0.0,0.0,0.0,0.0,0.0,0.0,0.0,0.0,0.0,0.0,0.0,0.0,0.0,0.0,0.0,0.0,0.0,0.0,0.0,0.0,0.0,0.0,0.0,0.0,0.0,0.0,0.0,0.0,0.0,0.0,0.0,0.0,0.0,0.0,0.0,0.0,0.0,0.0,0.0,0.0,0.0,0.0,0.0,0.0,0.0,0.0,0.0,0.0,0.0,0.0,0.0,0.0,0.0,0.0,0.0,0.0,0.0,0.0,0.0,0.0,0.0,0.0,0.0,0.0,0.0,0.0,0.0,0.0,0.0,0.0,0.0,0.0,0.0,0.0,0.0,0.0,0.0,0.0,0.0,0.0,0.0,0.0,0.0,0.0,0.0,0.0,0.0,0.0,0.0,0.0,0.0,0.0,0.0,0.0,0.0,0.0,0.0,0.0,0.0,0.0,0.2703,0.5034,0.6848,0.7859,0.4837,0.3917,0.5308,0.0,0.0,0.0,0.0,0.0,0.0,0.0,0.0,0.0,0.0,0.0,0.0,0.0,0.0,0.0,0.0,0.0,0.0,0.0,0.0,0.0,0.0,0.0,0.0,0.0,0.0,0.0,0.0,0.0,0.0,0.0,0.0,0.0,0.0,0.0,0.0,0.0,0.0,0.0,0.0,0.0,0.0,0.0,0.0,0.0,0.0,0.0,0.0,0.0,0.0,0.0,0.0,0.0,0.0,0.0,0.0,0.0,0.0,0.0,0.0,0.0,0.0,0.0,0.0,0.0,0.0,0.0,0.0,0.0,0.0,0.0,0.0,0.0,0.0,0.0,0.0,0.0,0.0,0.0,0.0,0.0,0.0,0.0,0.0,0.0,0.0,0.0,0.0,0.0,0.0,0.0,0.0,0.0,0.0,0.0,0.0,0.0,0.0,0.0,0.0,0.0,0.0,0.0,0.0,0.0,0.0,0.0,0.0,1.0827,1.2697,1.2281,0.9338,0.9022,0.7061,0.0,0.0,0.0,0.0,0.0,0.0,0.0,0.0,0.0,0.0,0.0,0.0,0.0,0.0,0.0,0.0,0.0,0.0,0.0,0.0,0.0,0.0,0.0,0.0,0.0,0.0,0.0,0.0,0.0,0.0,0.0,0.0,0.0,0.0,0.0,0.0,0.0,0.0,0.0,0.0,0.0,0.0,0.0,0.0,0.0,0.0,0.0,0.0,0.0,0.0,0.0,0.0,0.0,0.0,0.0,0.0,0.0,0.0,0.0,0.0,0.0,0.0,0.0,0.0,0.0,0.0,0.0,0.0,0.0,0.0,0.0,0.0,0.0,0.0,0.0,0.0,0.0,0.0,0.0,0.0,0.0,0.0,0.0,0.0,0.0,0.0,0.0,0.0,0.0,0.0,0.0,0.0,0.0,0.0,0.0,0.0,0.0,0.0,0.0,0.0,0.0,0.0,0.0,0.0,0.0,0.0,0.0,0.0,0.0,1.6941,2.0146,2.0195,1.668,1.3169,1.0952,0.0,0.0,0.0,0.0,0.0,0.0,0.0,0.0,0.0,0.0,0.0,0.0,0.0,0.0,0.0,0.0,0.0,0.0,0.0,0.0,0.0,0.0,0.0,0.0,0.0,0.0,0.0,0.0,0.0,0.0,0.0,0.0,0.0,0.0,0.0,0.0,0.0,0.0,0.0,0.0,0.0,0.0,0.0,0.0,0.0,0.0,0.0,0.0,0.0,0.0,0.0,0.0,0.0,0.0,0.0,0.0,0.0,0.0,0.0,0.0,0.0,0.0,0.0,0.0,0.0,0.0,0.0,0.0,0.0,0.0,0.0,0.0,0.0,0.0,0.0,0.0,0.0,0.0,0.0,0.0,0.0,0.0,0.0,0.0,0.0,0.0,0.0,0.0,0.0,0.0,0.0,0.0,0.0,0.0,0.0,0.0,0.0,0.0,0.0,0.0,0.0,0.0,0.0,0.0,0.0,0.0,0.0,0.0,1.61,2.1718,2.529,2.6024,2.3434,1.9025,1.5374,0.0,0.0,0.0,0.0,0.0,0.0,0.0,0.0,0.0,0.0,0.0,0.0,0.0,0.0,0.0,0.0,0.0,0.0,0.0,0.0,0.0,0.0,0.0,0.0,0.0,0.0,0.0,0.0,0.0,0.0,0.0,0.0,0.0,0.0,0.0,0.0,0.0,0.0,0.0,0.0,0.0,0.0,0.0,0.0,0.0,0.0,0.0,0.0,0.0,0.0,0.0,0.0,0.0,0.0,0.0,0.0,0.0,0.0,0.0,0.0,0.0,0.0,0.0,0.0,0.0,0.0,0.0,0.0,0.0,0.0,0.0,0.0,0.0,0.0,0.0,0.0,0.0,0.0,0.0,0.0,0.0,0.0,0.0,0.0,0.0,0.0,0.0,0.0,0.0,0.0,0.0,0.0,0.0,0.0,0.0,0.0,0.0,0.0,0.0,0.0,0.0,0.0,0.0,0.0,0.0,0.0,0.0,0.0,1.9891,2.575,2.899,3.0282,2.9379,2.5305,2.0,0.0,0.0,0.0,0.0,0.0,0.0,0.0,0.0,0.0,0.0,0.0,0.0,0.0,0.0,0.0,0.0,0.0,0.0,0.0,0.0,0.0,0.0,0.0,0.0,0.0,0.0,0.0,0.0,0.0,0.0,0.0,0.0,0.0,0.0,0.0,0.0,0.0,0.0,0.0,0.0,0.0,0.0,0.0,0.0,0.0,0.0,0.0,0.0,0.0,0.0,0.0,0.0,0.0,0.0,0.0,0.0,0.0,0.0,0.0,0.0,0.0,0.0,0.0,0.0,0.0,0.0,0.0,0.0,0.0,0.0,0.0,0.0,0.0,0.0,0.0,0.0,0.0,0.0,0.0,0.0,0.0,0.0,0.0,0.0,0.0,0.0,0.0,0.0,0.0,0.0,0.0,0.0,0.0,0.0,0.0,0.0,0.0,0.0,0.0,0.0,0.0,0.0,0.0,0.0,0.0,0.0,0.0,0.0,2.4986,3.1188,3.2952,3.3717,3.3245,2.7673,2.2151,0.0,0.0,0.0,0.0,0.0,0.0,0.0,0.0,0.0,0.0,0.0,0.0,0.0,0.0,0.0,0.0,0.0,0.0,0.0,0.0,0.0,0.0,0.0,0.0,0.0,0.0,0.0,0.0,0.0,0.0,0.0,0.0,0.0,0.0,0.0,0.0,0.0,0.0,0.0,0.0,0.0,0.0,0.0,0.0,0.0,0.0,0.0,0.0,0.4148,0.0,0.0,0.0,0.0,0.0,0.0,0.0,0.0,0.0,0.0,0.0,0.0,0.0,0.0,0.0,0.0,0.0,0.0,0.0,0.0,0.0,0.0,0.0,0.0,0.0,0.0,0.0,0.0,0.0,0.0,0.0,0.0,0.0,0.0,0.0,0.0,0.0,0.0,0.0,0.0,0.0,0.0,0.0,0.0,0.0,0.0,0.0,0.0,0.0,0.0,0.0,0.0,0.0,0.0,0.0,0.0,0.0,0.0,0.0,2.9423,3.4643,3.632,3.6772,3.5731,3.1126,2.5579,0.0,0.0,0.0,0.0,0.0,0.0,0.0,0.0,0.0,0.0,0.0,0.0,0.0,0.0,0.0,0.0,0.0,0.0,0.0,0.0,0.0,0.0,0.0,0.0,0.0,0.0,0.0,0.0,0.0,0.0,0.0,0.0,0.0,0.0,0.0,0.0,0.0,0.0,0.0,0.0,0.0,0.0,0.0,0.0,0.0,0.0,0.0,0.0,0.0,0.0,0.0,0.0,0.0,0.0,0.0,0.0,0.0,0.0,0.0,0.0,0.0,0.0,0.0,0.0,0.0,0.0,0.0,0.0,0.0,0.0,0.0,0.0,0.0,0.0,0.0,0.0,0.0,0.0,0.0,0.0,0.0,0.0,0.0,0.0,0.0,0.0,0.0,0.0,0.0,0.0,0.0,0.0,0.0,0.0,0.0,0.0,0.0,0.0,0.0,0.0,0.0,0.0,0.0,0.0,0.0,0.0,0.0,2.6556,3.2852,3.7532,3.9299,3.9431,3.7916,3.4412,2.9042,2.1677,0.0,0.0,0.0,0.0,0.0,0.0,0.0,0.0,0.0,0.0,0.0,0.0,0.0,0.0,0.0,0.0,0.0,0.0,0.0,0.0,0.0,0.0,0.0,0.0,0.0,0.0,0.0,0.0,0.0,0.0,0.0,0.0,0.0,0.0,0.0,0.0,0.0,0.0,0.2617,0.558,0.0,0.0,0.0,0.0,0.0,0.0,0.0,0.0,0.7211,0.0,0.0,0.0,0.0,0.0,0.0,0.0,0.0,0.0,0.0,0.0,0.0,0.0,0.0,0.0,0.0,0.0,0.0,0.0,0.0,0.0,0.0,0.0,0.0,0.0,0.0,0.0,0.0,0.0,0.0,0.0,0.0,0.0,0.0,0.0,0.0,0.0,0.0,0.0,0.0,0.0,0.0,0.0,0.0,0.0,0.0,0.0,0.0,0.0,0.0,0.0,0.0,0.0,0.0,0.0,0.0,2.7849,2.9895,3.4319,4.1229,4.1861,4.1354,3.9616,3.5861,3.0875,2.4463,0.0,0.0,0.0,0.0,0.0,0.0,0.0,0.0,0.0,0.0,0.0,0.0,0.0,0.0,0.0,0.0,0.0,0.0,0.0,0.0,0.0,0.0,0.0,0.0,0.0,0.0,0.0,0.0,0.0,0.0,0.0,0.0,0.0,0.0,0.0,0.0,0.0,0.0,0.0,0.9317,1.0863,0.0,0.0,0.0,0.0,0.0,0.0,0.0,0.0,0.9624,0.0,0.0,0.0,0.0,0.0,0.0,0.0,0.0,0.0,0.0,0.0,0.0,0.0,0.0,0.0,0.0,0.0,0.0,0.0,0.0,0.0,0.0,0.0,0.0,0.0,0.0,0.0,0.0,0.0,0.0,0.0,0.0,0.0,0.0,0.0,0.0,0.0,0.0,0.0,0.0,0.0,0.0,0.0,0.0,0.0,0.0,0.0,0.0,0.0,0.0,0.0,0.0,0.0,0.0,0.0,2.8402,3.4049,3.8853,4.326,4.371,4.2944,4.083,3.5519,3.0583,0.0,0.0,0.0,0.0,0.0,0.0,0.0,0.0,0.0,0.0,0.0,0.0,0.0,0.0,0.0,0.0,0.0,0.0,0.0,0.0,0.0,0.0,0.0,0.0,0.0,0.0,0.0,0.0,0.0,0.0,0.0,0.0,0.0,0.0,0.0,0.0,0.0,0.0,0.0,0.0,1.1809,1.3412,1.3529,0.0,0.0,0.0,0.0,0.0,0.0,1.085,1.1388,0.0,0.0,0.0,0.0,0.0,0.0,0.0,0.0,0.0,0.0,0.0,0.0,0.0,0.0,0.0,0.0,0.0,0.0,0.0,0.0,0.0,0.0,0.0,0.0,0.0,0.0,0.0,0.0,0.0,0.0,0.0,0.0,0.0,0.0,0.0,0.0,0.0,0.0,0.0,0.0,0.0,0.0,0.0,0.0,0.0,0.0,0.0,0.0,0.0,0.0,0.0,0.0,0.0,0.0,0.0,2.8303,3.6874,4.2557,4.4916,4.533,4.4324,4.2101,3.5869,3.0728,0.0,0.0,0.0,0.0,0.0,0.0,0.0,0.0,0.0,0.0,0.0,0.0,0.0,0.0,0.0,0.0,0.0,0.0,0.0,0.0,0.0,0.0,0.0,0.0,0.0,0.0,0.0,0.0,0.0,0.0,0.0,0.0,0.0,0.0,0.0,0.0,0.0,0.0,0.0,0.0,0.0,1.5744,1.5635,1.4445,0.0,0.0,0.0,0.0,1.3338,1.4721,0.0,0.0,0.0,0.0,0.0,0.0,0.0,0.0,0.0,0.0,0.0,0.0,0.0,0.0,0.0,0.0,0.0,0.0,0.0,0.0,0.0,0.0,0.0,0.0,0.0,0.0,0.0,0.0,0.0,0.0,0.0,0.0,0.0,0.0,0.0,0.0,0.0,0.0,0.0,0.0,0.0,0.0,0.0,0.0,0.0,0.0,0.0,0.0,0.0,0.0,0.0,0.0,0.0,0.0,0.0,0.0,3.1307,3.6694,4.2014,4.7071,4.6943,4.5633,4.2941,3.8708,3.3182,0.0,0.0,0.0,0.0,0.0,0.0,0.0,0.0,0.0,0.0,0.0,0.0,0.0,0.0,0.0,0.0,0.0,0.0,0.0,0.0,0.0,0.0,0.0,0.0,0.0,0.0,0.0,0.0,0.0,0.0,0.0,0.0,0.0,0.0,0.0,0.0,0.0,0.0,0.0,0.0,0.0,1.7818,1.665,1.668,1.6952,0.0,0.0,1.7386,1.6574,2.042,0.0,0.0,0.0,0.0,0.0,0.0,0.0,0.0,0.0,0.0,0.0,0.0,0.0,0.0,0.0,0.0,0.0,0.0,0.0,0.0,0.0,0.0,0.0,0.0,0.0,0.0,0.0,0.0,0.0,0.0,0.0,0.0,0.0,0.0,0.0,0.0,0.0,0.0,0.0,0.0,0.0,0.0,0.0,0.0,0.0,0.0,0.0,0.0,0.0,0.0,0.0,0.0,0.0,0.0,0.0,2.3101,3.3196,3.9635,4.4341,4.7589,4.7112,4.5595,4.3101,3.7498,3.1801,0.0,0.0,0.0,0.0,0.0,0.0,0.0,0.0,0.0,0.0,0.0,0.0,0.0,0.0,0.0,0.0,0.0,0.0,0.0,0.0,0.0,0.0,0.0,0.0,0.0,0.0,0.0,0.0,0.0,0.0,0.0,0.0,0.0,0.0,0.0,0.0,0.0,0.0,0.0,0.0,0.0,0.0,2.0202,2.0086,0.0,0.0,0.0,2.1233,2.041,0.0,0.0,0.0,0.0,0.0,0.0,0.0,0.0,0.0,0.0,0.0,0.0,0.0,0.0,0.0,0.0,0.0,0.0,0.0,0.0,0.0,0.0,0.0,0.0,0.0,0.0,0.0,0.0,0.0,0.0,0.0,0.0,0.0,0.0,0.0,0.0,0.0,0.0,0.0,0.0,0.0,0.0,0.0,0.0,0.0,0.0,0.0,0.0,0.0,0.0,0.0,0.0,0.0,0.0,0.0,0.0,0.0,3.5065,4.2376,4.6886,4.8149,4.7154,4.5555,4.318,3.6855,0.0,0.0,0.0,0.0,0.0,0.0,0.0,0.0,0.0,0.0,0.0,0.0,0.0,0.0,0.0,0.0,0.0,0.0,0.0,0.0,0.0,0.0,0.0,0.0,0.0,0.0,0.0,-0.1414,0.0,0.0,0.0,0.0,0.0,0.0,0.0,0.0,0.0,0.0,0.0,0.0,0.0,0.0,2.2868,2.3293,2.3535,2.3975,0.0,0.0,2.5912,2.5242,2.7101,2.8288,0.0,0.0,0.0,0.0,0.0,0.0,0.0,0.0,0.0,0.0,0.0,0.0,0.0,0.0,0.0,0.0,0.0,0.0,0.0,0.0,0.0,0.0,0.0,0.0,0.0,0.0,0.0,0.0,0.0,0.0,0.0,0.0,0.0,0.0,0.0,0.0,0.0,0.0,0.0,0.0,0.0,0.0,0.0,0.0,0.0,0.0,0.0,0.0,0.0,0.0,0.0,0.0,0.0,0.0,0.0,3.6918,4.3946,4.8223,4.9489,4.7842,4.5906,4.3698,3.8837,3.2618,0.0,0.0,0.0,0.0,0.0,0.0,0.0,0.0,0.0,0.0,0.0,0.0,0.0,0.0,0.0,0.0,0.0,0.0,0.0,0.0,0.0,0.0,0.0,0.0,0.0,0.0,0.0,0.0,0.0,0.0,0.0,0.0,0.0,0.0,0.0,0.0,0.0,0.0,0.0,0.0,0.0,2.3187,2.4699,2.6816,2.874,0.0,0.0,3.2077,3.1392,3.534,3.5218,2.5178,0.0,0.0,0.0,0.0,0.0,0.0,0.0,0.0,0.0,0.0,0.0,0.0,0.0,0.0,0.0,0.0,0.0,0.0,0.0,0.0,0.0,0.0,0.0,0.0,0.0,0.0,0.0,0.0,0.0,0.0,0.0,0.0,0.0,0.0,0.0,0.0,0.0,0.0,0.0,0.0,0.0,0.0,0.0,0.0,0.0,0.0,0.0,0.0,0.0,0.0,0.0,0.0,0.0,2.8695,3.7893,4.4285,4.8264,4.9502,4.7677,4.5711,4.3678,3.8809,3.2861,0.0,0.0,0.0,0.0,0.0,0.0,0.0,0.0,0.0,0.0,0.0,0.0,0.0,0.0,0.0,0.0,0.0,0.0,0.0,0.0,0.0,0.0,0.0,0.0,0.0,0.0,0.0,0.0,0.7232,0.8399,0.7362,0.0,0.0,0.0,0.0,0.0,0.0,0.0,0.0,0.0,0.0,2.6568,2.9495,3.1166,0.0,0.0,3.5088,3.6199,3.6887,3.8932,3.7589,2.91,2.282,0.0,0.0,0.0,0.0,0.0,0.0,0.0,0.0,0.0,0.0,0.0,0.0,0.0,0.0,0.0,0.0,0.0,0.0,0.0,0.0,0.0,0.0,0.0,0.0,0.0,0.0,0.0,0.0,0.0,0.0,0.0,0.0,0.0,0.0,0.0,0.0,0.0,0.0,0.0,0.0,0.0,0.0,0.0,0.0,0.0,0.0,0.0,0.0,0.0,0.0,0.0,0.0,2.968,3.884,4.5041,4.8786,4.9905,4.7748,4.5691,4.3906,3.8955,3.3177,0.0,0.0,0.0,0.0,0.0,0.0,0.0,0.0,0.0,0.0,0.0,0.0,0.0,0.0,0.0,0.0,0.0,0.0,0.0,0.0,0.0,0.0,0.0,0.0,0.0,0.0,0.0,0.0,0.9207,0.9486,0.7443,0.0,0.0,0.0,0.0,0.0,0.0,0.0,0.0,0.0,0.0,3.0412,3.3732,3.4921,3.5907,3.6807,3.8,3.9559,4.1229,4.2544,4.0146,3.0869,0.0,0.0,0.0,0.0,0.0,0.0,0.0,0.0,0.0,0.0,0.0,0.0,0.0,0.0,0.0,0.0,0.0,0.0,0.0,0.0,0.0,0.0,0.0,0.0,0.0,0.0,0.0,-0.0894,0.0,0.0,-0.0653,0.0,0.0,0.0,0.0,0.0,0.0,0.0,0.0,0.0,0.0,0.0,0.0,0.0,0.0,0.0,0.0,0.0,0.0,0.0,0.0,0.0,0.0,3.0351,3.9758,4.6255,4.9917,5.0838,4.8675,4.6459,4.4369,3.9559,3.3954,2.7159,0.0,0.0,0.0,0.0,0.0,0.0,0.0,0.0,0.0,0.0,0.0,0.0,0.0,0.0,0.0,0.0,0.0,0.0,0.0,0.0,0.0,0.0,0.0,0.0,0.0,0.0,0.8501,0.9108,0.8361,0.0,0.0,0.0,0.0,0.0,0.0,0.0,0.0,0.0,0.0,3.0781,3.4269,3.6604,3.784,3.8878,3.9662,4.0679,4.2188,4.4205,4.6762,4.3699,0.0,0.0,0.0,0.0,0.0,0.0,0.0,0.0,0.0,0.0,0.0,0.0,0.0,0.0,0.0,0.0,0.0,0.0,0.0,0.0,0.0,0.0,0.0,0.0,0.0,0.0,0.0,0.2894,0.2041,0.0,0.0,0.0,0.0,0.0,0.0,0.0,0.0,0.0,0.0,0.0,1.4626,1.6221,0.0,0.0,0.0,0.0,0.0,0.0,0.0,0.0,0.0,0.0,0.0,0.0,3.1536,4.0454,4.6832,5.0389,5.1149,4.8808,4.6609,4.4432,4.0404,3.3749,2.4317,0.0,0.0,0.0,0.0,0.0,0.0,0.0,0.0,0.0,0.0,0.0,0.0,0.0,0.0,0.0,0.0,0.0,0.0,0.0,0.0,0.0,0.0,0.0,0.0,0.0,0.8725,0.0,0.0,0.0,0.0,0.0,0.0,0.0,0.0,0.0,0.0,0.0,2.3904,2.9869,3.4251,3.7868,4.0623,4.1534,4.2302,0.0,0.0,0.0,0.0,0.0,0.0,0.0,0.0,0.0,0.0,0.0,0.0,0.0,0.0,2.455,1.646,1.3803,1.299,1.363,0.0,0.0,0.0,0.0,0.0,0.0,0.0,0.0,0.0,0.0,0.0,0.0,0.0,0.0,0.5805,0.5349,0.231,0.0,0.0,0.0,0.0,0.0,0.0,0.0,0.0,1.485,1.8171,1.9608,2.1613,2.1409,0.0,1.7095,1.3278,0.0,0.0,0.0,0.0,0.0,0.0,0.0,0.0,3.2565,4.1,4.744,5.0947,5.1539,4.9362,4.7156,4.5121,4.0028,3.3185,2.4386,1.8929,1.4634,0.0,0.0,0.0,0.0,0.0,0.0,0.0,0.0,0.0,0.0,0.0,0.0,0.0,0.0,0.0,0.0,0.0,0.0,0.0,0.0,0.0,0.0,0.0,1.1152,0.0,0.0,0.0,0.0,0.0,0.0,0.0,0.0,0.0,2.0488,2.2719,2.647,3.4429,3.8379,4.1545,4.4306,0.0,0.0,0.0,0.0,0.0,0.0,0.0,3.9537,3.9584,3.7754,3.4818,3.0895,3.1121,3.1665,3.0937,0.0,0.0,2.1451,1.8431,1.7411,1.837,2.0463,2.1935,2.1363,2.1935,2.2567,0.0,0.0,0.0,0.0,0.0,0.0,0.0,0.0,0.8371,0.8675,0.0,0.6723,0.0,0.0,0.0,0.0,0.5081,1.0605,0.0,0.0,2.1689,2.5123,2.5442,2.6247,2.5929,2.4538,2.2482,1.8772,1.3507,0.7018,0.0,0.0,0.0,0.0,0.0,0.0,3.3711,4.1481,4.8186,5.1734,5.207,5.0335,4.8411,4.6081,3.8633,3.2301,2.756,2.3438,1.9348,1.5084,1.1735,0.0,0.0,0.0,0.0,0.0,0.0,0.0,0.0,0.0,0.0,0.0,0.0,0.0,0.0,0.0,0.0,0.0,0.0,0.0,0.0,1.488,0.0,0.0,0.0,0.0,0.0,0.0,0.0,0.0,0.0,0.0,2.8514,2.6612,2.7834,3.9654,0.0,0.0,0.0,0.0,4.4294,4.6065,4.7167,4.7164,4.5025,4.2073,3.9973,4.0146,0.0,0.0,3.6016,3.5591,3.536,3.3217,3.3476,3.3225,3.1541,2.8041,2.6019,2.6831,2.9747,3.1169,2.818,2.8106,2.8709,1.7684,0.0,0.0,0.0,0.0,1.2047,1.3362,1.5704,1.4944,1.4035,1.305,1.3707,0.0,0.0,0.0,0.0,0.0,0.0,1.6719,2.0351,2.4502,2.7614,2.9786,3.0385,2.9493,2.7478,2.426,2.0484,1.6045,1.169,0.6923,0.2082,0.0,0.0,0.0,0.0,3.7401,4.4909,4.964,5.2009,5.2483,5.0452,4.7788,4.4173,3.8767,3.4299,3.101,2.7473,2.3623,1.9758,1.6348,0.0,0.0,0.0,0.0,0.0,0.0,0.0,0.0,0.0,0.0,0.0,0.0,0.0,0.0,0.0,0.0,0.0,0.0,0.0,1.5455,1.4847,1.3777,0.0,0.0,0.0,0.0,0.0,0.0,0.0,0.0,0.0,3.6274,4.1247,4.3465,0.0,0.0,4.7728,4.8462,4.752,4.7377,4.9609,5.0156,0.0,4.853,4.5759,4.3844,4.4421,4.3659,4.241,4.0813,4.0367,4.0043,3.9682,3.9043,3.8476,3.7643,3.2673,2.9795,3.2194,3.54,3.6476,3.3895,3.3961,3.4599,2.4386,1.9808,1.6605,1.5946,1.6988,1.6822,1.7937,2.0017,1.9394,1.8459,1.7645,1.8361,1.6892,1.391,1.3875,0.0,0.0,0.0,2.0865,2.505,2.8044,3.071,3.3106,3.3037,3.1845,2.9734,2.5527,2.1609,1.8129,1.4512,1.1471,0.8989,0.0,0.0,2.405,3.4997,4.2912,4.7601,5.0735,5.234,5.2389,5.0027,4.7152,4.3792,3.957,3.6305,3.3803,3.0532,2.7295,2.4107,2.0677,1.6838,0.0,0.0,0.0,0.0,0.0,0.0,0.0,0.0,0.0,0.0,0.0,0.4139,0.0,0.0,0.0,0.0,0.8063,1.416,1.8185,1.7796,0.0,0.0,0.0,0.0,0.0,0.0,0.0,2.1032,2.1941,2.6938,3.9123,4.884,5.327,4.9594,5.0315,5.1125,5.0998,0.0,5.0627,5.234,5.2693,5.2245,5.0839,4.8657,4.7342,4.7783,4.6384,4.5139,4.4995,4.4237,4.3816,4.3861,4.3103,4.235,4.2059,3.7851,3.491,3.6798,3.9265,4.0271,3.8016,3.8182,3.8699,3.0505,2.8465,2.3247,2.1056,2.1212,2.1872,2.2271,2.2563,2.24,2.2334,2.2472,2.1336,2.0212,1.8972,1.7917,0.0,1.9548,2.262,2.5814,2.9028,3.1929,3.4206,3.5833,3.455,3.3111,3.1331,2.6418,2.2506,1.9715,1.6254,1.5763,1.8227,1.9525,2.6471,3.8619,4.5339,4.8937,4.9567,5.1757,5.2596,5.2014,4.9157,4.6502,4.4494,4.0932,3.815,3.6107,3.3126,3.0513,2.8093,2.4914,2.1046,1.6603,0.0,0.0,0.0,0.0,0.0,0.0,0.0,0.0,0.0,0.0,0.0,0.0,0.0,0.0,0.0,1.4688,0.0,2.2171,2.2462,0.0,0.0,0.0,1.9123,1.9414,2.2425,2.4057,2.3417,0.0,0.0,3.9696,5.1568,5.829,5.4751,5.4832,5.4841,5.4117,5.3846,5.3912,5.4396,5.4967,5.4515,5.2333,5.1259,5.0681,5.0638,4.9403,4.8365,4.8315,4.7469,4.6727,4.651,4.5932,4.5315,4.4836,4.3423,4.2353,4.0902,4.2209,4.3082,4.1524,4.1165,4.1529,3.4206,3.2713,3.1383,2.9152,2.6475,2.691,2.7438,2.7909,2.7291,2.6546,2.5804,2.4367,2.3263,2.2395,2.2766,2.3884,2.5546,2.7524,3.0614,3.4074,3.5047,3.6415,3.7831,3.5747,3.3714,3.1665,2.7549,2.415,2.1557,1.9126,1.9524,2.2618,2.6656,3.3772,4.344,4.5826,4.8592,5.213,5.2783,5.227,5.0721,4.8919,4.713,4.5419,4.2607,4.0215,3.8592,3.6237,3.3898,3.1619,2.8729,2.5508,2.1996,1.627,0.0,0.0,0.0,0.0,0.0,0.0,0.0,0.0,0.0,0.8165,0.5025,0.0,0.9155,0.0,1.5199,2.3709,2.4709,2.3341,0.0,0.0,2.4331,2.4395,2.7555,2.9279,3.0501,3.1396,3.5431,4.1242,4.9514,5.5697,5.9028,5.7769,5.6584,5.5686,5.5453,5.6277,5.6891,5.7327,5.7387,5.6789,5.5033,5.4484,5.4049,5.3515,5.1611,5.0227,5.0262,4.9535,4.9016,4.8973,4.9071,4.8821,4.8042,4.6996,4.6351,4.6052,4.5726,4.5162,4.4009,4.4011,4.4222,3.7566,3.6392,3.6537,3.5075,3.2965,3.2044,3.1652,3.181,3.0995,3.0124,2.8958,2.7538,2.6553,2.6252,2.6949,2.8013,2.9441,3.1039,3.3619,3.6813,3.7023,3.7679,3.8878,3.65,3.4192,3.1732,2.8103,2.5137,2.2773,2.1302,2.2705,2.6849,3.1837,3.8487,4.6358,4.7516,4.9857,5.3663,5.3076,5.1847,5.0277,4.852,4.6738,4.5111,4.2379,4.0171,3.8497,3.6387,3.4317,3.2412,2.9824,2.6893,2.3453,1.8983,1.5102,0.0,0.0,0.0,0.0,0.0,0.0,0.0,0.0,0.0,0.0,0.0,1.2677,1.0778,2.0907,2.7876,2.8737,2.8138,2.8596,3.0515,3.0092,3.0766,3.3266,3.5234,3.6344,3.638,4.1314,4.8088,5.6477,5.9313,6.061,6.0278,5.936,5.8295,5.7794,5.8763,5.9573,5.9687,5.912,5.7725,5.5509,5.5906,5.6257,5.5485,5.3795,5.2249,5.193,5.1611,5.1153,5.0696,5.0792,5.0822,5.0268,4.9465,4.889,4.9385,4.9045,4.7826,4.6124,4.5998,4.6067,4.0647,3.9471,3.9627,3.9838,3.9581,3.7163,3.5774,3.4928,3.4275,3.3224,3.1993,3.0672,3.0071,2.997,3.0664,3.1446,3.2423,3.3872,3.5992,3.8272,3.8308,3.8631,3.9065,3.7042,3.4515,3.1697,2.8403,2.5678,2.3656,2.3229,2.5714,3.0907,3.5852,4.1727,4.8377,4.98,5.1692,5.4223,5.2764,5.1385,5.0143,4.8101,4.618,4.4247,4.1439,3.9111,3.7582,3.5448,3.3525,3.2028,3.0121,2.7294,2.3753,2.1047,1.7955,0.0,1.2501,0.0,0.0,0.0,0.0,0.0,0.0,0.0,0.0,1.391,1.6422,2.0945,2.8496,3.3149,3.3001,3.416,3.4854,3.4642,3.5701,3.6816,3.7711,4.0302,4.1559,4.0571,4.6723,5.3932,6.0577,6.1973,6.1932,6.2045,6.1814,6.1171,6.0477,6.111,6.1692,6.145,6.0354,5.8627,5.6186,5.6747,5.7668,5.7119,5.5789,5.4504,5.347,5.3333,5.3151,5.2259,5.2191,5.2146,5.2078,5.1402,5.0974,5.1513,5.1592,5.0719,4.8462,4.7602,4.7648,4.226,4.1823,4.2609,4.2913,4.2857,4.2293,4.0583,3.8311,3.7596,3.6184,3.4435,3.4128,3.365,3.3162,3.4071,3.5066,3.5832,3.7259,3.8562,4.0061,4.0098,3.9645,3.8725,3.6881,3.4354,3.1235,2.8776,2.6717,2.4998,2.6265,2.9579,3.4802,4.0144,4.5661,5.1053,0.0,0.0,0.0,5.2459,5.1408,5.0121,4.8411,4.6355,4.4273,4.2137,0.0,3.7666,3.6808,3.5541,3.3922,3.2933,0.0,0.0,0.0,0.0,0.0,0.0,0.0,0.0,0.0,0.0,0.0,1.8533,1.6891,1.3345,1.4322,1.8048,2.4792,3.2529,3.6541,3.4926,3.563,3.639,3.6877,3.772,3.9314,4.2078,4.4163,4.6354,4.9412,5.2717,5.6495,6.1007,6.1646,6.1577,6.2198,6.2638,6.2897,6.3024,6.2598,6.2433,6.2324,6.1471,6.0252,5.8113,5.8736,5.914,5.8496,5.7456,5.6233,5.5299,5.5021,5.4975,5.398,5.4211,5.4465,5.4414,5.4003,5.3383,5.3132,5.3141,5.2679,5.0503,4.9697,4.9434,4.4777,4.4375,4.453,4.4663,0.0,4.4699,4.3594,4.174,4.0242,3.8682,3.7138,3.6587,3.6112,3.5764,3.639,3.713,3.7793,3.8995,4.021,4.1091,4.0965,4.0087,3.887,3.7352,3.4701,3.125,2.9166,2.7833,2.7226,2.9135,3.3044,3.8861,4.3697,4.8349,5.2932,5.4129,5.4122,5.2916,5.2049,5.1018,4.974,4.7815,4.5897,4.4025,4.1519,0.0,0.0,0.0,0.0,0.0,0.0,0.0,0.0,2.5252,0.0,2.1111,1.9366,1.8627,1.9008,1.9615,2.1172,2.3921,2.4982,2.3836,1.9557,1.9861,2.2922,2.9212,3.6139,3.9427,3.7719,3.9069,4.0185,4.0512,4.1637,4.3304,4.5422,4.7923,5.0536,5.3233,5.5922,5.868,6.164,6.1823,6.1932,6.2556,6.3051,6.3701,6.4455,6.3843,6.3042,6.2208,6.1918,6.112,5.9878,5.9762,5.9859,5.8974,5.8237,5.7361,5.6513,5.5999,5.5696,5.5393,5.5555,5.5621,5.5433,5.5228,5.488,5.4556,5.4491,5.4271,5.3115,5.1953,5.1123,4.6895,4.6697,4.6284,4.6233,4.6365,4.6011,4.5287,4.4301,4.2212,0.0,0.0,3.8725,3.8149,3.7806,3.8327,3.8758,3.9122,4.034,4.1329,4.1758,4.1504,4.0418,3.8904,3.7805,3.5228,3.1281,2.9977,2.9365,2.9709,3.1944,3.6449,4.259,4.669,5.053,5.4181,5.482,5.4272,5.274,5.1862,5.0719,4.9535,4.7459,4.5559,4.3905,4.1158,3.9045,3.7449,3.5179,3.3578,3.2406,3.0953,2.9407,2.7861,2.6939,2.6021,2.5057,2.5158,2.5411,2.594,2.6508,2.7449,2.8745,3.0631,3.0354,2.7278,2.683,2.8781,3.3618,3.9448,4.2308,4.064,4.2626,4.4081,4.4357,4.5724,4.7245,4.8608,5.1231,5.3656,5.5516,5.7951,6.0169,6.1718,6.2077,6.2339,6.2992,6.3541,6.4013,6.4793,6.4415,6.3423,6.1928,6.1787,6.1482,6.065,6.0315,6.0122,5.9688,5.895,5.8259,5.7621,5.6677,5.6232,5.614,5.6392,5.6405,5.6174,5.6013,5.5984,5.5984,5.577,5.5573,5.5394,5.4171,5.3152,4.7798,4.8049,4.8128,4.8229,4.8469,4.7458,4.5916,4.4395,4.2851,4.1779,4.0801,4.0284,3.9758,3.8978,4.0125,4.0639,4.0785,4.2188,4.2373,4.1777,4.2137,4.0547,3.7567,3.737,3.5081,3.1487,3.1117,3.123,3.1932,3.5663,4.0367,4.5596,4.9593,5.2559,5.4721,5.4992,5.4446,5.3091,5.2236,5.124,4.9887,4.8546,4.6499,4.4047,4.2584,4.0388,3.7352,3.7357,3.6553,3.4918,3.4614,3.343,3.0937,3.0645,2.9404,2.6859,2.6984,2.7869,2.9457,3.0429,3.1854,3.3745,3.4936,3.4654,3.2346,3.2238,3.3816,3.7514,4.2926,4.5706,4.3909,4.4849,4.6182,4.7138,4.7926,4.958,5.261,5.3895,5.5394,5.7772,5.987,6.1313,6.1796,6.2365,6.2783,6.3201,6.4167,6.4377,6.426,6.4119,6.3311,6.1977,6.1647,6.1672,6.1174,6.1008,6.0935,6.0886,5.9833,5.9069,5.8688,5.7668,5.7055,5.6909,5.7469,5.768,5.7314,5.6997,5.6963,5.7131,5.6952,5.684,5.6996,5.6278,5.5505,4.9617,4.9702,4.9444,4.9287,4.9338,4.767,4.6455,4.5311,4.4279,4.3151,4.1838,4.1372,4.0878,4.0363,4.1082,4.1601,4.1786,4.2972,4.2952,4.2137,4.2307,4.0861,3.8177,3.7439,3.5673,3.2714,3.2507,3.3444,3.5452,3.9089,4.3752,4.8906,5.2869,5.4744,5.5041,5.5013,5.4412,5.2916,5.192,5.1071,4.9912,4.8088,4.6581,4.5252,4.3144,4.1353,3.9968,3.8799,3.7811,3.6875,3.594,3.4977,3.3619,3.2732,3.188,3.0983,3.1188,3.1947,3.3444,3.47,3.5857,3.6992,3.8139,3.8502,3.7779,3.5791,3.6514,4.0647,4.4569,4.6585,4.6261,4.6984,4.7816,4.8719,4.9779,5.1532,5.3684,5.5771,5.755,5.9437,6.1256,6.2246,6.1973,6.2896,6.3891,6.4762,6.5502,6.5475,6.4306,6.4401,6.3966,6.2216,6.1837,6.1672,6.134,6.1696,6.1672,6.1174,6.0313,5.9834,5.9476,5.8735,5.8308,5.844,5.8472,5.8202,5.7996,5.7813,5.7824,5.8303,5.9084,5.9262,5.8907,5.8641,5.8311,5.1194,5.1239,5.0297,4.9776,4.9511,4.8025,4.707,4.6451,4.5291,4.4092,4.279,4.2065,4.1657,4.1155,4.1694,4.2049,4.2569,4.338,4.3214,4.2402,4.2307,4.1027,3.8736,3.7622,3.6017,3.416,3.4255,3.597,3.8734,4.2402,4.6981,5.2088,5.5584,5.6525,5.5237,5.5184,5.4431,5.2882,5.1765,5.0904,4.9847,4.8112,4.706,4.6269,4.4152,4.2768,4.2682,4.0825,3.9583,3.91,3.7657,3.6729,3.631,3.4886,3.4398,3.4887,3.5234,3.5877,3.7193,3.8445,3.9363,3.964,4.0741,4.1503,4.1921,3.9749,3.9572,4.3425,4.608,4.7594,4.8222,4.9,4.9516,5.0068,5.1647,5.3365,5.4841,5.7325,5.9404,6.0866,6.2254,6.2964,6.265,6.3452,6.4816,6.6126,6.6688,6.5998,6.4647,6.4606,6.4057,6.2834,6.2027,6.1837,6.1696,6.2191,6.2167,6.1174,6.065,6.0339,6.0051,5.9521,5.9211,5.9418,5.9036,5.8689,5.8591,5.8673,5.8912,5.9253,6.0277,6.1074,6.0379,6.0734,6.0789,5.1723,5.1609,5.0839,4.9952,4.9259,4.8878,4.8021,4.6823,4.5271,4.4136,4.3429,4.2716,4.1842,4.1358,4.2046,4.2569,4.3068,4.3546,4.3214,4.2345,4.1985,4.0748,3.8683,3.7362,3.596,3.4675,3.6109,3.8158,4.0725,4.5857,5.0802,5.5286,5.7041,5.6899,5.5729,5.5211,5.4587,5.3909,5.2481,5.1128,4.9939,4.9732,4.8827,4.7001,4.6366,4.5662,4.4676,4.4169,4.336,4.2228,4.1294,4.0074,3.8719,3.8221,3.7758,3.7171,3.7766,3.8804,4.0271,4.105,4.1667,4.1645,4.2628,4.3668,4.4481,4.4766,4.499,4.6245,4.896,5.0222,4.9535,5.0294,5.1185,5.1754,5.3813,5.5887,5.7249,5.9131,6.0892,6.2185,6.3232,6.3553,6.3392,6.4423,6.5601,6.6262,6.6556,6.6076,6.4698,6.447,6.4271,6.3162,6.2659,6.2495,6.2331,6.2495,6.2331,6.1506,6.1008,6.0674,6.0363,6.0171,5.9955,5.9777,5.9539,5.9458,5.9359,5.9598,6.015,6.061,6.1132,6.1169,6.1331,6.2121,6.2265,5.2982,5.2923,5.2021,5.0847,4.94,4.8607,4.7773,4.6879,4.5413,4.4236,4.3379,4.2952,4.2474,4.199,4.2493,4.2902,4.3068,4.3546,4.3214,4.2364,4.1635,4.04,3.8683,3.7309,3.6499,3.6675,3.8395,4.1013,4.4761,5.0053,5.4202,5.6626,5.7424,5.7074,5.5991,5.5795,5.5041,5.3672,5.2987,5.1779,5.0112,4.9273,4.8817,4.8223,4.7196,4.6433,4.6172,4.5453,4.4671,4.411,4.2774,4.1882,4.1167,4.0309,3.9729,3.9779,4.0745,4.1756,4.265,4.3284,4.3801,4.4228,4.4957,4.6035,4.7516,4.7399,4.779,4.9692,5.0802,5.1162,5.0671,5.1025,5.1754,5.3034,5.5253,5.7125,5.8523,6.0423,6.2032,6.3326,6.4289,6.4809,6.4836,6.5992,6.7071,6.747,6.7243,6.6608,6.5626,6.5136,6.4683,6.3788,6.3473,6.3148,6.2659,6.2659,6.2495,6.2002,6.1837,6.1506,6.0768,6.0315,6.017,6.0489,6.0601,6.0597,6.023,6.065,6.1198,6.1962,6.3309,6.3857,6.4034,6.4171,6.4198,5.384,5.3558,5.2369,5.0972,4.9374,4.8126,4.7254,4.679,4.5149,4.4119,4.345,4.3137,4.3021,4.3048,4.3068,4.3068,4.3068,4.338,4.3048,4.2178,4.1304,4.007,3.8518,3.7637,3.745,3.8559,4.0648,4.4345,4.9247,5.3534,5.6452,5.7274,5.7575,5.7098,5.6155,5.5905,5.5001,5.3518,5.3176,5.2236,5.0654,4.9651,4.9193,4.8905,4.7613,4.7105,4.7372,4.6622,4.5922,4.5478,4.408,4.324,4.2947,4.2021,4.1807,4.243,4.3219,4.4046,4.4561,4.5252,4.5749,4.6229,4.7028,4.8284,4.9487,4.9367,5.0175,5.203,5.2481,5.233,5.1693,5.1967,5.2774,5.4412,5.6501,5.8366,5.9938,6.1794,6.3511,6.4646,6.5828,6.6422,6.6567,6.7447,6.8208,6.8442,6.8271,6.7588,6.679,6.6307,6.5667,6.4614,6.4086,6.3635,6.3148,6.3311,6.2985,6.2659,6.2495,6.2142,6.1573,6.0983,6.0674,6.1162,6.159,6.1783,6.1609,6.191,6.2894,6.4257,6.5489,6.6429,6.6418,6.6307,6.6168,5.3691,5.2951,5.1244,4.9972,4.9091,4.7643,4.7035,4.6727,4.4412,4.3637,4.3959,4.3037,4.3111,4.4166,4.3546,4.3068,4.3068,4.3234,4.2735,4.1863,4.0805,3.9739,3.8683,3.811,3.8383,3.9727,4.3081,4.8357,5.4952,5.6426,5.7273,5.77,5.7325,5.6649,5.6107,5.5613,5.464,5.3495,5.287,5.2389,5.1838,5.1396,5.0169,4.8822,4.84,4.8354,4.8331,4.8308,4.7645,4.6424,4.5565,4.4786,4.3982,4.3831,4.4177,4.4838,4.5047,4.5399,4.6059,4.658,4.7026,4.7516,4.8847,5.007,5.091,5.1284,5.1917,5.2908,5.4005,5.3972,5.3044,5.3275,5.4417,5.6129,5.8044,5.9938,6.198,6.3846,6.5309,6.6229,6.7107,6.778,6.8511,6.8639,6.8777,6.8888,6.8935,6.8625,6.7772,6.7315,6.6568,6.5802,6.4878,6.3984,6.3797,6.3797,6.3958,6.3635,6.3148,6.2659,6.2331,6.1977,6.1812,6.1853,6.2532,6.2738,6.2828,6.3623,6.4976,6.6344,6.7669,6.8425,6.8028,6.7747,6.7352,5.428,5.3123,5.1144,4.9993,4.8836,4.7236,4.627,4.5596,4.4201,4.3418,4.3514,4.3396,4.3332,4.3647,4.3758,4.4033,4.4268,4.3535,4.2869,4.2331,4.1083,4.0032,3.9371,3.9304,4.0353,4.2417,4.5623,5.0457,5.596,5.6894,5.7269,5.7629,5.7438,5.6829,5.6285,5.5872,5.4952,5.3518,5.287,5.2295,5.1605,5.1373,5.0839,5.0149,4.9753,4.9282,4.84,4.8377,4.7995,4.6939,4.6211,4.5384,4.4895,4.4735,4.5146,4.5989,4.6465,4.6887,4.7303,4.8215,4.9038,4.9629,5.0548,5.1761,5.2833,5.3074,5.3345,5.4279,5.4721,5.4868,5.5238,5.4992,5.5781,5.8213,6.0644,6.2534,6.393,6.5417,6.6774,6.7885,6.8365,6.8698,6.9559,7.0389,7.0491,6.9769,6.9459,6.9313,6.8732,6.8226,6.7825,6.748,6.7082,6.6367,6.492,6.4441,6.4119,6.4119,6.3958,6.3661,6.3336,6.3224,6.3061,6.3148,6.3549,6.4191,6.4403,6.5695,6.7121,6.8531,6.9701,6.9706,6.9507,6.8709,6.8143,5.395,5.2152,5.0717,4.9446,4.8273,4.6701,4.5576,4.4744,4.3698,4.3277,4.3494,4.3577,4.3494,4.381,4.439,4.4727,4.4818,4.3593,4.2721,4.2237,4.1045,4.0232,4.0068,4.0618,4.2144,4.5027,4.8742,5.3098,5.6877,5.7333,5.7401,5.7558,5.7409,5.6853,5.6312,5.6178,5.5409,5.3956,5.3424,5.3023,5.2295,5.2225,5.1873,5.1538,5.1114,5.0396,4.9176,4.9006,4.8713,4.793,4.7083,4.6374,4.6183,4.6065,4.6435,4.7432,4.7934,4.8529,4.9119,5.0009,5.1027,5.1849,5.2563,5.3669,5.4832,5.4588,5.4741,5.5261,5.5607,5.6097,5.7124,5.7312,5.8053,6.0132,6.2417,6.4155,6.5237,6.6756,6.814,6.9333,6.9933,7.004,7.0396,7.1259,7.1378,7.0602,7.0356,7.027,7.0171,6.9718,6.9185,6.8892,6.8652,6.7827,6.682,6.6132,6.5569,6.5569,6.4936,6.4698,6.4511,6.4376,6.4299,6.4518,6.4894,6.5556,6.6463,6.775,6.9059,7.0374,7.0845,7.0793,7.0248,6.9647,6.8963,5.2643,5.0569,4.9443,4.842,4.7133,4.5719,4.4785,4.414,4.3081,4.3221,4.3899,4.3479,4.3919,4.4598,4.4852,4.5004,4.4631,4.3318,4.2162,4.1376,4.0778,4.0373,4.0214,4.2288,4.4603,4.7196,5.2673,5.6238,5.8006,5.7589,5.7458,5.7461,5.7012,5.6589,5.6227,5.6155,5.5758,5.4812,5.449,5.4277,5.4075,5.3803,5.3528,5.2672,5.2529,5.1821,5.0537,5.0444,4.9904,4.9133,4.8321,4.797,4.7902,4.7813,4.8304,4.9121,4.9461,5.0261,5.1513,5.1847,5.2656,5.375,5.4845,5.5214,5.5465,5.5842,5.5947,5.5704,5.6365,5.7414,5.86,5.98,6.089,6.1506,6.3105,6.4582,6.6117,6.7861,6.9477,7.0788,7.1595,7.1824,7.1001,7.0978,7.1333,7.1297,7.1418,7.1686,7.1831,7.135,7.0809,7.0112,6.9796,6.9452,6.8598,6.7987,6.7587,6.7131,6.6229,6.5647,6.5595,6.5408,6.5283,6.5313,6.5897,6.6578,6.8062,6.9253,7.0051,7.113,7.1364,7.148,7.0788,7.0185,6.9697,5.2675,5.0821,4.9234,4.7838,4.6494,4.5126,4.4176,4.3573,4.3238,4.3299,4.364,4.408,4.4321,4.4299,4.4718,4.4766,4.4523,4.3736,4.3139,4.263,4.2103,4.1899,4.2778,4.4713,4.8004,5.2103,5.5546,5.7324,5.7631,5.7618,5.751,5.7266,5.7011,5.6564,5.5936,5.5731,5.5335,5.4571,5.4343,5.4382,5.4551,5.4551,5.4515,5.4406,5.3921,5.3199,5.2506,5.0874,4.9916,4.9314,4.8832,4.8613,4.8869,4.8873,4.9125,5.0095,5.0265,5.0986,5.2283,5.2995,5.3903,5.5198,5.5863,5.6285,5.6616,5.6674,5.6485,5.6194,5.721,5.8239,5.8868,6.0661,6.2143,6.3123,6.4499,6.5947,6.7607,6.9703,7.1361,7.197,7.2402,7.2489,7.2245,7.1793,7.0913,7.1143,7.1672,7.2294,7.2064,7.234,7.2237,7.1831,7.1514,7.0924,7.004,6.9505,6.9294,6.8412,6.748,6.6656,6.6603,6.6629,6.6475,6.6477,6.7054,6.7801,6.9314,7.0332,7.0951,7.1418,7.1709,7.1535,7.1187,7.0809,7.0402,5.2447,5.0731,4.8814,4.7444,4.6145,4.5042,4.4132,4.3431,4.3877,4.404,4.406,4.4701,4.4764,4.4359,4.4758,4.4786,4.4414,4.418,4.4299,4.4281,4.3424,4.3575,4.4778,4.8024,5.1411,5.4963,5.6965,5.7686,5.7655,5.7497,5.718,5.7021,5.7021,5.6717,5.5906,5.5882,5.5534,5.5115,5.5115,5.5154,5.5302,5.5254,5.5291,5.5279,5.4788,5.4155,5.3599,5.1916,5.0681,5.0057,4.9525,4.9412,4.9693,4.9743,5.0123,5.1107,5.1727,5.25,5.4196,5.4829,5.5279,5.6494,5.6958,5.7087,5.7446,5.7354,5.7091,5.7235,5.8044,5.9281,6.1051,6.2234,6.3861,6.5419,6.6166,6.745,6.9125,7.0889,7.2181,7.2653,7.2773,7.2778,7.2632,7.2084,7.1091,7.1502,7.233,7.2957,7.2701,7.2951,7.3034,7.2905,7.2636,7.2072,7.1378,7.106,7.0982,6.9883,6.868,6.788,6.7534,6.7853,6.7907,6.8006,6.8442,6.8847,7.0156,7.0593,7.1239,7.1589,7.2082,7.1955,7.168,7.1503,7.1063,5.1917,5.0048,4.8371,4.6825,4.5734,4.5186,4.4458,4.3937,4.4744,4.5025,4.5004,4.5308,4.5169,4.5066,4.5177,4.4956,4.457,4.4873,4.5413,4.5586,4.5371,4.5687,4.7188,5.1323,5.4442,5.6232,5.7317,5.7734,5.7484,5.7069,5.7021,5.6861,5.7021,5.6861,5.6494,5.6382,5.6429,5.6382,5.6382,5.6303,5.6214,5.6275,5.6083,5.5602,5.5159,5.4798,5.4187,5.3325,5.2304,5.1414,5.0757,5.0506,5.0742,5.0848,5.1442,5.2684,5.3276,5.4521,5.6175,5.6443,5.692,5.772,5.7966,5.7927,5.807,5.7953,5.8031,5.8679,5.9052,6.0796,6.3999,6.4937,6.5935,6.786,6.7939,6.8701,7.0395,7.1173,7.2123,7.3134,7.3086,7.2689,7.2806,7.2416,7.2443,7.2547,7.3212,7.3436,7.3745,7.3561,7.3393,7.3421,7.3219,7.2951,7.2387,7.2099,7.1865,7.1356,7.0148,6.916,6.8466,6.8732,6.9263,6.9534,6.9769,7.0277,7.0825,7.1404,7.1898,7.2392,7.2587,7.2566,7.2321,7.2001,7.1888,5.0556,4.8328,4.7277,4.6168,4.5227,4.5066,4.4926,4.4744,4.5995,4.6093,4.583,4.653,4.6167,4.5146,4.5704,4.554,4.517,4.5601,4.6551,4.7327,4.8453,4.9765,5.1463,5.4271,5.6397,5.7424,5.7663,5.7452,5.679,5.6804,5.6613,5.6566,5.6909,5.6885,5.6429,5.6786,5.6952,5.6976,5.6976,5.709,5.7197,5.6997,5.6756,5.6636,5.6113,5.5763,5.5225,5.4375,5.3306,5.224,5.2184,5.2063,5.2302,5.233,5.2845,5.3437,5.4107,5.497,5.6192,5.7139,5.7921,5.8763,5.8779,5.8947,5.9088,5.8806,5.921,6.012,6.079,6.2259,6.4968,6.5883,6.7136,6.9205,6.9622,6.9914,7.0984,7.1933,7.2687,7.294,7.3553,7.3411,7.2923,7.2769,7.2934,7.2755,7.3111,7.3535,7.3788,7.4013,7.3689,7.3745,7.3801,7.3689,7.3292,7.3007,7.2877,7.2561,7.1514,7.0443,6.9691,6.9394,6.997,7.0501,7.0949,7.1409,7.2119,7.2764,7.3083,7.3346,7.33,7.3066,7.2603,7.2406,7.2585,5.0121,4.7969,4.6782,4.5923,4.5372,4.5495,4.5553,4.5768,4.6741,4.672,4.6253,4.6941,4.6701,4.5737,4.5884,4.5987,4.5996,4.6432,4.754,4.9156,5.1467,5.3189,5.4653,5.6395,5.7526,5.7904,5.8141,5.7786,5.7359,5.7166,5.721,5.7186,5.7293,5.7037,5.6439,5.6652,5.7027,5.7214,5.7193,5.7499,5.8103,5.7862,5.7718,5.7622,5.718,5.6613,5.5771,5.5145,5.434,5.3445,5.3255,5.3428,5.367,5.4095,5.4539,5.4912,5.5626,5.6463,5.6944,5.7796,5.8631,5.9342,5.9308,5.9228,5.9508,5.9368,5.9888,6.0688,6.1654,6.3418,6.569,6.7227,6.8745,7.0429,7.1083,7.1542,7.1924,7.2818,7.304,7.3057,7.3151,7.3646,7.2865,7.294,7.2758,7.2659,7.2857,7.3421,7.369,7.3972,7.4013,7.4013,7.4013,7.3929,7.3717,7.3589,7.3432,7.3275,7.2849,7.1646,7.1076,7.0454,7.118,7.1869,7.2102,7.2594,7.3072,7.3633,7.3776,7.3856,7.3833,7.388,7.3529,7.3274,7.3426,4.9794,4.8026,4.6795,4.6144,4.582,4.6306,4.642,4.6648,4.7262,4.7241,4.6657,4.6962,4.6804,4.6392,4.6253,4.6316,4.6997,4.75,4.9086,5.1423,5.4061,5.5763,5.6092,5.7332,5.8094,5.8142,5.8403,5.8213,5.7716,5.8092,5.8044,5.7713,5.7706,5.7424,5.6795,5.6702,5.7006,5.7359,5.7526,5.8022,5.8468,5.8512,5.8392,5.8319,5.7935,5.7132,5.6269,5.5734,5.5428,5.4556,5.4461,5.4571,5.5016,5.5743,5.6118,5.6427,5.7137,5.7755,5.7953,5.856,5.9255,5.9721,5.9448,5.9368,5.9648,5.9868,6.0446,6.152,6.2289,6.4165,6.6474,6.8953,7.0453,7.1355,7.2159,7.2729,7.3133,7.3685,7.3901,7.3032,7.2919,7.3096,7.3149,7.2621,7.2078,7.3121,7.3235,7.3493,7.3775,7.3915,7.4084,7.4169,7.4141,7.4141,7.3985,7.3829,7.3985,7.3985,7.3645,7.2895,7.2433,7.21,7.2637,7.3167,7.3681,7.3907,7.404,7.4332,7.45,7.473,7.4772,7.5059,7.5078,7.4792,7.4678,4.8328,4.6754,4.6326,4.6306,4.6306,4.6951,4.7549,4.7804,4.8049,4.7709,4.7453,4.7433,4.7194,4.6453,4.704,4.7467,4.7862,4.9245,5.1379,5.4251,5.5734,5.6928,5.76,5.823,5.8543,5.8469,5.7968,5.7635,5.764,5.7715,5.7621,5.7456,5.7739,5.7596,5.7125,5.7407,5.7856,5.8213,5.8308,5.8688,5.8948,5.8848,5.8656,5.856,5.8103,5.7413,5.6981,5.6702,5.6582,5.6319,5.5803,5.5564,5.5914,5.626,5.6624,5.7148,5.7575,5.8083,5.8082,5.8894,5.9508,5.9508,5.9814,6.0039,6.0092,6.0773,6.1874,6.317,6.4221,6.5529,6.7829,6.9609,7.1057,7.1941,7.2453,7.3162,7.3853,7.4229,7.4416,7.4498,7.4336,7.4429,7.4748,7.3856,7.3564,7.3785,7.388,7.3831,7.3915,7.4014,7.4155,7.4423,7.4719,7.4874,7.4719,7.4677,7.5002,7.4847,7.4635,7.4635,7.4013,7.3816,7.4407,7.4896,7.5411,7.5427,7.541,7.5347,7.5448,7.5657,7.5924,7.5822,7.5842,7.5879,7.5822,4.8047,4.6326,4.6488,4.6811,4.7111,4.7773,4.841,4.8591,4.8432,4.8083,4.7694,4.7626,4.761,4.738,4.7868,4.8298,4.9547,5.1487,5.3689,5.5843,5.6862,5.7708,5.8189,5.8413,5.8413,5.843,5.8073,5.7739,5.7816,5.7822,5.8066,5.7635,5.7927,5.7619,5.7452,5.7733,5.8139,5.8736,5.895,5.9237,5.9332,5.9498,5.8969,5.868,5.8295,5.7677,5.6797,5.6861,5.6861,5.6789,5.6574,5.6564,5.7012,5.7586,5.8102,5.8225,5.8911,5.8993,5.8941,5.9184,5.966,5.9648,5.9787,6.0039,6.045,6.1271,6.226,6.3556,6.4693,6.6313,6.9276,7.0646,7.176,7.2467,7.2952,7.3407,7.406,7.4456,7.4783,7.5246,7.5205,7.4897,7.4806,7.4643,7.435,7.4235,7.4164,7.4096,7.4221,7.4373,7.4504,7.4675,7.5392,7.5506,7.5449,7.5524,7.6106,7.6008,7.5725,7.5967,7.6094,7.6106,7.6175,7.6425,7.6616,7.6942,7.6892,7.6826,7.6732,7.7231,7.7318,7.6905,7.6818,7.702,7.7,4.8422,4.6733,4.7035,4.7474,4.7933,4.8569,4.8907,4.8749,4.8432,4.7869,4.7664,4.761,4.7734,4.8186,4.8469,4.9521,5.1421,5.3385,5.528,5.6769,5.7355,5.7917,5.8134,5.8111,5.7917,5.7963,5.8056,5.8079,5.8251,5.8594,5.85,5.8306,5.8056,5.7916,5.7577,5.777,5.8226,5.8827,5.9087,5.9327,5.928,5.9547,5.9261,5.8615,5.8564,5.7874,5.6995,5.6893,5.6981,5.6566,5.718,5.7655,5.8104,5.8893,5.982,5.9413,6.0031,5.9971,5.945,5.9579,5.981,5.9861,5.9974,6.0087,6.0612,6.1681,6.2784,6.3833,6.5333,6.7439,7.0106,7.1395,7.2369,7.3082,7.334,7.3598,7.4158,7.4634,7.512,7.5283,7.5471,7.5421,7.5507,7.5433,7.5029,7.4769,7.4579,7.4478,7.4658,7.4866,7.4906,7.5106,7.5793,7.6032,7.5851,7.5688,7.6329,7.7155,7.696,7.7385,7.7896,7.8108,7.7935,7.752,7.7645,7.7943,7.7972,7.7645,7.7906,7.8698,7.8785,7.8311,7.8224,7.8407,7.8059,4.8661,4.8004,4.8424,4.8591,4.8727,4.9223,4.9223,4.8749,4.8114,4.7568,4.7194,4.7154,4.738,4.8037,4.9213,5.1102,5.3451,5.4867,5.6046,5.7147,5.7561,5.7711,5.763,5.7584,5.7539,5.7238,5.7709,5.8484,5.8565,5.8762,5.8785,5.8669,5.8297,5.8056,5.8161,5.8103,5.838,5.8874,5.9014,5.9116,5.9053,5.9059,5.8898,5.8236,5.8474,5.7951,5.74,5.73,5.7478,5.7093,5.7339,5.7813,5.8055,5.8669,5.9186,5.9641,5.9933,6.0007,5.9568,5.9646,5.95,5.9378,5.9934,6.0736,6.1232,6.2528,6.3778,6.5195,6.7045,6.928,6.9878,7.1165,7.2258,7.3003,7.3608,7.4072,7.4557,7.5023,7.5407,7.5301,7.5536,7.5801,7.5975,7.6201,7.5998,7.5646,7.5491,7.542,7.5563,7.5506,7.5534,7.5801,7.6161,7.6341,7.6341,7.6089,7.6311,7.7856,7.827,7.8634,7.9079,7.9824,7.9824,7.9437,7.8985,7.889,7.8707,7.8648,7.8698,7.9162,7.9336,7.9481,7.9191,7.8901,7.864,4.9059,4.878,4.8786,4.9044,4.9201,4.9359,4.9201,4.8432,4.7847,4.7417,4.701,4.6984,4.7555,4.8442,4.9307,5.1744,5.4542,5.5816,5.6875,5.7961,5.7823,5.7695,5.7588,5.7626,5.7717,5.7968,5.8379,5.8464,5.8646,5.8854,5.8946,5.8923,5.8692,5.8563,5.8549,5.8572,5.8771,5.9098,5.925,5.9157,5.9201,5.9014,5.8477,5.823,5.8139,5.781,5.7054,5.7143,5.7228,5.6821,5.7339,5.7655,5.8031,5.8533,5.9081,5.9795,6.0019,6.0076,5.9841,5.9751,5.9437,5.9157,6.0093,6.0756,6.1306,6.2579,6.4636,6.6118,6.7833,6.9701,7.0153,7.1133,7.2028,7.2747,7.3498,7.3933,7.4395,7.5037,7.5188,7.5364,7.5567,7.5948,7.6383,7.6554,7.6733,7.6583,7.6433,7.6428,7.645,7.6422,7.6428,7.6776,7.7014,7.6927,7.7165,7.7398,7.7362,7.8611,7.9594,7.9956,8.0373,8.1028,8.1417,8.1206,8.0812,8.0052,7.9919,7.9822,7.9725,7.9569,7.9743,7.983,7.9627,7.9365,7.9133,4.9643,4.9415,4.9235,4.9289,4.9494,4.9337,4.8771,4.8125,4.7475,4.7134,4.6872,4.7147,4.7733,4.8964,5.0331,5.2427,5.5512,5.6332,5.7466,5.8157,5.7685,5.7753,5.8002,5.8043,5.7685,5.8293,5.8592,5.8748,5.8847,5.8962,5.91,5.9077,5.9077,5.9077,5.8922,5.8922,5.91,5.9254,5.9431,5.9385,5.9062,5.8623,5.8218,5.7793,5.7822,5.7448,5.6889,5.7124,5.6956,5.6876,5.7117,5.7473,5.7631,5.8418,5.9018,5.9792,6.0278,6.0298,6.0127,6.0085,5.9695,5.9319,6.018,6.0678,6.1675,6.3564,6.555,6.7069,6.8015,6.928,7.0079,7.0894,7.1623,7.2316,7.3009,7.3676,7.4227,7.4838,7.5422,7.5656,7.5743,7.6095,7.6554,7.6612,7.6762,7.6911,7.6762,7.697,7.7024,7.7528,7.7616,7.7992,7.8015,7.7747,7.8167,7.9002,7.927,8.0168,8.0823,8.1241,8.166,8.229,8.2409,8.2288,8.171,8.1006,8.099,8.0609,8.0219,8.0004,8.0207,8.0178,7.9946,7.9888,7.9772,5.0468,5.0704,5.0197,4.9892,4.9359,4.8706,4.8147,4.7538,4.6825,4.6507,4.6635,4.7247,4.7902,4.9331,5.1799,5.3965,5.5665,5.6665,5.7357,5.7828,5.7401,5.7223,5.7111,5.7021,5.7469,5.8098,5.83,5.8729,5.9132,5.9044,5.9269,5.9403,5.9151,5.9014,5.9067,5.9089,5.8707,5.8503,5.8887,5.868,5.7952,5.7101,5.6981,5.7101,5.7332,5.7375,5.7042,5.6981,5.7031,5.6885,5.6596,5.6885,5.7497,5.8129,5.8599,5.9043,5.9587,6.0151,6.0015,5.9985,6.0024,5.9747,6.067,6.1794,6.3,6.4873,6.7211,6.9595,6.8915,6.8765,6.9858,7.0332,7.104,7.1881,7.2748,7.3617,7.4314,7.4924,7.5621,7.615,7.6358,7.6561,7.6903,7.6729,7.6762,7.6941,7.7119,7.7533,7.7798,7.8179,7.88,7.9237,7.9407,7.9167,7.9114,7.9952,8.0437,8.1302,8.1841,8.22,8.2529,8.2799,8.3221,8.2981,8.2253,8.1639,8.136,8.1049,8.0452,8.0294,8.0294,8.0294,8.0265,8.0265,8.0236,5.1057,5.0932,5.0476,4.9873,4.9065,4.823,4.7708,4.7174,4.6657,4.6595,4.7207,4.7708,4.8919,5.0943,5.3528,5.5362,5.6703,5.7149,5.7597,5.8027,5.7534,5.7512,5.7823,5.7556,5.7556,5.8072,5.8362,5.8519,5.9045,5.9227,5.9227,5.9545,5.9566,5.9385,5.9181,5.9045,5.8862,5.8862,5.8817,5.8684,5.7941,5.7536,5.6999,5.6858,5.6988,5.6905,5.661,5.6521,5.6535,5.635,5.6344,5.6566,5.6861,5.7473,5.8104,5.8731,5.8887,5.9232,5.9515,5.9766,5.9758,5.9946,6.0797,6.2085,6.4061,6.5625,6.674,6.7242,6.8516,6.9215,6.9715,7.0343,7.1051,7.187,7.254,7.3494,7.4423,7.5144,7.5843,7.6317,7.6791,7.7024,7.7345,7.7636,7.7607,7.7938,7.8147,7.8414,7.8737,7.9056,7.9707,8.0541,8.0777,8.0836,8.0724,8.0968,8.0586,8.1301,8.2253,8.2525,8.2582,8.2941,8.3365,8.3159,8.235,8.1836,8.1675,8.1204,8.0766,8.0609,8.0452,8.0423,8.0423,8.0265,8.0236,5.1344,5.1077,5.0454,4.9601,4.8591,4.772,4.725,4.6907,4.6663,4.7158,4.823,4.927,5.0943,5.284,5.484,5.6217,5.7321,5.7475,5.7924,5.8012,5.7718,5.7629,5.749,5.7402,5.7358,5.8463,5.7797,5.8026,5.8418,5.8603,5.8764,5.9566,5.9453,5.9315,5.9177,5.8971,5.8764,5.8764,5.8425,5.8091,5.7668,5.7445,5.691,5.6643,5.6352,5.6435,5.6255,5.6051,5.5908,5.5924,5.6255,5.6435,5.6429,5.7156,5.7789,5.8286,5.8467,5.8787,5.9081,5.9364,5.9413,6.0088,6.1189,6.2975,6.4626,6.5694,6.6164,6.6236,6.8782,6.9459,6.9686,7.0366,7.0595,7.139,7.2148,7.3307,7.4293,7.496,7.5722,7.6375,7.6879,7.7678,7.8088,7.8488,7.8693,7.8816,7.9178,7.9359,7.9535,7.9618,8.0158,8.0909,8.1146,8.1506,8.1743,8.169,8.1332,8.1119,8.2098,8.2748,8.2771,8.3015,8.3295,8.2793,8.2108,8.1871,8.1506,8.122,8.0922,8.0766,8.0737,8.0551,8.0365,8.0394,8.0265,5.104,5.1425,5.0689,4.9511,4.8114,4.6945,4.6741,4.7066,4.7027,4.7822,4.9538,5.1673,5.3114,5.4177,5.5678,5.6771,5.6837,5.7273,5.7448,5.6989,5.6565,5.6587,5.6487,5.6236,5.6107,5.6911,5.6976,5.7349,5.7536,5.7722,5.8278,5.8831,5.9016,5.8831,5.8647,5.8463,5.8278,5.8026,5.7621,5.7204,5.6924,5.6324,5.5797,5.5711,5.5644,5.5883,5.6686,5.6097,5.5768,5.5748,5.6022,5.6091,5.5947,5.6861,5.7473,5.7813,5.8178,5.8418,5.8738,5.9128,5.9691,6.0584,6.2214,6.3823,6.4665,6.5678,6.6173,6.6814,6.9371,7.0388,7.0208,6.9944,7.0464,7.1042,7.1888,7.2792,7.3813,7.4637,7.5369,7.6167,7.6937,7.7499,7.8297,7.8792,7.9056,7.9149,7.8943,7.9274,7.9693,7.9901,8.0348,8.0914,8.1213,8.1631,8.2318,8.211,8.0971,8.084,8.1365,8.2244,8.2684,8.2907,8.2893,8.2128,8.1476,8.1332,8.1332,8.1146,8.1167,8.1058,8.0893,8.0864,8.0649,8.0492,8.0394,5.1786,5.1063,5.0628,4.9497,4.8114,4.7129,4.7092,4.7811,4.8106,4.9659,5.1688,5.3916,5.5051,5.5644,5.6382,5.7252,5.7252,5.7405,5.7328,5.6989,5.6587,5.6401,5.6093,5.5885,5.5757,5.612,5.6414,5.6602,5.6976,5.6976,5.7163,5.7722,5.8278,5.8463,5.8278,5.7907,5.7536,5.7119,5.7175,5.7121,5.6599,5.6326,5.5847,5.5771,5.5176,5.5291,5.5641,5.5079,5.5189,5.529,5.5316,5.5393,5.5462,5.6382,5.6997,5.7156,5.7546,5.7862,5.831,5.8756,5.9583,6.1249,6.3254,6.4704,6.4762,6.5876,6.6853,6.8114,6.9802,7.0904,7.0673,7.0713,7.0942,7.1157,7.1645,7.2468,7.3292,7.4146,7.4887,7.5772,7.6428,7.7083,7.7967,7.8884,7.9182,7.927,7.9215,7.9188,7.9635,8.0138,8.0347,8.0704,8.1033,8.1452,8.214,8.1421,8.0458,8.0562,8.072,8.1309,8.204,8.2113,8.201,8.1311,8.0492,8.0109,8.0259,8.1093,8.1271,8.1043,8.1028,8.133,8.1116,8.0717,8.0649,5.2101,5.0996,5.0342,4.9279,4.819,4.7664,4.8067,4.9091,4.9739,5.1333,5.3864,5.5662,5.6434,5.6538,5.7239,5.7492,5.747,5.7514,5.7328,5.7033,5.653,5.6322,5.6013,5.5616,5.5198,5.5619,5.585,5.6038,5.6226,5.6414,5.6602,5.6789,5.7163,5.7536,5.7536,5.7163,5.6789,5.6602,5.658,5.6716,5.6172,5.597,5.5592,5.5455,5.4841,5.498,5.5071,5.4649,5.4312,5.4569,5.4721,5.4668,5.516,5.5577,5.6358,5.6702,5.7069,5.7276,5.7826,5.8664,5.9804,6.1658,6.3545,6.4663,6.5316,6.6024,6.6814,6.7189,6.9374,7.0906,7.0384,7.0221,7.0563,7.0731,7.1629,7.2272,7.3016,7.3816,7.4504,7.5249,7.5974,7.6666,7.7316,7.8352,7.927,7.948,7.9633,7.9575,7.9723,8.0078,8.0197,8.0554,8.0794,8.1302,8.1721,8.0671,7.9797,7.9965,8.0213,8.0447,8.0974,8.1157,8.0932,8.0237,7.9421,7.8715,7.8656,7.9129,8.0015,8.0807,8.1131,8.161,8.119,8.0948,8.0902,5.1763,5.1231,5.0009,4.917,4.8478,4.8291,4.9007,5.0464,5.1551,5.3126,5.5115,5.6688,5.6976,5.7017,5.7424,5.7612,5.7349,5.7328,5.7141,5.6746,5.6034,5.5765,5.5409,5.4989,5.4695,5.4672,5.4904,5.5283,5.5472,5.5661,5.585,5.6038,5.6038,5.6205,5.6038,5.6038,5.6226,5.6602,5.6226,5.5757,5.5244,5.5193,5.4861,5.4504,5.4359,5.4363,5.4345,5.4324,5.4012,5.3808,5.4265,5.4289,5.4157,5.5067,5.5715,5.6221,5.6685,5.7381,5.8361,5.9207,6.048,6.2194,6.4039,6.4665,6.4874,6.5685,6.6475,6.6794,6.8198,6.9052,6.8947,6.9266,6.9877,7.0624,7.1371,7.2009,7.2729,7.3549,7.4211,7.476,7.5678,7.6521,7.6932,7.7671,7.8821,7.9569,8.005,7.9932,7.9722,7.9603,7.9603,7.9692,8.0018,8.0315,8.0405,7.9597,7.9053,7.9393,7.9738,8.0062,8.0062,8.0295,7.9837,7.9143,7.8446,7.7947,7.7443,7.7145,7.9031,8.0901,8.1468,8.1828,8.1349,8.1172,8.0918,5.1693,5.0611,5.0143,4.9685,4.9252,4.8954,4.9886,5.2019,5.4057,5.5396,5.595,5.6797,5.6709,5.6566,5.65,5.6837,5.6516,5.6602,5.6414,5.6184,5.5595,5.5262,5.4947,5.4527,5.4275,5.4461,5.4544,5.4735,5.5304,5.5325,5.5283,5.5283,5.4987,5.4904,5.5472,5.5661,5.585,5.5472,5.5598,5.5532,5.4752,5.4393,5.4294,5.3814,5.3715,5.3765,5.3701,5.38,5.3495,5.3211,5.3682,5.3625,5.3566,5.4485,5.4928,5.5438,5.6017,5.7502,5.8959,6.0181,6.1146,6.2802,6.4114,6.4925,6.5319,6.5398,6.5871,6.6133,6.6977,6.7799,6.8759,6.916,6.9723,7.0422,7.1121,7.1547,7.2161,7.309,7.3857,7.4169,7.4788,7.587,7.6464,7.6869,7.7933,7.862,7.8863,7.8923,7.8567,7.8625,7.8565,7.8565,7.8801,7.9122,7.9118,7.8908,7.8963,7.925,7.9596,7.9686,7.9799,7.9566,7.9197,7.8708,7.7888,7.706,7.7057,7.7616,7.9719,8.1298,8.1654,8.1896,8.1598,8.1268,8.0935,5.1638,5.0412,5.0097,4.9927,4.9653,4.951,5.0891,5.3137,5.5498,5.6429,5.6192,5.6419,5.6242,5.5919,5.5786,5.5742,5.5549,5.574,5.5783,5.5783,5.5156,5.5073,5.4926,5.4465,5.4168,5.4292,5.4142,5.4333,5.4735,5.4498,5.4875,5.5,5.4238,5.443,5.4751,5.505,5.4883,5.4461,5.4716,5.4571,5.3903,5.3671,5.3577,5.3315,5.3221,5.323,5.3017,5.2944,5.2931,5.2866,5.2817,5.2968,5.3404,5.3935,5.4385,5.5019,5.6255,5.7911,5.9438,6.1358,6.2471,6.3779,6.489,6.5444,6.5603,6.5817,6.6105,6.6289,6.6236,6.7079,6.8487,6.8941,6.9475,7.0338,7.0528,7.0961,7.1472,7.2568,7.2913,7.3359,7.4069,7.5087,7.6061,7.6414,7.6962,7.7411,7.7651,7.7593,7.7593,7.777,7.7917,7.7917,7.7946,7.8357,7.8678,7.8878,7.8963,7.925,7.928,7.9197,7.9053,7.8704,7.8503,7.827,7.7593,7.7148,7.7382,7.8326,7.9929,8.1122,8.169,8.166,8.1631,8.1421,8.1031,5.1515,5.0746,4.9971,4.9611,4.9696,5.0054,5.1594,5.3919,5.5436,5.6058,5.595,5.5844,5.553,5.5303,5.5332,5.5043,5.4684,5.5023,5.5171,5.5154,5.501,5.5199,5.5094,5.4693,5.4271,5.4122,5.3951,5.3972,5.3801,5.4107,5.4515,5.4679,5.3811,5.3883,5.3914,5.3923,5.376,5.3849,5.3752,5.357,5.293,5.2969,5.2736,5.2743,5.2713,5.2692,5.2503,5.2521,5.233,5.2294,5.2714,5.306,5.3549,5.4109,5.4622,5.5477,5.6961,5.8372,5.9829,6.1804,6.3704,6.4648,6.5179,6.5977,6.625,6.6181,6.6312,6.6944,6.6991,6.7383,6.8044,6.855,6.9248,6.9545,6.9927,7.0418,7.1096,7.1608,7.2089,7.2568,7.3544,7.4494,7.5449,7.5888,7.6491,7.6317,7.6646,7.6943,7.7004,7.7475,7.7623,7.7623,7.7623,7.777,7.8063,7.8209,7.8499,7.8644,7.8499,7.8414,7.8093,7.7976,7.7534,7.7268,7.709,7.7028,7.7145,7.8,7.9633,8.0675,8.1422,8.1243,8.1004,8.1213,8.0941,5.0724,4.9971,4.9308,4.9081,4.93,5.04,5.1853,5.3448,5.4583,5.5003,5.5005,5.4606,5.4331,5.3932,5.3899,5.3766,5.3755,5.3945,5.4153,5.4362,5.4402,5.4631,5.4714,5.4524,5.4333,5.4142,5.376,5.3569,5.367,5.3823,5.3649,5.3528,5.3246,5.3106,5.2887,5.2667,5.2992,5.3064,5.2931,5.2694,5.2247,5.2354,5.2085,5.1957,5.2152,5.2152,5.1847,5.2135,5.2124,5.2153,5.2473,5.2953,5.3361,5.4364,5.5381,5.6105,5.7478,5.8664,5.9966,6.1911,6.3967,6.5415,6.6218,6.6521,6.6933,6.6939,6.6808,6.7305,6.7637,6.7976,6.795,6.8298,6.8778,6.9101,6.9267,6.9736,7.0255,7.0798,7.1285,7.2089,7.2913,7.3829,7.476,7.583,7.6103,7.5814,7.5699,7.6085,7.6322,7.6795,7.7031,7.718,7.718,7.718,7.7328,7.7652,7.777,7.7917,7.777,7.7682,7.7533,7.7207,7.6791,7.6491,7.655,7.6521,7.6642,7.803,7.984,8.0318,8.1093,8.0645,8.0526,8.0825,8.0825,5.0498,4.9893,4.898,4.8714,4.8939,4.9874,5.1007,5.2218,5.3495,5.3951,5.384,5.3679,5.3199,5.2688,5.2751,5.2533,5.2046,5.2436,5.2661,5.2784,5.3398,5.3583,5.3706,5.3869,5.374,5.3569,5.3377,5.3185,5.3286,5.3395,5.3146,5.3246,5.2935,5.2697,5.2518,5.234,5.2027,5.2255,5.2379,5.2208,5.1993,5.1695,5.1249,5.1169,5.1552,5.1248,5.1268,5.1723,5.1944,5.2019,5.2592,5.3099,5.3474,5.4773,5.5846,5.6596,5.7522,5.8927,6.0428,6.2331,6.4103,6.576,6.6965,6.7567,6.7846,6.788,6.7854,6.8037,6.8097,6.819,6.793,6.7967,6.8227,6.8487,6.8769,6.9022,6.9571,6.9954,7.0635,7.1474,7.2409,7.3201,7.4296,7.5374,7.5981,7.5534,7.5297,7.5325,7.5534,7.5744,7.6103,7.6433,7.6433,7.6433,7.6733,7.6882,7.7031,7.715,7.7002,7.697,7.6874,7.6695,7.6219,7.6126,7.6241,7.6479,7.7136,7.8499,8.0077,8.0527,8.1061,8.0911,8.0911,8.0973,8.0734,5.053,5.001,4.8713,4.8134,4.822,4.8688,4.9568,5.0387,5.2069,5.2712,5.25,5.286,5.2353,5.1713,5.1713,5.135,5.1046,5.1186,5.1428,5.1061,5.2094,5.2498,5.272,5.2711,5.3043,5.274,5.2587,5.2587,5.234,5.2617,5.2994,5.3371,5.266,5.2169,5.2363,5.162,5.1463,5.1578,5.1765,5.1868,5.1479,5.1189,5.1001,5.09,5.0802,5.054,5.0823,5.1148,5.1535,5.2304,5.3029,5.3433,5.4428,5.5222,5.5983,5.6721,5.7892,5.9164,6.0892,6.2707,6.458,6.6245,6.7506,6.7944,6.8034,6.8315,6.8429,6.8586,6.8617,6.8605,6.8423,6.8022,6.81,6.8605,6.9097,6.9161,6.925,6.967,7.0144,7.0961,7.1608,7.2568,7.3201,7.4113,7.4561,7.4772,7.4857,7.4703,7.4464,7.4618,7.5192,7.5526,7.5678,7.5678,7.5981,7.6283,7.6254,7.6404,7.6404,7.6132,7.6003,7.5822,7.5736,7.6233,7.6789,7.763,7.8435,7.9418,8.0346,8.1242,8.1449,8.1239,8.1209,8.1299,8.0821,4.886,4.8713,4.7723,4.7081,4.6872,4.7638,4.8319,4.8962,4.9576,5.0545,5.1328,5.1162,5.1066,5.0884,5.0661,5.0479,5.0437,5.0515,5.096,5.0916,5.1417,5.1818,5.2078,5.2279,5.2499,5.272,5.2607,5.226,5.1991,5.2051,5.2149,5.2032,5.1855,5.2169,5.1836,5.125,5.1094,5.1113,5.1189,5.1454,5.1527,5.0833,5.0404,5.0325,5.027,5.0254,5.0538,5.1127,5.1433,5.2005,5.3478,5.4679,5.6104,5.6685,5.6943,5.7526,5.8367,5.9778,6.1159,6.303,6.4863,6.6061,6.7143,6.7712,6.8151,6.8487,6.8758,6.8967,6.9007,6.9111,6.8968,6.8396,6.8072,6.8798,6.9279,6.9293,6.928,6.9469,6.9704,7.0308,7.0961,7.1608,7.2249,7.2616,7.3052,7.3393,7.3589,7.3589,7.3237,7.3181,7.3929,7.4451,7.476,7.5067,7.5221,7.5526,7.5649,7.5707,7.5736,7.5431,7.5125,7.5278,7.5488,7.6752,7.7732,7.8336,7.909,7.9749,8.0616,8.1749,8.2045,8.2042,8.1916,8.1916,8.1115,4.814,4.7813,4.6868,4.6308,4.6387,4.7111,4.7579,4.8117,4.8453,4.9132,4.9749,4.9833,4.9955,5.0014,4.9974,4.9871,4.9971,5.0006,4.9901,5.008,5.0623,5.0873,5.117,5.1658,5.1864,5.2122,5.2225,5.1953,5.1758,5.209,5.2207,5.162,5.1776,5.1679,5.127,5.0998,5.1055,5.1113,5.1035,5.1228,5.1381,5.081,5.0318,5.0348,5.0131,5.008,5.053,5.1327,5.2107,5.3031,5.4485,5.5484,5.6527,5.7022,5.7421,5.7884,5.8982,6.0364,6.171,6.3326,6.5068,6.6196,6.6857,6.7307,6.7646,6.7983,6.8151,6.8216,6.9016,6.9051,6.9798,6.9669,6.9171,6.9523,6.9917,7.0154,6.9852,6.9522,6.9451,6.932,7.0144,7.115,7.1447,7.1285,7.1765,7.2561,7.2727,7.2727,7.2348,7.2079,7.2747,7.3359,7.3857,7.4013,7.4141,7.4606,7.4914,7.4971,7.5153,7.4845,7.4662,7.4788,7.5267,7.6924,7.8175,7.905,7.9623,8.0524,8.1631,8.2857,8.3001,8.2875,8.2717,8.2352,8.1789,4.7772,4.7121,4.6114,4.5783,4.6172,4.668,4.7208,4.7654,4.7819,4.8013,4.8434,4.8474,4.9112,4.9571,4.937,4.9346,4.9321,4.9295,4.9091,4.9189,4.9463,4.9973,5.0404,5.0547,5.1149,5.1541,5.1894,5.1894,5.2012,5.2285,5.2107,5.1537,5.1421,5.1482,5.1153,5.0959,5.1037,5.1191,5.1172,5.125,5.1172,5.1016,5.0586,5.0332,5.0306,5.0447,5.0822,5.1771,5.2804,5.3799,5.5172,5.6078,5.6946,5.74,5.7783,5.8252,5.9877,6.1248,6.2509,6.3692,6.5246,6.6157,6.6601,6.6992,6.7163,6.7333,6.7502,6.7835,6.8432,6.9367,7.0093,7.0818,7.0516,7.0119,7.0412,7.0572,7.014,6.9679,6.925,6.8926,6.9677,7.0662,7.0526,7.0198,7.0689,7.1501,7.1823,7.1796,7.1769,7.1741,7.2117,7.2678,7.3154,7.3285,7.3387,7.3857,7.4479,7.4479,7.4508,7.4324,7.4381,7.4987,7.5821,7.7184,7.8349,7.9677,8.0757,8.193,8.289,8.3634,8.3898,8.3648,8.2946,8.2755,8.255,4.659,4.5412,4.5607,4.5412,4.545,4.6055,4.6914,4.7287,4.6523,4.697,4.7895,4.7063,4.7153,4.9197,4.8581,4.864,4.9177,4.9052,4.8848,4.8926,4.9023,4.9137,4.968,5.0336,5.082,5.125,5.1641,5.1777,5.2187,5.2266,5.201,5.1358,5.1339,5.1286,5.0861,5.0668,5.0668,5.0881,5.1074,5.1074,5.1016,5.0898,5.082,5.064,5.0377,5.0269,5.077,5.2064,5.2579,5.3364,5.49,5.6293,5.7196,5.7752,5.8345,5.9361,6.0978,6.2361,6.3632,6.4874,6.6242,6.6312,6.6535,6.6631,6.6803,6.6974,6.6974,6.6949,6.7806,6.8841,6.9894,7.1121,7.1346,7.081,7.0662,7.0395,7.0192,6.9762,6.9291,6.9056,6.9014,6.9591,6.9749,6.9557,6.9862,7.0522,7.085,7.085,7.1311,7.142,7.1556,7.2257,7.2794,7.3313,7.3701,7.3857,7.4169,7.4013,7.4126,7.4294,7.4776,7.5385,7.6461,7.7702,7.9277,8.0605,8.1717,8.265,8.3035,8.3563,8.446,8.4566,8.3593,8.3133,8.299]}]]